[[{"header":{"parameterUnit":"m.s-1","parameterCategory":1,"la1":30.6,"la2":29.2853,"lo1":-89.7004,"lo2":-87.6739,"dy":0.0162,"dx":0.0183,"nx":112,"ny":82,"refTime":"2023-05-25T00:00:00:Z","depth":0,"parameterNumber":2,"parameterNumberName":"U-component_of_WINDS"},"data":[0.0,0.0,0.0,0.0,0.0,0.0,0.0,0.0,0.0,0.0,0.0,0.0,0.0,0.0,0.0,0.0,0.0,0.0,0.0,0.0,0.0,0.0,0.0,0.0,0.0,0.0,0.0,0.0,0.0,0.0,0.0,0.0,0.0,0.0,0.0,0.0,0.0,0.0,0.0,0.0,0.0,0.0,0.0,0.0,0.0,0.0,0.0,0.0,0.0,0.0,0.0,0.0,0.0,0.0,0.0,0.0,0.0,0.0,0.0,0.0,0.0,0.0,0.0,0.0,0.0,0.0,0.0,0.0,0.0,0.0,0.0,0.0,0.0,0.0,0.0,0.0,0.0,0.0,0.0,0.0,0.0,0.0,0.0,0.0,0.0,0.0,0.0,0.0,0.0,0.0,-1.9569,-1.8821,-1.9016,-1.8951,-1.8478,-1.8802,-1.8672,-1.7989,0.0,0.0,0.0,0.0,0.0,0.0,0.0,0.0,0.0,0.0,0.0,0.0,0.0,0.0,0.0,0.0,0.0,0.0,0.0,0.0,0.0,0.0,0.0,0.0,0.0,0.0,0.0,0.0,0.0,0.0,0.0,0.0,0.0,0.0,0.0,0.0,0.0,0.0,0.0,0.0,0.0,0.0,0.0,0.0,0.0,0.0,0.0,0.0,0.0,0.0,0.0,0.0,0.0,0.0,0.0,0.0,0.0,0.0,0.0,0.0,0.0,0.0,0.0,0.0,0.0,0.0,0.0,0.0,0.0,0.0,0.0,0.0,0.0,0.0,0.0,0.0,0.0,0.0,0.0,0.0,0.0,0.0,0.0,0.0,0.0,0.0,0.0,0.0,0.0,0.0,0.0,0.0,0.0,0.0,0.0,0.0,0.0,0.0,0.0,0.0,0.0,0.0,0.0,0.0,-1.8015,-1.8869,-1.8489,-1.8186,-1.8066,-1.7302,-1.6802,-1.6768,0.0,0.0,0.0,0.0,0.0,0.0,0.0,0.0,0.0,0.0,0.0,0.0,0.0,0.0,0.0,0.0,0.0,0.0,0.0,0.0,0.0,0.0,0.0,0.0,0.0,0.0,0.0,0.0,0.0,0.0,0.0,0.0,0.0,0.0,0.0,0.0,0.0,0.0,0.0,0.0,0.0,0.0,0.0,0.0,0.0,0.0,0.0,0.0,0.0,0.0,0.0,0.0,0.0,0.0,0.0,0.0,0.0,0.0,0.0,0.0,0.0,0.0,0.0,0.0,0.0,0.0,0.0,0.0,0.0,0.0,0.0,0.0,0.0,0.0,0.0,0.0,0.0,0.0,0.0,0.0,0.0,0.0,0.0,0.0,0.0,0.0,0.0,0.0,0.0,0.0,0.0,0.0,0.0,0.0,0.0,0.0,0.0,0.0,0.0,0.0,0.0,0.0,0.0,-1.7235,-1.7578,-1.8333,-1.7754,-1.7224,-1.689,-1.6404,-1.5833,-1.5196,-1.5688,0.0,0.0,0.0,0.0,0.0,0.0,0.0,0.0,0.0,0.0,0.0,0.0,0.0,0.0,0.0,0.0,0.0,0.0,0.0,0.0,0.0,0.0,0.0,0.0,0.0,0.0,0.0,0.0,0.0,0.0,0.0,0.0,0.0,0.0,0.0,0.0,0.0,0.0,0.0,0.0,0.0,0.0,0.0,0.0,0.0,0.0,0.0,0.0,0.0,0.0,0.0,0.0,0.0,0.0,0.0,0.0,0.0,0.0,0.0,0.0,0.0,0.0,0.0,0.0,0.0,0.0,0.0,0.0,0.0,0.0,0.0,0.0,0.0,0.0,0.0,0.0,0.0,0.0,0.0,0.0,0.0,0.0,0.0,0.0,0.0,0.0,0.0,0.0,0.0,0.0,0.0,0.0,0.0,0.0,0.0,0.0,0.0,0.0,0.0,0.0,0.0,0.0,-1.7335,-1.7313,-1.7457,-1.6888,-1.6255,-1.57,-1.5468,-1.5001,-1.407,-1.3992,0.0,0.0,0.0,0.0,0.0,0.0,0.0,0.0,0.0,0.0,0.0,0.0,0.0,0.0,0.0,0.0,0.0,0.0,0.0,0.0,0.0,0.0,0.0,0.0,0.0,0.0,0.0,0.0,0.0,0.0,0.0,0.0,0.0,0.0,0.0,0.0,0.0,0.0,0.0,0.0,0.0,0.0,0.0,0.0,0.0,0.0,0.0,0.0,0.0,0.0,0.0,0.0,0.0,0.0,0.0,0.0,0.0,0.0,0.0,0.0,0.0,0.0,0.0,0.0,0.0,0.0,0.0,0.0,0.0,0.0,0.0,0.0,0.0,0.0,0.0,0.0,0.0,0.0,0.0,0.0,0.0,0.0,0.0,0.0,0.0,0.0,0.0,0.0,0.0,0.0,0.0,0.0,0.0,0.0,0.0,0.0,0.0,0.0,0.0,0.0,0.0,0.0,-1.6513,-1.6684,-1.6285,-1.5816,-1.5294,-1.4834,-1.424,-1.3941,-1.401,-1.3033,0.0,0.0,0.0,0.0,0.0,0.0,0.0,0.0,0.0,0.0,0.0,0.0,0.0,0.0,0.0,0.0,0.0,0.0,0.0,0.0,0.0,0.0,0.0,0.0,0.0,0.0,0.0,0.0,0.0,0.0,0.0,0.0,0.0,0.0,0.0,0.0,0.0,0.0,0.0,0.0,0.0,0.0,0.0,0.0,0.0,0.0,0.0,0.0,0.0,0.0,0.0,0.0,0.0,0.0,0.0,0.0,0.0,0.0,0.0,0.0,0.0,0.0,0.0,0.0,0.0,0.0,0.0,0.0,0.0,0.0,0.0,0.0,0.0,0.0,0.0,0.0,0.0,0.0,0.0,0.0,0.0,0.0,0.0,0.0,0.0,0.0,0.0,0.0,0.0,0.0,0.0,0.0,0.0,0.0,0.0,0.0,0.0,0.0,0.0,0.0,0.0,0.0,-1.5684,-1.6137,-1.5866,-1.4923,-1.4255,-1.4085,-1.3494,-1.3086,-1.2781,0.0,0.0,0.0,0.0,0.0,0.0,0.0,0.0,0.0,0.0,0.0,0.0,0.0,0.0,0.0,0.0,0.0,0.0,0.0,0.0,0.0,0.0,0.0,0.0,0.0,0.0,0.0,0.0,0.0,0.0,0.0,0.0,0.0,0.0,0.0,0.0,0.0,0.0,0.0,0.0,0.0,0.0,0.0,0.0,0.0,0.0,0.0,0.0,0.0,0.0,0.0,0.0,0.0,0.0,0.0,0.0,0.0,0.0,0.0,0.0,0.0,0.0,0.0,0.0,0.0,0.0,0.0,0.0,0.0,0.0,0.0,0.0,0.0,0.0,0.0,0.0,0.0,0.0,0.0,0.0,0.0,0.0,0.0,0.0,0.0,0.0,0.0,0.0,0.0,0.0,0.0,0.0,0.0,0.0,0.0,0.0,0.0,0.0,0.0,0.0,0.0,0.0,-1.4312,-1.525,-1.5775,-1.5298,-1.4513,-1.3827,-1.3464,-1.3042,-1.2499,-1.1951,0.0,0.0,0.0,0.0,0.0,0.0,0.0,0.0,0.0,0.0,0.0,0.0,0.0,0.0,0.0,0.0,0.0,0.0,0.0,0.0,0.0,0.0,0.0,0.0,0.0,0.0,0.0,0.0,0.0,0.0,0.0,0.0,0.0,0.0,0.0,0.0,0.0,0.0,0.0,0.0,0.0,0.0,0.0,0.0,0.0,0.0,0.0,0.0,0.0,0.0,0.0,0.0,0.0,0.0,0.0,0.0,0.0,0.0,0.0,0.0,0.0,0.0,0.0,0.0,0.0,0.0,0.0,0.0,0.0,0.0,0.0,0.0,0.0,0.0,0.0,0.0,0.0,0.0,0.0,0.0,0.0,0.0,0.0,0.0,0.0,0.0,0.0,0.0,0.0,0.0,0.0,0.0,0.0,0.0,0.0,0.0,0.0,0.0,0.0,0.0,0.0,0.0,-1.4393,-1.5404,-1.5606,-1.4328,-1.4467,-1.4222,-1.2975,-1.2781,-1.2432,0.0,0.0,0.0,0.0,0.0,0.0,0.0,0.0,0.0,0.0,0.0,0.0,0.0,0.0,0.0,0.0,0.0,0.0,0.0,0.0,0.0,0.0,0.0,0.0,0.0,0.0,0.0,0.0,0.0,0.0,0.0,0.0,0.0,0.0,0.0,0.0,0.0,0.0,0.0,0.0,0.0,0.0,0.0,0.0,0.0,0.0,0.0,0.0,0.0,0.0,0.0,0.0,0.0,0.0,0.0,0.0,0.0,0.0,0.0,0.0,0.0,0.0,0.0,0.0,0.0,0.0,0.0,0.0,0.0,0.0,0.0,0.0,0.0,0.0,0.0,0.0,0.0,0.0,0.0,0.0,0.0,0.0,0.0,0.0,0.0,0.0,0.0,0.0,0.0,0.0,0.0,0.0,0.0,0.0,0.0,0.0,0.0,0.0,0.0,0.0,0.0,0.0,0.0,-1.3651,-1.4555,-1.4964,-1.4296,-1.3345,-1.2564,-1.2241,-1.1969,-1.1655,-1.1289,0.0,0.0,0.0,0.0,0.0,0.0,0.0,0.0,0.0,0.0,0.0,0.0,0.0,0.0,0.0,0.0,0.0,0.0,0.0,0.0,0.0,0.0,0.0,0.0,0.0,0.0,0.0,0.0,0.0,0.0,0.0,0.0,0.0,0.0,0.0,0.0,0.0,0.0,0.0,0.0,0.0,0.0,0.0,0.0,0.0,0.0,0.0,0.0,0.0,0.0,0.0,0.0,0.0,0.0,0.0,0.0,0.0,0.0,0.0,0.0,0.0,0.0,0.0,0.0,0.0,0.0,0.0,0.0,0.0,0.0,0.0,0.0,0.0,0.0,0.0,0.0,0.0,0.0,0.0,0.0,0.0,0.0,0.0,0.0,0.0,0.0,0.0,0.0,0.0,0.0,0.0,0.0,0.0,0.0,0.0,0.0,0.0,0.0,0.0,0.0,0.0,0.0,-1.2459,-1.3778,-1.4474,-1.3569,-1.2445,-1.1686,-1.134,-1.0985,-1.0651,-1.0266,0.0,0.0,0.0,0.0,0.0,0.0,0.0,0.0,0.0,0.0,0.0,0.0,0.0,0.0,0.0,0.0,0.0,0.0,0.0,0.0,0.0,0.0,0.0,0.0,0.0,0.0,0.0,0.0,0.0,0.0,0.0,0.0,0.0,0.0,0.0,0.0,0.0,0.0,0.0,0.0,0.0,0.0,0.0,0.0,0.0,0.0,0.0,0.0,0.0,0.0,0.0,0.0,0.0,0.0,0.0,0.0,0.0,0.0,0.0,0.0,0.0,0.0,0.0,0.0,0.0,0.0,0.0,0.0,0.0,0.0,0.0,0.0,0.0,0.0,0.0,0.0,0.0,0.0,0.0,0.0,0.0,0.0,0.0,0.0,0.0,0.0,0.0,0.0,0.0,0.0,0.0,0.0,0.0,0.0,0.0,0.0,0.0,0.0,0.0,0.0,0.0,0.0,-1.1304,-1.3063,-1.381,-1.2372,-1.1835,-1.1236,-1.0438,-1.0051,-0.9579,-0.894,0.0,0.0,0.0,0.0,0.0,0.0,0.0,0.0,0.0,0.0,0.0,0.0,0.0,0.0,0.0,0.0,0.0,0.0,0.0,0.0,0.0,0.0,0.0,0.0,0.0,0.0,0.0,0.0,0.0,0.0,0.0,0.0,0.0,0.0,0.0,0.0,0.0,0.0,0.0,0.0,0.0,0.0,0.0,0.0,0.0,0.0,0.0,0.0,0.0,0.0,0.0,0.0,0.0,0.0,0.0,0.0,0.0,0.0,0.0,0.0,2.1934,2.4583,0.0,0.0,0.0,0.0,0.0,0.0,0.0,0.0,0.0,0.0,0.0,0.0,0.0,0.0,0.0,0.0,0.0,0.0,0.0,0.0,0.0,0.0,0.0,0.0,0.0,0.0,0.0,0.0,0.0,0.0,0.0,0.0,0.0,0.0,0.0,0.0,0.0,0.0,0.0,0.0,-1.1996,-1.2512,-1.2432,-1.1459,-1.0875,-1.0282,-0.9604,-0.9599,-0.9502,-0.9231,-0.9611,0.0,0.0,0.0,0.0,0.0,0.0,0.0,0.0,0.0,0.0,0.0,0.0,0.0,0.0,0.0,0.0,0.0,0.0,0.0,0.0,0.0,0.0,0.0,0.0,0.0,0.0,0.0,0.0,0.0,0.0,0.0,0.0,0.0,0.0,0.0,0.0,0.0,0.0,0.0,0.0,0.0,0.0,0.0,0.0,0.0,0.0,0.0,0.0,0.0,0.0,0.0,0.0,0.0,0.0,0.0,0.0,0.0,0.0,0.0,2.2383,2.3804,0.0,0.0,0.0,0.0,0.0,0.0,0.0,0.0,0.0,0.0,0.0,0.0,0.0,0.0,0.0,0.0,0.0,0.0,0.0,0.0,0.0,0.0,0.0,0.0,0.0,0.0,0.0,0.0,0.0,0.0,0.0,0.0,0.0,0.0,0.0,0.0,0.0,0.0,0.0,0.0,-1.1111,-1.1471,-1.1397,-1.0576,-0.9599,-0.8922,-0.8765,-0.8542,-0.8466,-0.8466,-0.878,0.0,0.0,0.0,0.0,0.0,0.0,0.0,0.0,0.0,0.0,0.0,0.0,0.0,0.0,0.0,0.0,0.0,0.0,0.0,0.0,0.0,0.0,0.0,0.0,0.0,0.0,0.0,0.0,0.0,0.0,0.0,0.0,0.0,0.0,0.0,0.0,0.0,0.0,0.0,0.0,0.0,0.0,0.0,0.0,0.0,0.0,0.0,0.0,0.0,0.0,0.0,0.0,0.0,1.909,1.9475,2.0568,2.0696,2.0939,2.1444,2.3289,2.3451,2.2743,2.6337,0.0,0.0,0.0,0.0,0.0,0.0,0.0,0.0,0.0,0.0,0.0,0.0,0.0,0.0,0.0,0.0,0.0,0.0,0.0,0.0,0.0,0.0,0.0,0.0,-0.7126,-0.76,-0.7693,0.0,0.0,0.0,0.0,0.0,0.0,0.0,0.0,0.0,0.0,0.0,-1.0218,-1.0576,-1.0645,-0.9992,-0.8699,-0.8084,-0.8309,-0.771,-0.7484,-0.771,-0.7949,-0.8102,0.0,0.0,0.0,0.0,0.0,0.0,0.0,0.0,0.0,0.0,0.0,0.0,0.0,0.0,0.0,0.0,0.0,0.0,0.0,0.0,0.0,0.0,0.0,0.0,0.0,0.0,0.0,0.0,0.0,0.0,0.0,0.0,1.7058,1.7288,0.0,0.0,0.0,0.0,0.0,0.0,0.0,0.0,0.0,0.0,0.0,0.0,0.0,2.027,2.052,1.8946,1.8603,1.9605,1.7939,1.7609,1.8462,1.9748,2.0386,2.0579,2.2616,0.0,2.4461,2.5052,0.0,0.0,0.0,0.0,0.0,0.0,0.0,0.0,0.0,0.0,0.0,0.0,0.0,0.0,0.0,0.0,0.0,0.0,0.0,0.0,0.0,0.0,-0.8313,-0.8385,-0.8466,-0.8694,0.0,-0.9609,-0.9533,-0.8851,-0.9311,0.0,0.0,0.0,0.0,0.0,0.0,0.0,-1.0887,-1.0438,-0.9992,-0.9922,-0.9084,-0.8699,-0.9145,-0.8461,-0.8161,-0.8546,-0.825,-0.8102,-0.8102,-0.915,0.0,0.0,0.0,0.0,0.0,0.0,0.0,0.0,0.0,0.0,0.0,0.0,0.0,0.0,0.0,0.0,0.0,0.0,0.0,0.0,0.0,0.0,0.0,0.0,0.0,0.0,0.0,0.0,0.0,1.7899,1.7073,1.6835,1.7051,1.7472,0.0,0.0,0.0,0.0,0.0,0.0,0.0,0.0,0.0,1.8603,1.8977,1.9121,1.8967,1.867,1.8793,1.9233,1.8783,1.8982,1.9738,2.0504,2.1204,2.1928,2.3267,2.4429,2.5397,2.572,2.4775,2.3159,0.0,0.0,0.0,0.0,1.1372,0.9502,0.7736,0.6126,0.4745,0.3969,0.0,0.0,0.0,0.0,0.0,0.0,0.0,0.0,0.0,0.0,-0.9387,-0.9387,-0.9685,-1.0132,-1.0513,-1.0594,-1.0368,0.0,-0.9311,-0.9084,-0.8775,0.0,0.0,0.0,0.0,-0.9992,-1.0368,-1.0143,-0.9922,-0.9922,-0.878,-0.8318,-0.9074,-0.8466,-0.8385,-0.9145,-0.915,-0.9074,-0.8927,-0.99,-1.0357,0.0,0.0,0.0,0.0,0.0,0.0,0.0,0.0,0.0,0.0,0.0,0.0,0.0,0.0,0.0,0.0,0.0,0.0,0.0,0.0,0.0,0.0,0.0,0.0,0.0,0.0,0.0,0.0,1.7161,1.6688,1.6766,1.6835,1.7385,0.0,0.0,0.0,0.0,0.0,0.0,1.8519,1.8664,1.8529,1.823,1.8462,1.8472,1.8182,1.889,1.9333,1.9399,1.9976,2.0557,2.1089,2.1455,2.2089,2.2944,2.3859,2.4824,2.5783,2.65,2.5883,2.445,2.4776,2.1952,1.7523,1.5923,1.3424,1.0559,0.8883,0.6896,0.5134,0.4511,0.2103,-0.0704,-0.1174,0.0,0.0,0.0,0.0,-0.6842,-0.7456,-0.8761,-0.9916,-1.0143,-1.0663,-1.1111,-1.1111,-1.0962,-1.0663,0.0,-0.9533,-0.9003,-0.9003,0.0,0.0,0.0,0.0,-1.0218,-1.0218,-0.9992,-0.9922,-0.9922,-0.8623,-0.8241,-0.9231,-0.8694,-0.8765,-0.975,-0.9744,-0.9669,-0.9518,-1.0276,-1.0588,-1.0513,0.0,0.0,0.0,0.0,0.0,0.0,0.0,0.0,0.0,0.0,0.0,0.0,0.0,0.0,0.0,0.0,0.0,0.0,0.0,0.0,0.0,0.0,0.0,0.0,0.0,0.0,0.0,0.0,0.0,1.7083,1.5649,0.0,0.0,0.0,0.0,1.8472,1.8337,1.792,1.7217,1.792,1.8046,1.7472,1.8317,1.9008,1.9473,1.9846,2.0215,2.0526,2.0858,2.106,2.1123,2.1928,2.2372,2.2494,2.3917,2.4894,2.5728,2.6946,2.6524,2.5039,2.4933,2.1952,1.765,1.7003,1.4257,1.0783,1.0708,0.8183,0.5054,0.5212,0.2177,-0.1876,-0.3677,-0.4304,0.0,0.0,-0.6454,-0.6762,-0.915,-0.9846,-1.0067,-1.0887,-1.1037,-1.1111,-1.1111,-1.0513,-1.0143,0.0,-1.0363,-0.9846,-0.9846,0.0,-0.9846,-0.9846,-1.0513,-1.1037,-1.1037,-1.0368,-0.9922,-0.9922,-0.916,-0.9079,-1.0067,-0.9382,-0.9377,-1.0363,-0.9755,-0.9296,-0.9296,-0.9372,-0.9755,-1.0513,-1.0513,0.0,0.0,0.0,0.0,0.0,0.0,0.0,0.0,0.0,0.0,0.0,0.0,0.0,0.0,0.0,0.0,0.0,0.0,0.0,0.0,0.0,0.0,0.0,0.0,0.0,0.0,0.0,0.0,1.6,1.5392,0.0,1.7648,1.7198,1.7354,1.8721,1.7969,1.7501,1.7657,1.8452,1.8643,1.7978,1.9386,2.0053,1.9715,2.0858,2.1479,2.1542,2.2113,2.2384,2.2384,2.2823,2.3017,2.3138,2.4496,2.5231,2.5605,2.757,2.8115,2.7538,2.6043,2.3586,2.0559,1.827,1.5192,1.1835,0.9916,0.7791,0.5508,0.2963,0.0625,-0.1406,-0.274,-0.3915,-0.4924,-0.5464,-0.6314,-0.7242,-0.8089,-0.9155,-0.9997,-1.0293,-1.0738,-1.1111,-1.1111,-1.0887,-1.0594,-1.0368,-0.9685,-0.9311,-0.9841,-0.9463,-0.916,-0.916,-0.9836,-1.0293,-1.0293,-1.0513,-1.0443,-0.9916,-0.916,-0.9084,-0.9916,-0.9382,-0.9604,-1.0962,-1.0956,-1.0807,-1.0657,-1.0651,-1.0732,-1.0887,-1.0738,-1.0812,0.0,0.0,0.0,0.0,0.0,0.0,0.0,0.0,0.0,0.0,0.0,0.0,0.0,0.0,0.0,0.0,0.0,0.0,0.0,0.0,0.0,0.0,0.0,0.0,0.0,0.0,1.4966,1.6062,1.5525,1.5877,1.7852,1.7198,1.7148,1.8586,1.7765,1.7569,1.8327,1.8911,1.911,1.8988,2.0161,2.0624,2.0172,2.1479,2.2101,2.2101,2.275,2.3078,2.3078,2.3271,2.345,2.3675,2.4794,2.5453,2.5877,2.7966,2.8935,2.8906,2.6863,2.464,2.2224,1.9126,1.5695,1.1977,0.8468,0.6809,0.5508,0.1249,-0.0391,-0.1094,-0.2818,-0.4146,-0.5082,-0.5395,-0.6247,-0.718,-0.7407,-0.847,-0.9458,-0.976,-1.0363,-1.0887,-1.0887,-1.0887,-1.0738,-1.0218,-0.9306,-0.8856,-0.9387,-0.9084,-0.8703,-0.8703,-0.9609,-1.0218,-0.9922,-1.0594,-1.0812,-0.9992,-0.9387,-0.9311,-0.9841,-0.9306,-0.9604,-1.1186,-1.1186,-1.1186,-1.126,-1.1335,-1.1303,-1.125,-1.1023,-1.0831,-1.0663,0.0,0.0,0.0,0.0,0.0,0.0,0.0,0.0,0.0,0.0,0.0,0.0,0.0,0.0,0.0,0.0,0.0,0.0,0.0,0.0,0.0,0.0,0.0,1.5463,1.5259,1.5737,1.7328,1.5983,1.6009,1.8633,1.755,1.7019,1.794,1.8008,1.8269,1.8977,1.9044,1.9441,2.0355,2.0602,2.0741,2.0892,2.1741,2.2113,2.2163,2.2811,2.3078,2.3078,2.3078,2.3484,2.4118,2.4738,2.5508,2.6428,2.8,2.8795,2.8934,2.7172,2.4896,2.2261,1.9479,1.5595,1.1063,0.6812,0.5446,0.4902,0.0546,-0.0781,-0.1171,-0.4062,-0.5002,-0.516,-0.6025,-0.6338,-0.649,-0.7253,-0.7931,-0.8533,-0.9367,-1.0056,-1.0443,-1.0513,-1.0513,-1.0438,-1.0438,-0.9533,-0.8699,-0.8699,-0.8699,-0.8699,-0.8699,-1.0056,0.0,-1.0067,-1.0588,-1.0812,-0.9916,-0.9846,-0.9846,-0.9846,-0.916,-0.9377,-1.1037,-1.0368,-1.0293,-1.1037,-1.1111,-1.1163,-1.1432,-1.1283,-1.0923,-1.0519,0.0,0.0,0.0,0.0,0.0,0.0,0.0,0.0,0.0,0.0,0.0,0.0,0.0,0.0,0.0,0.0,0.0,0.0,0.0,0.0,0.0,1.5508,1.4752,1.4617,1.4402,1.4394,1.5021,1.5463,1.6026,1.6922,1.7276,1.7501,1.7784,1.794,1.8269,1.8977,1.9507,1.9901,2.0161,2.1451,2.1901,2.1439,2.2372,2.2811,2.2811,2.3005,2.3078,2.3078,2.3078,2.3484,2.4118,2.4851,2.5741,2.6776,2.8209,2.9058,2.9066,2.5202,2.3244,2.2042,1.7427,1.4002,1.1137,0.7491,0.5825,0.4748,0.1173,-0.0391,-0.1249,-0.3437,-0.4533,-0.516,-0.6025,-0.6338,-0.649,-0.7092,-0.7395,-0.7846,-0.9069,-0.9069,-0.9069,-1.0288,-1.0056,-0.9604,-0.9604,-0.9377,-0.915,-0.915,-0.915,-0.915,-0.9296,-1.0207,0.0,-1.0812,-1.0962,-1.0588,-0.9155,-0.9008,-0.9008,-0.9008,-0.8856,-0.9377,-1.1037,-1.0738,-1.0663,-1.0887,-1.0738,-1.0622,-1.0551,-1.0475,-1.0366,0.0,0.0,0.0,0.0,0.0,0.0,0.0,0.0,0.0,0.0,0.0,0.0,0.0,0.0,0.0,0.0,0.0,0.0,0.0,0.0,0.0,0.0,1.4816,1.4122,1.4122,1.4194,1.433,1.441,1.5551,1.6533,1.6862,1.7295,1.7657,1.7784,1.793,1.8269,1.8977,1.9441,1.977,2.0107,2.1123,2.1628,2.1616,2.2249,2.2763,2.3078,2.3078,2.3078,2.3078,2.3198,2.3721,2.4567,2.5063,2.6065,2.7455,2.8496,2.9212,0.0,0.0,0.0,0.0,0.0,1.3171,1.1527,0.841,0.6743,0.5514,0.211,0.0392,-0.0626,-0.266,-0.36,-0.4224,-0.5398,-0.5709,-0.5783,-0.6475,-0.6784,-0.7169,-0.8008,-0.8003,-0.8228,-0.9453,-0.9377,-0.915,-0.9453,-0.9533,0.0,-0.9533,-0.9377,-0.9372,-0.9448,-1.0132,-1.0588,-1.0357,-1.0663,-1.0513,-0.9533,-0.9458,-0.9458,-0.9458,-0.9155,0.0,0.0,0.0,-1.0282,-1.0663,-1.0697,0.0,0.0,0.0,-1.0242,-0.9922,0.0,0.0,0.0,-1.1037,-1.0962,0.0,0.0,0.0,0.0,0.0,0.0,0.0,0.0,0.0,0.0,0.0,0.0,0.0,0.0,0.0,0.0,1.433,1.363,1.3833,1.4545,1.4974,1.4974,1.6123,1.7107,1.7579,1.752,1.7608,1.794,1.8008,1.8269,1.8977,0.0,0.0,0.0,0.0,2.0719,2.1491,2.169,2.2199,2.3005,2.3005,2.3005,2.3138,2.3271,2.4015,2.5231,2.5342,2.6453,2.8222,2.8716,2.9191,2.9365,2.7064,2.4482,2.1364,1.5367,1.282,1.1996,0.9341,0.0,0.0,0.3117,0.1332,0.0236,-0.1803,-0.2431,-0.2823,-0.4535,-0.4844,-0.4844,-0.5628,-0.6173,-0.6486,-0.656,-0.6861,-0.7464,-0.8394,-0.8546,-0.8775,-0.9614,-0.9846,-0.9922,-0.9922,-0.9609,-0.9377,-0.9377,-0.9986,-1.0212,-0.9523,-1.0056,-1.0443,-1.0363,0.0,0.0,-1.0363,-0.9679,-0.9679,-1.0438,-0.983,-0.9679,-1.0363,-1.067,-1.0605,-1.0148,-1.0352,-1.028,-0.9846,-0.9549,-0.9695,-1.0212,-1.0443,-1.0368,0.0,0.0,0.0,0.0,0.0,0.0,0.0,0.0,0.0,0.0,0.0,0.0,0.0,0.0,0.0,1.6498,1.5108,1.4122,1.4394,1.5117,1.5621,1.5621,1.6403,1.6968,1.7038,1.7323,1.7539,1.7608,1.7872,1.8269,1.8977,1.8977,1.9375,2.0096,2.0409,2.0655,2.0782,2.1123,2.1628,2.2298,0.0,0.0,2.3078,2.3138,2.393,2.5231,2.5342,2.6686,2.8764,2.8982,2.874,2.7942,2.4655,2.1544,1.8426,1.4582,1.29,1.2144,0.9341,0.7816,0.6583,0.3589,0.1724,0.0314,-0.1252,-0.2115,0.0,-0.43,-0.4766,-0.4844,-0.5318,-0.5476,-0.5705,-0.6167,-0.586,-0.586,-0.7391,-0.7693,-0.8003,-0.8775,-0.9463,-0.9922,-0.9922,-0.9841,-0.9841,-0.9992,-1.0143,-1.0293,-1.0288,-1.0363,-1.0288,-0.9599,-0.9523,-0.9523,-0.9523,-0.9377,-0.9679,-1.0438,-1.0212,-0.9992,-0.9992,-1.0041,-1.0046,-0.9992,-0.9666,-0.9514,-0.9397,-0.9695,-0.9392,-0.8632,-1.0062,-1.0962,0.0,0.0,0.0,0.0,0.0,0.0,0.0,0.0,0.0,0.0,0.0,1.8633,0.0,0.0,1.6489,1.6419,1.5392,1.4768,1.5188,1.5551,1.5833,1.5833,1.6473,1.6968,1.7038,1.7245,1.7392,1.747,1.7725,1.7988,1.8307,1.8452,1.8654,1.9054,1.9243,1.9562,2.0074,2.0279,2.091,2.2101,2.2101,2.2433,2.3078,2.3198,2.378,2.4794,2.5231,2.6424,2.8146,2.9042,2.937,2.8757,2.4335,2.0767,1.7723,1.4575,1.2659,1.1329,0.9583,0.7973,0.628,0.3738,0.1879,0.0393,-0.0862,-0.149,-0.204,-0.3521,-0.383,-0.3986,-0.5007,-0.5243,-0.5246,-0.5553,-0.5323,-0.5323,-0.6549,-0.7157,-0.777,-0.8546,-0.9387,-0.9922,-0.9922,-0.9922,-0.9922,-0.9992,-1.0067,-1.0067,-1.0218,-1.0218,-1.0067,-0.9609,-0.9609,-0.9609,-0.9609,-0.9609,-0.976,-1.0143,-1.0143,-0.9997,-0.9922,-0.9922,-0.9771,-0.962,-0.9397,-0.917,-0.9013,-0.9013,-0.9089,-0.9311,-0.9609,-0.9906,0.0,0.0,0.0,0.0,0.0,0.0,0.0,0.0,1.9792,1.8633,1.8489,1.8479,1.8172,1.7404,1.6706,1.6358,1.5816,1.5488,1.5974,1.5974,1.5974,1.5974,1.6542,1.6968,1.7107,1.7166,1.7245,1.7461,1.7579,1.7706,1.7706,1.7862,1.8008,1.8076,1.8076,1.8529,1.9441,1.9507,2.0333,2.199,2.199,2.2372,2.3198,2.339,2.3793,2.4452,2.5384,2.6462,2.7709,2.9194,2.9889,2.9501,2.462,2.0974,1.808,1.482,1.2352,1.0657,0.99,0.8125,0.5896,0.4046,0.2188,0.0471,-0.0393,-0.0786,-0.1256,-0.2507,-0.2896,-0.3209,-0.4616,-0.5012,-0.5015,-0.5171,-0.5246,-0.5479,-0.624,-0.7157,-0.7927,-0.8546,-0.9387,-0.9922,-0.9922,-0.9922,-0.9922,-0.9922,-0.9922,-0.9922,-0.9922,-0.9922,-0.9922,-0.9922,-0.9922,-0.9938,-0.9986,-1.0035,-1.0062,-1.0062,-0.998,-0.9903,-0.9903,-0.9827,-0.9597,-0.9294,-0.9217,-0.8986,-0.8667,-0.8444,-0.888,-0.9981,-0.9143,-0.8889,2.5301,2.4124,2.3122,2.2567,2.2049,2.1371,0.0,0.0,1.933,1.8046,1.7442,1.7235,1.7706,1.6603,1.6044,1.7285,1.6673,1.6202,1.6691,1.6769,1.6769,1.6769,1.6839,1.6908,1.6908,1.7107,1.7235,1.7235,1.7501,1.7706,1.7706,1.7862,1.8076,1.8269,1.8405,1.8617,1.8875,1.9065,1.9977,2.1514,2.1514,2.2199,2.3556,2.3569,2.3956,2.4724,2.6529,2.7853,2.8904,2.9572,2.9161,2.7856,2.4457,2.1653,1.9035,1.478,1.2512,1.1385,1.0045,0.8125,0.6056,0.5071,0.2895,0.055,0.0471,-0.0393,-0.1335,-0.1882,-0.2507,-0.3209,-0.3832,-0.4462,-0.5168,-0.5857,-0.6086,-0.6318,-0.7157,-0.8003,-0.8623,-0.8699,-0.9387,-0.9922,-0.9922,-0.9922,-0.9922,-0.9922,-0.9922,-0.9922,-0.9922,-0.9922,-0.9922,-0.9922,-0.9922,-1.0008,-1.0234,-1.0439,-1.0557,-1.0557,-1.0155,-0.9913,-0.9913,-0.9499,-0.9247,-0.9252,-0.8851,-0.8693,-0.8611,-0.8927,-0.876,-0.8119,-0.8658,-0.9638,2.6093,2.4942,2.4032,2.2592,2.2285,2.2049,2.0624,2.002,1.941,1.7969,1.7442,1.7314,1.7638,1.7088,1.6821,0.0,1.7166,1.676,1.6899,1.6908,1.6908,1.6908,1.6908,1.6908,1.6908,1.6968,1.7038,1.7038,1.7382,1.7588,1.7588,1.793,1.8202,1.8269,1.8405,1.8808,1.9396,1.9452,2.0279,2.1803,2.1939,2.2506,2.3509,2.3569,2.4118,2.5175,2.6026,2.7378,2.8983,2.9275,2.9409,2.898,2.4573,2.2387,2.1062,1.5529,1.2492,1.0989,0.9422,0.7443,0.53,0.4139,0.2271,0.055,0.0314,-0.0393,-0.1256,-0.2194,-0.2662,-0.313,-0.4229,-0.4779,-0.5093,-0.5398,-0.586,-0.6318,-0.67,-0.7778,-0.8703,-0.8703,-0.9499,-1.0137,-1.0137,-1.0245,-1.0336,-1.0336,-1.0223,-1.0137,-1.0137,-1.0256,-1.0336,-1.0336,-1.0336,-1.0379,-1.0487,-1.0337,-1.0151,-1.0151,-0.9735,-0.949,-0.949,-0.9322,-0.9078,-0.8832,-0.8673,-0.8431,-0.8102,-0.8341,-0.8461,-0.8473,-0.8384,-0.8898,2.6956,2.593,2.508,2.3025,2.2738,2.2628,2.1049,2.0398,1.9651,1.8432,1.7784,1.752,1.7716,1.751,1.7382,1.7579,1.7304,1.6959,1.683,1.683,1.683,1.683,1.6908,1.6908,1.683,1.6908,1.6908,1.6908,1.7254,1.747,1.747,1.8008,1.8395,1.8664,1.8798,1.9253,2.0161,2.0161,2.0846,2.2175,2.2359,2.2811,2.3522,2.37,2.4305,2.53,2.5577,2.6736,2.8535,2.8951,2.9569,2.9812,2.4902,2.313,2.2574,1.6314,1.2757,1.0828,0.9266,0.7065,0.4846,0.3752,0.2115,0.055,0.0236,-0.0314,-0.1099,-0.2272,-0.2662,-0.3052,-0.4231,-0.4701,-0.5015,-0.5323,-0.5935,-0.6637,-0.7068,-0.8245,-0.9115,-0.9019,-0.9635,-1.0148,-0.9989,-1.0119,-1.0222,-1.0222,-1.0145,-1.0141,-1.0396,-1.0536,-1.0638,-1.0638,-1.0692,-1.0653,-1.0566,-1.0295,-1.0088,-0.9917,-0.9497,-0.9243,-0.9243,-0.9081,-0.8919,-0.8589,-0.8589,-0.8338,-0.7831,-0.7995,-0.8217,-0.8499,-0.8085,-0.8061,2.79,2.711,2.6227,2.4372,2.361,2.3015,2.1854,2.0794,1.9966,1.9375,1.8317,1.7608,1.794,1.7392,1.7047,1.747,1.7038,1.6603,1.6603,1.6603,1.6603,1.6603,1.676,1.683,0.0,1.676,1.6908,1.6908,1.7254,1.747,1.747,1.8008,1.8664,1.9497,1.9704,2.0161,2.106,2.106,2.1502,2.2372,2.2543,2.3053,2.3891,2.3995,2.4447,2.5061,2.5577,2.6453,2.762,2.867,2.9396,2.9429,2.5483,2.385,2.296,1.7034,1.3469,1.1341,1.0034,0.7528,0.5004,0.4924,0.2973,0.0628,0.055,-0.0079,-0.1021,-0.1725,-0.2349,-0.2896,-0.3368,-0.4073,-0.5007,-0.6157,-0.6853,-0.7594,-0.9277,-0.9959,-1.019,-0.9928,-0.9892,-0.973,-0.9308,-0.9232,-0.9236,-0.9236,-0.9493,-0.9888,-1.0492,-1.0632,-1.0638,-1.0638,-1.0837,-1.0805,-1.0391,-1.0494,-1.0443,-1.0019,-0.9589,-0.9331,-0.9331,-0.8899,-0.8636,-0.864,-0.864,-0.8456,-0.8181,-0.8185,-0.8012,-0.7677,-0.7595,-0.7509,2.9263,2.8373,2.74,2.5697,2.4954,2.4403,2.3599,2.277,2.1908,2.1003,2.14,2.1713,2.1131,2.0501,1.998,1.985,1.7999,1.6533,1.6403,1.6403,1.6403,1.6403,1.6482,0.0,0.0,0.0,0.0,1.6682,1.7185,1.747,1.747,1.8008,1.8472,1.8865,1.9452,2.0085,2.0794,2.1416,2.2063,2.2604,2.3065,2.3497,2.3891,2.4067,2.4447,2.5005,2.5577,2.6467,2.755,2.8651,2.9372,2.9416,2.5513,2.3874,2.2987,1.709,1.3556,1.1544,0.9632,0.7218,0.4924,0.4377,0.2584,0.0628,0.0786,0.0,-0.1099,-0.2194,-0.2585,-0.2978,-0.4462,-0.501,-0.5341,-0.6291,-0.7021,-0.7695,-0.8447,-0.9057,-0.9565,-0.9476,-0.9606,-0.9623,-0.9452,-0.9649,-0.9738,-0.9738,-0.9686,-0.9752,-1.0159,-1.0169,-1.0169,-1.0169,-1.0318,-1.0277,-1.0105,-0.9913,-0.9689,-0.9519,-0.9087,-0.8828,-0.8828,-0.8656,-0.8476,-0.838,-0.8292,-0.8116,-0.7768,-0.794,-0.7826,-0.7512,-0.7683,-0.7654,3.0651,2.9896,2.9032,2.7549,2.6855,2.6433,2.5812,2.5009,2.4158,2.3219,2.3966,2.4523,2.3539,2.3266,2.2986,2.2528,2.0717,1.903,1.7835,1.7672,1.7312,1.6365,1.6272,1.6342,0.0,0.0,0.0,1.6682,1.7185,1.747,1.747,1.8259,1.8731,1.8865,2.002,2.0846,2.1227,2.2175,2.2823,2.3103,2.3522,2.3819,2.3949,2.4067,2.4287,2.4734,2.5467,2.6342,2.7285,2.8589,2.9402,2.9394,2.553,2.3805,2.2804,1.7053,1.3792,1.1911,0.9546,0.7061,0.4768,0.4064,0.2427,0.0707,0.0864,-0.0078,-0.1412,-0.2506,-0.282,-0.3212,-0.501,-0.5433,-0.5486,-0.6368,-0.7148,-0.7801,-0.8234,-0.8852,-0.9289,-0.928,-0.9409,-0.9415,-0.9244,-0.9352,-0.9519,-0.9519,-0.9325,-0.9461,-0.9937,-1.0038,-1.0038,-1.0038,-1.0038,-0.9951,-0.9781,-0.9432,-0.9262,-0.9087,-0.874,-0.8568,-0.8568,-0.8476,-0.838,-0.8201,-0.8113,-0.794,-0.7507,-0.768,-0.7591,-0.7326,-0.7499,-0.7499,3.1985,3.151,3.0951,2.9815,2.9243,2.889,2.8376,2.7551,2.6669,2.5973,2.6132,2.6145,0.0,0.0,2.5969,2.5332,2.4835,2.3543,2.0728,2.0316,1.9315,0.0,0.0,0.0,0.0,0.0,0.0,1.6908,0.0,1.747,1.747,1.8586,1.9365,1.9562,2.1152,2.2113,2.2372,2.3125,2.3641,2.3832,2.3832,2.3949,2.4112,2.4112,2.4112,2.4229,2.5356,2.6122,2.6742,2.842,2.938,2.9393,2.5517,2.3678,2.255,1.693,1.4049,1.2444,0.9622,0.6977,0.4686,0.4064,0.2506,0.0864,0.0943,-0.0235,-0.1724,-0.2584,-0.3054,-0.3682,-0.5015,-0.534,-0.5592,-0.6645,-0.7326,-0.7982,-0.8763,-0.9235,-0.9464,-0.9314,-0.9262,-0.9087,-0.8656,-0.8564,-0.8564,-0.8568,-0.8564,-0.8911,-0.9777,-0.9951,-0.9951,-0.9951,-0.9951,-0.9689,-0.9257,-0.9257,-0.9087,-0.8568,-0.8564,-0.8568,-0.8568,-0.8292,-0.8201,-0.8201,-0.794,-0.7768,-0.7507,-0.7507,-0.7323,-0.7054,-0.7051,-0.7051,3.262,3.2106,3.1509,3.0959,3.0666,3.0465,3.0229,2.9766,2.9302,2.9014,2.9843,3.0413,0.0,0.0,0.0,2.8265,2.6294,0.0,2.3571,2.3458,0.0,1.9509,0.0,1.8374,1.6303,1.6272,0.0,0.0,1.7185,1.747,1.747,1.7998,1.8721,1.9562,2.0009,2.0719,2.1803,2.2285,2.2739,2.315,2.3271,2.3616,2.4247,2.435,2.4536,2.4835,2.5865,2.6332,2.6547,2.8467,2.9259,2.8942,2.5371,2.3823,2.2869,1.7059,1.4072,1.249,0.8995,0.6893,0.5678,0.4919,0.2974,0.0943,0.11,-0.0078,-0.1724,-0.2195,-0.2741,-0.3614,-0.5507,-0.5882,-0.6124,-0.7586,-0.8014,-0.8268,-0.8628,-0.8661,-0.8586,-0.8727,-0.874,-0.874,-0.8656,-0.8116,-0.7937,-0.8476,-0.8116,-0.8025,-0.8823,-0.8915,-0.8915,-0.8915,-0.8915,-0.8644,-0.8021,-0.8468,-0.8472,-0.7845,-0.8113,-0.8292,-0.8292,-0.8116,-0.7852,-0.768,-0.7595,-0.7503,-0.7231,-0.7231,-0.7058,-0.6881,-0.6343,-0.5985,3.3317,3.2985,3.2588,3.2438,3.2287,3.2234,3.2243,3.2086,3.1843,3.1517,3.2486,3.3153,3.2423,3.2089,3.1748,0.0,0.0,0.0,2.6415,2.6013,2.4847,0.0,2.1697,0.0,1.9527,1.9509,1.9304,0.0,1.7958,1.747,1.747,1.8134,1.8787,1.9562,1.9944,2.0643,2.1803,2.2334,2.2787,2.309,2.321,2.3556,2.4203,2.4305,2.4434,2.4664,0.0,2.6269,2.6582,2.8419,2.9303,2.9006,2.4969,2.3414,2.2706,1.6587,1.3973,1.3034,0.967,0.7799,0.6663,0.4763,0.2743,0.11,0.1492,-0.0078,-0.1882,-0.2117,-0.3077,-0.4384,-0.5802,-0.64,-0.6871,-0.7985,-0.8353,-0.8438,-0.8448,-0.8292,-0.8288,-0.8384,-0.8384,-0.8384,-0.8384,-0.7757,-0.7401,-0.7852,-0.7044,-0.6599,-0.7224,-0.776,-0.8028,-0.7676,-0.7676,-0.7584,-0.7489,-0.7848,-0.8025,-0.7845,-0.8021,-0.8201,-0.8113,-0.7856,-0.768,-0.7507,-0.6969,-0.6612,-0.652,-0.598,-0.5622,-0.5536,-0.5001,-0.4912,3.3979,3.3928,3.3876,3.391,3.3831,3.3839,3.4059,3.4101,3.3995,3.3597,3.4308,3.4733,3.3785,3.4171,3.4444,3.3795,0.0,3.1874,2.9334,2.8542,2.7297,2.4729,2.4252,2.3996,2.3636,2.3737,2.3124,2.1426,1.93,1.7985,1.7647,1.8385,1.9034,1.9562,2.0515,2.1267,2.1916,2.2689,2.3078,2.321,2.3343,2.3628,2.4157,2.4157,2.4171,2.4274,2.5412,2.6172,2.6784,2.8449,2.9367,2.9343,2.4536,2.292,2.2483,1.5932,1.3768,1.3658,1.0662,0.8934,0.7491,0.4295,0.2433,0.1414,0.1568,-0.0235,-0.2198,-0.2283,-0.3673,-0.5275,-0.5869,-0.6549,-0.7257,-0.806,-0.8273,-0.8384,-0.8201,-0.8201,-0.8113,-0.8113,-0.8021,-0.7933,-0.7933,-0.7132,-0.6514,-0.6782,-0.5711,-0.4999,-0.5442,-0.6419,-0.6956,-0.6248,-0.634,-0.6605,-0.7132,-0.7401,-0.7669,-0.8025,-0.8113,-0.8025,-0.7856,-0.7503,-0.7238,-0.7238,-0.6077,-0.5539,-0.545,-0.4376,-0.3838,-0.384,-0.3571,-0.3927,3.4398,3.4532,3.4678,3.4581,3.4659,3.4756,3.468,3.466,0.0,0.0,3.51,3.5173,3.521,3.5046,3.4774,3.4255,3.3836,3.3341,3.2621,3.2246,3.0974,0.0,2.7537,2.6399,2.3848,2.378,0.0,0.0,2.1283,2.0438,1.8445,1.8037,1.8442,1.9562,2.0974,2.1428,2.0846,2.2149,2.2592,2.2298,2.2884,2.3603,2.4408,2.4408,2.4593,2.4892,2.592,0.0,2.7056,2.8622,2.9483,2.9357,2.4843,2.3304,2.2833,1.6333,1.4186,1.3932,0.975,0.8156,0.7605,0.4977,0.3129,0.1568,0.0235,-0.1097,-0.2362,-0.2969,-0.3724,-0.4505,-0.5178,-0.5513,-0.5912,-0.733,-0.7471,-0.7492,-0.8109,-0.8025,-0.7856,-0.768,-0.7136,-0.6681,-0.6681,-0.5445,-0.4648,-0.5265,-0.4645,-0.4115,-0.4204,-0.4912,-0.5354,-0.5265,-0.5974,-0.6239,-0.5802,-0.7051,-0.7588,-0.7058,-0.7415,-0.7591,-0.7595,-0.6612,-0.5988,-0.5988,-0.5003,-0.4465,-0.4196,-0.4016,-0.3662,-0.3307,-0.2684,-0.2772,3.4641,3.4851,3.4943,3.4864,3.4921,3.503,3.5153,0.0,0.0,0.0,3.5617,3.5576,3.5631,3.5264,0.0,3.4658,3.3969,3.3458,3.3397,3.2957,3.2098,3.0658,3.0283,2.9471,2.7867,2.7733,2.701,2.5179,2.4962,2.3193,1.9286,1.942,1.9814,2.0139,2.1302,2.1491,2.059,2.1628,2.2075,2.2002,2.2919,2.3695,2.4408,2.4637,2.4921,2.5258,2.6068,2.6225,2.6036,2.73,2.7554,2.6778,2.3529,2.2298,2.1727,1.6394,1.4625,1.4235,1.0479,0.8883,0.8085,0.5674,0.3519,0.1805,0.1333,-0.0313,-0.2127,-0.2419,-0.3357,-0.4414,-0.4725,-0.515,-0.5553,-0.6051,-0.598,-0.5894,-0.6245,-0.6517,-0.6786,-0.6786,-0.6514,-0.6242,-0.6242,-0.4732,-0.3667,-0.4198,-0.331,-0.2688,-0.2957,-0.3044,-0.3307,-0.3844,-0.4736,-0.5359,-0.5359,-0.6609,-0.7054,-0.6432,-0.6609,-0.6517,-0.5894,-0.527,-0.4912,-0.4734,-0.3844,-0.322,-0.295,-0.2325,-0.1968,-0.1701,-0.1255,-0.1434,3.4623,3.4996,3.5174,3.5158,3.5166,3.5249,3.5521,3.5588,0.0,3.5874,3.5896,3.5841,3.5699,3.5278,3.4904,0.0,3.3994,3.339,3.3437,3.2827,3.2369,0.0,3.2091,0.0,3.1688,3.1466,0.0,2.8783,2.7778,2.5139,2.0354,2.1019,2.1368,2.0887,2.1302,2.1302,2.0794,2.1365,2.169,2.1815,2.298,2.3767,2.4176,2.4536,2.4865,2.5231,2.5837,2.5675,2.509,2.6064,2.579,2.4517,2.2216,2.1215,2.0627,1.6606,1.5062,1.4466,1.1409,0.9755,0.858,0.6234,0.3912,0.212,0.2195,0.0313,-0.1893,-0.1947,-0.3063,-0.4221,-0.4245,-0.4676,-0.4999,-0.4732,-0.4645,-0.4559,-0.4559,-0.5003,-0.545,-0.5711,-0.5536,-0.5447,-0.5447,-0.3931,-0.2862,-0.3132,-0.2151,-0.1525,-0.1974,-0.1705,-0.1704,-0.2419,-0.3403,-0.4206,-0.4734,-0.5719,-0.6074,-0.562,-0.562,-0.5176,-0.4198,-0.3931,-0.3753,-0.3484,-0.2594,-0.1971,-0.1701,-0.0806,-0.0359,-0.0269,-0.009,-0.0449,3.4217,3.4979,3.5736,3.5736,3.5736,3.5754,3.5833,0.0,3.5897,3.597,3.5887,3.576,3.5621,3.5328,3.494,3.4532,3.4189,3.3876,3.3549,3.3019,3.2669,3.2636,0.0,0.0,3.2109,3.1746,3.0823,2.9251,2.7436,2.5042,2.1862,2.1975,2.1993,2.1782,2.091,2.0719,2.1325,2.169,2.1753,2.1451,2.2763,2.3509,2.3675,2.3688,2.4015,2.4624,2.5231,2.5428,0.0,2.6048,2.589,2.4972,2.2198,2.112,2.0684,1.7186,1.5471,1.4522,1.1844,1.0088,0.8618,0.65,0.4389,0.2426,0.0938,-0.0469,-0.1819,-0.2728,-0.3186,-0.3477,-0.3625,-0.34,-0.3223,-0.3667,-0.4202,-0.4559,-0.4378,-0.4378,-0.4467,-0.4465,-0.3757,-0.3224,-0.3224,-0.233,-0.1614,-0.1614,-0.1524,-0.1436,-0.1436,-0.1436,-0.1345,-0.1256,-0.233,-0.2956,-0.2774,-0.3844,-0.4287,-0.3837,-0.4016,-0.3927,-0.3659,-0.2772,-0.2326,-0.2237,-0.1344,-0.0807,-0.0538,-0.0448,-0.0269,0.0,0.0,-0.0449,3.3451,3.4301,3.5022,3.5072,3.5441,3.5838,3.5942,0.0,3.5903,3.5872,3.5768,3.5621,3.5449,3.512,3.4794,3.4655,3.4279,3.3921,3.378,3.3426,3.3068,3.2734,3.2504,0.0,0.0,0.0,3.1428,3.0767,2.9691,2.8265,2.6384,2.4488,2.3082,2.2237,2.0985,2.0858,2.1803,2.1542,2.1667,2.2113,2.3339,2.3956,2.4015,2.4261,2.4765,2.5481,2.5577,2.5141,0.0,2.4639,2.372,2.2071,2.1173,2.0348,1.9494,1.7931,1.648,1.4879,1.2437,1.0519,0.8898,0.7257,0.5321,0.3521,0.2349,0.1017,-0.0395,-0.1741,-0.21,-0.229,-0.3014,-0.2599,-0.2061,-0.2419,-0.2597,-0.2596,-0.2417,-0.2774,-0.3221,-0.3221,-0.2774,-0.2418,-0.2418,-0.1792,-0.1166,-0.0987,-0.1076,-0.1166,-0.0987,-0.0987,-0.0987,-0.0897,-0.1972,-0.2508,-0.2238,-0.3218,-0.3571,-0.2772,-0.2772,-0.2504,-0.1878,-0.1433,-0.1165,-0.1075,-0.0717,-0.0359,-0.018,-0.018,-0.009,0.0,0.0,-0.009,3.2706,3.3517,3.4192,3.4218,3.486,3.5482,0.0,0.0,3.5859,3.5778,3.5631,3.5443,3.5249,3.4904,3.4655,3.463,3.4227,3.3895,3.3868,3.3615,3.3268,3.2848,0.0,3.2168,3.1812,3.1445,3.1268,3.1313,3.0934,3.0223,2.9141,2.6917,2.4879,2.3151,2.1813,2.1402,2.2039,2.1279,2.1404,2.247,2.3458,2.4002,2.4131,2.4536,2.516,2.5879,2.5906,2.5396,0.0,2.4467,2.3106,2.1047,2.1092,2.0251,1.8921,1.8536,1.7161,1.5242,1.3324,1.1329,0.9331,0.8003,0.6398,0.4851,0.3839,0.2348,0.0711,-0.058,-0.1103,-0.1381,-0.2044,-0.1792,-0.1346,-0.1256,-0.1256,-0.1256,-0.0987,-0.1524,-0.1971,-0.1971,-0.1792,-0.1702,-0.1702,-0.1255,-0.0897,-0.0718,-0.0897,-0.0897,-0.0718,-0.0718,-0.0718,-0.0628,-0.1344,-0.1792,-0.1612,-0.2324,-0.2415,-0.1523,-0.1523,-0.1254,-0.0538,-0.0449,-0.0359,-0.0179,-0.0179,-0.009,0.009,0.009,0.009,0.009,0.009,0.0269,3.2085,3.2742,3.341,3.341,3.4077,3.469,0.0,3.5224,3.578,3.5709,3.5489,3.5243,3.504,3.4775,3.4517,3.4245,3.4023,3.3868,3.3807,3.3455,3.316,0.0,0.0,3.1373,3.1505,3.0542,3.0073,3.0396,3.0282,0.0,2.8856,2.8845,2.7569,2.4742,2.3511,2.254,2.1916,2.0846,2.0899,2.2101,2.2811,2.3318,2.3628,2.4234,2.4851,2.5453,2.6068,2.6302,0.0,2.6261,2.5057,2.3123,2.257,2.1123,1.9233,1.89,1.7385,1.5384,1.4791,1.2656,1.0018,0.8751,0.7548,0.6328,0.5076,0.3124,0.1184,0.0497,-0.0347,-0.0986,-0.0538,-0.0897,-0.1166,-0.0269,-0.0538,-0.0987,-0.0718,-0.0718,-0.0718,-0.0718,-0.0718,-0.0718,-0.0718,-0.0718,-0.0718,-0.0718,-0.0718,-0.0718,-0.0718,-0.0718,-0.0628,-0.0448,-0.0448,-0.0448,-0.0448,-0.0628,-0.0538,-0.009,-0.0269,-0.0269,0.0,0.0,0.009,0.0359,0.0359,0.0359,0.0359,0.0359,0.0359,0.0359,0.0359,0.0628,3.1183,3.1802,3.2443,3.2498,3.3549,3.4562,3.453,3.5143,3.569,3.5528,3.5315,3.5102,3.4906,3.4612,3.434,3.4221,3.4023,3.3684,0.0,0.0,0.0,3.1593,3.1028,3.0641,0.0,0.0,2.9829,3.0105,2.9764,2.9486,2.9357,2.9897,2.8921,2.6152,2.4229,2.3483,2.397,2.2128,2.1741,2.2811,2.3005,2.3378,2.3956,2.3793,2.4523,2.5873,2.5467,2.5129,2.4837,2.4525,2.3385,2.1827,2.1869,2.1222,2.0139,1.9824,1.8402,1.6341,1.4767,1.2729,1.0536,0.8751,0.7621,0.6784,0.5312,0.3984,0.2684,0.1161,0.026,-0.0179,0.0627,0.0179,-0.0269,0.0537,-0.009,-0.0807,-0.0538,-0.0538,-0.0538,-0.0538,-0.0359,-0.018,-0.018,-0.0359,-0.0448,-0.0269,-0.0359,-0.0448,-0.0269,-0.018,-0.018,-0.009,-0.009,-0.009,-0.009,-0.018,-0.018,0.0,-0.009,-0.009,0.0,0.018,0.0269,0.0359,0.0538,0.0628,0.0628,0.0628,0.0628,0.0628,0.0807,0.1345,0.0,3.1128,3.1523,3.1561,3.2551,0.0,0.0,3.4068,3.4596,3.4393,3.447,3.4425,3.3865,3.3824,3.3711,3.3319,3.3118,3.2783,3.2192,0.0,0.0,3.0523,0.0,0.0,0.0,2.9202,2.925,2.97,2.9273,2.9179,2.9556,3.0024,2.9455,2.7692,2.6115,2.5379,2.5588,2.3393,2.2776,2.378,2.3384,2.3469,2.3985,2.4104,2.4759,2.5796,2.5309,2.5066,0.0,2.4506,2.3519,2.2392,2.2617,2.1901,2.073,2.0409,1.8926,1.6895,1.5615,1.3606,1.1292,0.9723,0.8219,0.6703,0.5076,0.4117,0.3234,0.1499,0.0953,0.0984,0.1254,0.0806,0.0358,0.0806,0.0179,-0.0538,-0.0269,-0.0269,-0.0269,-0.0269,-0.009,0.0,0.0,-0.009,0.0,0.009,0.009,0.009,0.0269,0.0269,0.0269,0.0269,0.0269,0.0269,0.0269,0.009,0.0,0.018,0.009,0.009,0.0269,0.0359,0.0448,0.0628,0.0807,0.0807,0.0807,0.0807,0.1076,0.1344,0.1702,0.2417,0.0,3.0698,3.0693,3.0696,3.1289,0.0,0.0,0.0,0.0,3.2641,3.3139,3.328,3.2276,3.2577,3.2701,3.1844,3.1579,3.1464,0.0,3.1231,0.0,0.0,2.9402,0.0,2.8452,2.8209,2.8429,2.9169,2.8863,2.8868,2.9434,2.9386,2.9282,2.9125,2.8683,2.7917,2.6795,2.4704,2.4064,2.4837,2.3944,2.3634,2.3829,2.4857,2.5348,0.0,2.5454,2.5718,2.6069,2.5625,2.4918,2.4163,2.4217,2.2991,2.1187,2.0794,1.918,1.7239,1.7129,1.5005,1.2218,1.1205,0.8964,0.6247,0.4377,0.3635,0.3099,0.1595,0.1819,0.2413,0.1523,0.1075,0.0806,0.0717,0.0179,-0.0269,-0.009,0.0,0.0,0.0,0.0,0.0,0.0,0.0269,0.0448,0.0448,0.0538,0.0718,0.0718,0.0718,0.0718,0.0718,0.0718,0.0718,0.0718,0.0269,0.018,0.0448,0.018,0.0269,0.0718,0.0538,0.0628,0.1076,0.1076,0.1166,0.1256,0.1256,0.1703,0.2686,0.313,0.3755,3.0667,0.0,3.0646,3.07,3.1197,3.1686,0.0,0.0,0.0,0.0,0.0,3.2429,3.2084,3.2024,3.1936,3.1658,3.1525,3.1189,3.0516,2.9832,0.0,2.8895,2.8755,2.8586,2.8345,2.8209,2.8198,2.8441,2.8227,2.8094,2.808,2.8511,2.866,2.8425,2.8815,2.8555,2.7628,2.6497,2.544,2.4527,2.4639,2.4376,2.3812,2.4216,2.4706,2.5223,2.4685,2.435,2.4144,2.3975,2.3419,2.273,2.3228,2.2968,2.2223,2.129,2.0084,1.8696,1.7161,1.5217,1.2938,1.0484,0.8376,0.6475,0.4768,0.4472,0.4347,0.2838,0.2995,0.3596,0.312,0.2416,0.1701,0.1345,0.0718,0.0179,0.0,0.018,0.0269,0.0,0.018,0.0269,0.0269,0.0448,0.0628,0.0628,0.0628,0.0718,0.0718,0.0718,0.0718,0.0718,0.0718,0.0718,0.0718,0.0628,0.0538,0.0628,0.0538,0.0628,0.0718,0.0807,0.0987,0.1076,0.1256,0.1704,0.2509,0.2509,0.3044,0.4113,0.4202,0.4467,3.065,3.0598,3.0593,3.0539,3.0713,3.0923,3.0956,0.0,0.0,0.0,0.0,3.125,3.0692,3.0839,3.0914,3.054,3.0443,0.0,0.0,0.0,2.8662,2.8662,2.8536,2.8458,0.0,2.838,2.8353,2.8414,2.821,2.8045,2.7922,2.8147,2.8163,2.7947,2.839,2.8592,2.8453,2.7431,2.6498,2.5634,2.5546,2.513,2.4408,2.4507,2.4768,2.5045,2.4216,2.3864,2.3833,2.3559,2.315,2.28,2.3017,2.2823,2.2334,2.1604,2.0353,1.8905,1.793,1.5834,1.3266,1.0479,0.8685,0.7238,0.5467,0.5207,0.5137,0.3492,0.3753,0.4357,0.4003,0.3489,0.2865,0.1792,0.1344,0.0896,0.0269,0.0359,0.0538,0.0359,0.0448,0.0538,0.0538,0.0718,0.0897,0.0897,0.0987,0.0987,0.0987,0.0987,0.0987,0.0987,0.0987,0.1166,0.1703,0.1255,0.0987,0.0897,0.0807,0.0807,0.0987,0.1076,0.1434,0.2059,0.2329,0.2864,0.3844,0.3844,0.4378,0.5442,0.5092,0.5534,3.0578,3.053,3.05,3.0309,3.0155,3.003,3.0026,0.0,0.0,0.0,0.0,0.0,0.0,2.9475,0.0,0.0,0.0,0.0,2.8994,2.8712,2.8587,2.8694,2.8543,0.0,2.8669,2.8662,2.8662,2.8694,2.851,2.8353,2.83,2.8083,2.7847,2.7587,2.7751,2.8135,2.8691,2.7774,2.7225,2.7036,2.6354,2.5702,2.51,2.5072,2.5007,2.4835,0.0,0.0,2.4176,2.3675,2.345,2.345,2.3318,2.2871,2.2298,2.1803,2.0429,1.8793,1.8432,1.6235,1.3172,1.0846,0.9362,0.8223,0.6391,0.5935,0.5836,0.4287,0.4329,0.4863,0.4528,0.4383,0.4028,0.2415,0.1969,0.1701,0.0806,0.0807,0.0986,0.0896,0.1075,0.1165,0.1165,0.1255,0.1345,0.1345,0.1345,0.1436,0.1436,0.1436,0.1436,0.1436,0.1524,0.1973,0.2867,0.2152,0.1614,0.1524,0.1076,0.1076,0.1613,0.1524,0.2149,0.3486,0.3666,0.4287,0.5174,0.5174,0.5706,0.6681,0.6065,0.6602,3.0414,3.0266,3.0177,3.0209,2.9992,2.975,0.0,0.0,0.0,0.0,0.0,0.0,0.0,2.8705,2.8616,0.0,0.0,2.8543,0.0,0.0,2.8619,2.8767,0.0,2.8737,2.8694,2.8737,2.8761,2.8785,2.8694,2.8543,2.8327,2.8255,2.8007,2.7526,2.7299,2.7028,2.6823,2.7461,2.7444,2.6766,2.6478,2.5907,2.5118,2.5023,2.4821,2.4408,0.0,2.3989,2.3695,2.3884,2.3839,2.359,2.3865,2.3688,2.3245,2.2051,2.1003,1.9792,1.6954,1.4633,1.267,1.1149,0.9965,0.8841,0.7165,0.6942,0.7061,0.6048,0.5629,0.545,0.5039,0.491,0.4643,0.357,0.2861,0.2327,0.188,0.206,0.215,0.1971,0.2683,0.3395,0.3395,0.2953,0.2599,0.2599,0.1883,0.1436,0.1436,0.1436,0.1436,0.1436,0.2152,0.2777,0.313,0.2865,0.2867,0.3221,0.1972,0.1792,0.2862,0.3132,0.3666,0.473,0.4732,0.5262,0.6148,0.6148,0.677,0.7929,0.7841,0.758,3.018,2.9958,2.9739,2.9621,2.9643,2.9644,0.0,0.0,0.0,0.0,0.0,0.0,0.0,0.0,2.8428,2.8664,0.0,2.838,2.8551,2.8414,2.8327,0.0,0.0,2.8291,2.8326,2.8326,2.8299,2.8299,2.8246,2.8156,2.7989,2.7979,2.7789,2.7382,2.7066,2.664,2.6085,2.6259,2.633,2.6208,2.6435,2.6061,2.5195,2.5097,2.4908,2.465,0.0,2.458,2.4593,2.4549,2.4363,2.4247,2.3923,2.3497,2.2859,2.1204,2.0246,1.9388,1.6706,1.5226,1.4196,1.1957,1.0864,1.0126,0.8685,0.8156,0.8119,0.7919,0.706,0.6164,0.6097,0.5931,0.5534,0.4732,0.4287,0.3844,0.3218,0.3307,0.3398,0.3307,0.3753,0.3931,0.3489,0.3133,0.2777,0.2331,0.1884,0.1705,0.1794,0.1794,0.1794,0.1794,0.2688,0.3489,0.4109,0.3667,0.3133,0.2688,0.2153,0.2331,0.34,0.3667,0.4467,0.6148,0.6239,0.6861,0.8009,0.8009,0.8281,0.8815,0.8197,0.8105,2.992,2.9639,2.9319,2.9064,0.0,0.0,0.0,0.0,0.0,0.0,0.0,0.0,0.0,2.8219,0.0,2.8453,2.8299,2.8174,2.8317,2.8146,2.8071,2.8164,2.8035,2.7961,2.8055,2.7982,2.7954,2.7926,2.7886,2.78,2.773,2.773,2.7595,2.7272,2.6888,2.6402,2.5832,2.5285,2.5257,2.5743,2.5971,2.5952,2.556,2.5213,2.5149,2.5272,2.509,2.5104,2.5383,2.5018,2.4778,2.4549,2.3852,2.3113,2.2224,2.0568,1.9617,1.8844,1.6991,1.6149,1.5483,1.2764,1.1681,1.1316,0.9976,0.9362,0.9165,0.9349,0.8285,0.7177,0.7215,0.6857,0.6428,0.5894,0.5714,0.5356,0.4552,0.4641,0.4821,0.4821,0.4912,0.4736,0.3848,0.3491,0.3045,0.2331,0.2063,0.1974,0.2154,0.2422,0.2511,0.2511,0.358,0.4554,0.5354,0.491,0.4109,0.2864,0.2867,0.3403,0.4289,0.4648,0.5622,0.7482,0.7753,0.8372,0.9262,0.9262,0.9262,0.9257,0.8544,0.8544,2.9551,2.9237,2.8975,2.87,2.8688,0.0,2.829,2.8037,0.0,2.763,0.0,0.0,0.0,2.776,2.773,2.76,2.7647,2.776,2.8075,0.0,2.8209,2.844,2.8353,2.8273,2.8273,2.8165,2.8047,2.7982,2.7982,2.7943,2.7789,2.7789,2.7595,2.7213,2.664,2.6177,2.5881,2.5162,2.5045,2.5505,2.4747,2.5079,2.6381,2.5369,2.541,2.6176,2.5934,2.5508,2.5005,2.5005,2.4664,2.4131,2.3734,2.2932,2.1815,2.091,1.9976,1.9038,1.7765,1.666,1.5528,1.3048,1.2111,1.1729,1.0726,1.0415,1.0323,0.9981,0.9468,0.8871,0.8187,0.7548,0.7051,0.6962,0.6514,0.6068,0.5977,0.6065,0.6236,0.6236,0.6782,0.7058,0.6251,0.5181,0.4291,0.3578,0.2689,0.2154,0.2154,0.2956,0.3489,0.3489,0.5085,0.6328,0.6599,0.7214,0.7031,0.5877,0.5442,0.5625,0.6511,0.7044,0.7753,0.8732,0.8995,0.917,0.9262,0.9262,0.9262,0.9262,0.9257,0.9257,2.9177,2.8865,2.8603,2.8299,2.8165,0.0,0.0,2.7964,2.7771,2.7642,2.7417,0.0,0.0,0.0,2.7444,2.7444,2.7307,2.7276,2.7396,2.743,2.743,2.7457,2.7565,2.7535,2.7321,2.7565,2.7642,2.74,2.7444,2.7474,2.7369,2.7068,2.6873,2.6891,2.6385,2.5977,2.5733,2.5416,2.5171,2.4953,2.4669,2.4923,2.5657,2.551,2.5631,2.6042,2.5906,2.5646,2.5257,2.4664,2.4536,2.4593,2.3806,2.2944,2.2125,2.1451,2.0493,1.9293,1.8385,1.7216,1.5861,1.4099,1.3171,1.2579,1.1855,1.162,1.1539,1.1242,1.0438,0.9286,0.8288,0.7654,0.7375,0.739,0.7146,0.7054,0.7139,0.7139,0.7139,0.7312,0.7051,0.6697,0.6422,0.5531,0.4823,0.4734,0.438,0.4204,0.4383,0.4825,0.5179,0.5179,0.6416,0.7302,0.7394,0.8189,0.8277,0.721,0.6416,0.6419,0.7394,0.757,0.8193,0.9345,0.9432,0.9607,0.9694,0.9694,0.9694,0.9694,0.9694,0.9694,2.8792,2.8449,2.821,2.7911,0.0,0.0,2.7736,2.7678,2.7624,2.7491,2.7276,2.7166,2.7373,0.0,0.0,0.0,2.7149,2.7038,2.7038,2.7006,2.6973,2.6858,2.6989,2.6989,2.6758,2.7053,2.7135,2.6925,2.694,2.6956,2.694,2.6538,2.64,2.6607,2.6225,2.5901,2.5717,2.5605,2.5208,2.4574,2.4621,2.4851,2.5347,2.5414,2.5705,2.617,2.6008,2.5797,2.5411,2.4751,2.4523,2.4376,2.3424,2.2823,2.2298,2.1518,2.0756,2.0006,1.8816,1.7833,1.6766,1.4982,1.403,1.3514,1.2826,1.2519,1.2432,1.2372,1.1446,1.0247,0.9303,0.8342,0.7733,0.7815,0.7856,0.8032,0.8208,0.812,0.812,0.8292,0.7669,0.7044,0.6773,0.6062,0.562,0.5625,0.5625,0.5714,0.5894,0.6334,0.6776,0.7041,0.7834,0.8448,0.8536,0.9244,0.9506,0.8969,0.8345,0.8086,0.8277,0.8452,0.889,0.9602,0.9777,1.0033,1.0207,1.0207,1.0299,1.0381,1.0381,1.0381,2.8391,2.8067,2.7748,0.0,0.0,0.0,2.6825,2.707,2.731,2.704,2.7055,2.707,2.7007,2.712,0.0,2.7103,2.7103,2.7085,2.7085,2.7038,2.7006,2.7006,2.6891,2.6808,2.6791,2.6758,2.6691,2.6691,2.6521,2.6469,2.6606,2.6417,2.6347,2.6485,2.617,2.601,2.601,2.5605,2.513,2.4583,2.4477,2.4865,2.5652,2.5052,2.5497,2.6684,2.6416,2.5946,2.5398,2.5398,2.4624,2.333,2.2689,2.2433,2.2286,2.094,2.0831,2.1109,1.8966,1.8414,1.8238,1.5534,1.4656,1.4447,1.3506,1.3084,1.299,1.3185,1.2659,1.1968,1.1643,0.9786,0.8076,0.8503,0.8727,0.8911,0.8911,0.9087,0.9262,0.9262,0.8903,0.8368,0.7665,0.7132,0.6688,0.6157,0.6157,0.6242,0.6413,0.721,0.8189,0.917,0.9519,0.9777,1.0294,1.0463,1.0809,1.1241,1.1327,1.0722,0.9345,0.9951,1.012,0.9602,1.0294,1.0636,1.0636,1.0636,1.0809,1.1327,1.1327,1.1327,2.8345,2.8049,0.0,2.725,0.0,0.0,0.0,2.6607,0.0,0.0,2.6759,2.6942,2.6926,2.6842,0.0,2.6791,2.6759,2.6674,2.6674,2.6674,2.664,2.664,2.6708,2.6691,2.6606,2.6775,2.6858,2.6725,2.6691,2.6691,2.6742,2.633,2.6189,2.6435,2.5994,2.5828,2.5917,2.5476,2.5075,2.4735,2.4343,2.4402,2.4909,2.4746,2.5165,2.6029,2.5733,2.5657,2.577,2.5825,2.5577,2.5009,2.4055,2.3825,2.3871,2.2531,2.1682,2.1132,2.0434,1.9302,1.7971,1.7168,1.6336,1.5528,1.5217,1.4673,1.4114,1.3977,1.3237,1.2412,1.2487,1.1101,0.9703,0.9489,0.9147,0.8911,0.9174,0.9087,0.9087,0.9262,0.8632,0.8189,0.864,0.8101,0.7658,0.8281,0.8372,0.8456,0.8627,0.9152,0.9763,1.0207,1.0549,1.0809,1.0982,1.1068,1.1149,1.1322,1.1327,1.1149,1.0722,1.0895,1.0982,1.0809,1.0982,1.1068,1.1068,1.1068,1.1154,1.1327,1.1327,1.1327,2.8095,2.7725,0.0,2.6965,2.6724,2.6385,2.5804,0.0,0.0,0.0,2.6295,2.6469,2.6623,2.6555,0.0,2.6674,2.6589,2.6554,2.6554,2.652,2.6485,2.6485,2.6572,2.6589,2.652,2.6674,2.6708,2.6556,2.6487,2.6521,2.6572,2.6189,2.6063,2.6312,2.6063,2.5828,2.5738,2.546,2.5059,2.4533,2.4021,2.3746,2.3775,2.3888,2.459,2.5727,2.5806,2.5979,2.6204,2.6204,2.5877,2.5301,2.4664,2.4249,2.3878,2.2555,2.1894,2.1485,2.0596,1.9726,1.883,1.7992,1.7166,1.6477,1.593,1.533,1.4848,1.4776,1.4114,1.3426,1.3615,1.2439,1.1021,1.046,0.9786,0.9432,0.9777,0.9689,0.9689,1.0033,0.9414,0.8978,0.9602,0.8982,0.8632,0.9345,0.9519,0.9694,0.9946,1.0207,1.0549,1.0809,1.1154,1.1413,1.1585,1.1585,1.1671,1.1837,1.1843,1.1843,1.1843,1.1671,1.1499,1.1327,1.1499,1.1585,1.1585,1.1585,1.1666,1.1843,1.1843,1.1843,2.7655,2.7187,0.0,2.6629,2.6303,0.0,2.5069,2.5216,2.5572,2.577,0.0,2.5828,2.6189,2.626,2.633,2.6556,2.6589,2.6572,2.6572,2.6537,2.652,2.652,2.652,2.652,2.652,2.652,2.6468,2.633,2.6154,2.6099,2.6203,2.6043,2.6007,2.6132,2.6132,2.5901,2.5465,2.5427,2.4965,2.4036,2.3608,2.3024,2.248,2.2766,2.3837,2.5471,2.6214,2.6573,2.6563,2.6336,2.5672,2.4788,2.4732,2.4086,2.3121,2.1722,2.1725,2.2053,2.0012,1.9836,2.0194,1.8221,1.7569,1.7276,1.6053,1.5488,1.5346,1.5497,1.5141,1.4705,1.4911,1.3682,1.2163,1.1478,1.0699,1.0188,1.0544,1.0636,1.0809,1.1235,1.0809,1.0381,1.0381,0.9864,0.9515,0.9689,0.9951,1.0207,1.0636,1.0722,1.0895,1.1322,1.1408,1.158,1.2015,1.21,1.2272,1.2705,1.279,1.279,1.279,1.2272,1.1843,1.1413,1.1843,1.21,1.21,1.21,1.2272,1.2705,1.2705,1.279,2.7515,2.7166,0.0,0.0,2.5093,2.4421,2.4275,2.4205,2.4389,2.4997,2.549,2.5884,2.597,2.5901,2.5848,2.5905,2.6085,2.6227,2.6227,2.6555,2.6826,2.6826,2.6826,2.6826,2.6826,2.6691,2.6572,2.6537,2.6434,2.6415,2.6415,2.6277,2.6082,2.5828,2.5721,2.5443,2.502,2.4784,2.4338,2.3681,2.3231,2.2694,2.2123,2.206,2.2763,2.4053,2.4773,2.5362,2.5837,2.5783,2.5685,2.5516,2.4832,2.4568,2.441,2.2823,2.2214,2.2004,2.1014,2.0456,2.0042,1.9173,1.8607,1.8162,1.7423,1.6673,1.6061,1.6132,1.5842,1.548,1.5196,1.405,1.2946,1.2685,1.1606,1.0763,1.1112,1.1149,1.1149,1.1241,1.1149,1.1063,1.1063,1.0982,1.0895,1.0895,1.0982,1.1068,1.1154,1.1494,1.1752,1.1843,1.2186,1.2443,1.2534,1.2705,1.2881,1.3052,1.3137,1.3222,1.3222,1.279,1.2534,1.2363,1.2534,1.2528,1.2528,1.2528,1.2705,1.3052,1.3052,1.3137,2.7126,0.0,0.0,2.5262,0.0,2.3704,2.3729,2.3657,2.3729,2.4091,2.4513,2.4863,2.5123,2.5075,2.5089,2.5454,2.564,2.577,2.5986,2.6195,2.6333,2.6417,2.6521,2.6623,2.6657,2.6691,2.6725,2.6657,2.6607,2.6521,2.6521,2.6241,2.601,2.5791,2.5497,2.5044,2.442,2.4184,2.3721,2.2965,2.242,2.1874,2.1375,2.2049,2.2719,2.3357,2.4357,2.5129,2.5673,2.5673,2.537,2.4914,2.4789,2.4485,2.3966,2.2822,2.2444,2.2374,2.1065,2.0484,2.0227,1.9515,1.8808,1.8192,1.7842,1.7166,1.656,1.656,1.6342,1.5982,1.5771,1.4889,1.4067,1.4092,1.2468,1.1042,1.153,1.1757,1.1843,1.1929,1.1929,1.1757,1.1671,1.1413,1.1327,1.1327,1.1327,1.1413,1.1585,1.1843,1.21,1.2448,1.279,1.2966,1.3052,1.3137,1.3222,1.3222,1.3313,1.3398,1.3398,1.3137,1.3045,1.3045,1.3045,1.3045,1.3045,1.3045,1.3137,1.3222,1.3222,1.3307,2.6619,0.0,2.5309,2.4606,2.3835,0.0,2.3301,2.3301,2.3301,2.3301,2.351,2.3791,2.425,2.423,2.4343,2.4955,2.5093,2.5228,2.5562,2.5651,2.5701,2.5828,2.6082,2.628,2.6336,2.6572,2.6689,2.6556,2.6505,2.6421,2.6404,2.6035,2.5795,2.5738,2.523,2.4623,2.3794,2.3621,2.3084,2.2235,2.165,2.1131,2.0662,2.1912,2.2606,2.2829,2.4019,2.4787,2.5177,2.5287,2.467,2.3755,2.4275,2.3922,2.2908,2.2225,2.2384,2.2657,2.0913,2.0456,2.0566,1.9758,1.8911,1.8202,1.791,1.7442,1.6968,1.6978,1.6691,1.6412,1.6342,1.5692,1.5056,1.5267,1.342,1.1715,1.2228,1.2413,1.2619,1.279,1.2705,1.2534,1.2272,1.1929,1.1671,1.1671,1.1671,1.1843,1.2186,1.2272,1.2448,1.3052,1.3137,1.3222,1.3392,1.3398,1.3476,1.3476,1.3483,1.3483,1.3483,1.3483,1.3483,1.3483,1.3483,1.3398,1.3398,1.3398,1.3483,1.3483,1.3483,1.3568,0.0,0.0,2.4129,0.0,2.3509,2.2976,0.0,0.0,2.2976,0.0,2.3495,2.3955,2.4058,2.3964,2.3903,2.3971,2.4184,2.438,2.4405,2.5083,2.5521,2.554,2.5872,2.6115,2.6044,2.609,2.6078,2.6,2.5883,2.5883,2.5967,2.5653,2.5334,2.5048,2.4415,2.3837,2.3392,2.3024,2.2558,2.203,2.1471,2.0934,2.0422,2.0423,2.0888,2.1747,2.2432,2.2724,2.2687,2.3229,2.3034,2.2383,2.2457,2.2567,2.2592,2.1889,2.1925,2.2121,2.1308,2.1083,2.0996,2.0398,1.9683,1.9044,1.8509,1.7842,1.7176,1.7392,1.7116,1.676,1.6612,1.5965,1.5413,1.534,1.4889,1.4317,1.3919,1.3374,1.3052,1.3307,1.3307,1.3222,1.3222,1.3137,1.3137,1.3137,1.3137,1.3137,1.3222,1.3222,1.3222,1.3313,1.3392,1.3398,1.3398,1.3568,1.3652,1.3652,1.3913,1.4004,1.4004,1.4004,1.4004,1.4004,1.3568,1.3398,1.3398,1.3398,1.3568,1.4004,1.4004,1.4159,2.5194,2.4474,2.3891,0.0,2.339,2.3006,2.3094,2.3109,2.3109,2.3109,2.339,2.3569,2.3422,2.3378,2.3451,2.357,2.3774,2.3993,2.4096,2.4407,2.4739,2.4932,2.5317,2.5648,2.5704,2.5983,2.6107,2.5978,2.5855,2.5749,2.5573,2.5195,2.481,2.4365,2.3846,2.3275,2.2678,2.2189,2.1561,2.0746,2.051,2.0308,2.0055,1.9952,2.0217,2.0838,2.1217,2.146,2.1771,2.231,2.2127,2.1584,2.2139,2.2221,2.204,2.1954,2.1978,2.2008,2.14,2.1037,2.0771,2.0344,1.9694,1.8967,1.8519,1.792,1.7392,1.747,1.7323,1.7028,1.6959,1.6603,1.6298,1.6182,1.5838,1.5519,1.5576,1.4858,1.4055,1.3646,1.3476,1.3398,1.3398,1.3398,1.3398,1.3398,1.3398,1.3398,1.3398,1.3398,1.3483,1.3568,1.3561,1.3652,1.3743,1.3913,1.3913,1.3913,1.4004,1.4088,1.4088,1.4088,1.4166,1.4243,1.399,1.3828,1.3828,1.3899,1.4068,1.4243,1.4412,1.4489,0.0,0.0,2.3588,2.3644,2.3288,2.3024,0.0,0.0,2.3142,0.0,2.3215,2.3068,2.3024,2.3081,2.3214,2.3289,2.351,2.3672,2.3763,2.394,2.4177,2.4313,2.478,2.514,2.5278,2.5615,2.5782,2.5631,2.5545,2.5336,2.5002,2.4617,2.4264,2.3899,2.3362,2.283,2.2263,2.1575,2.0782,1.9901,1.9901,1.9862,1.9759,1.9695,1.9723,1.9885,2.0431,2.0767,2.0986,2.1715,2.1553,2.0944,2.1865,2.191,2.1533,2.1856,2.2039,2.2068,2.1588,2.1164,2.0666,2.042,1.9694,1.8767,1.8519,1.8066,1.7529,1.7608,1.7461,1.7314,1.7304,1.7176,1.7047,1.6978,1.6688,1.6365,1.6234,1.5629,1.4803,1.399,1.3652,1.3568,1.3568,1.3568,1.3568,1.3568,1.3568,1.3568,1.3568,1.3568,1.3652,1.3822,1.3822,1.3906,1.4088,1.4088,1.4088,1.4088,1.4166,1.4166,1.4166,1.425,1.4328,1.4482,1.4328,1.425,1.425,1.4405,1.4482,1.4566,1.4741,1.4824,0.0,2.3674,0.0,2.3598,2.3143,0.0,0.0,0.0,2.2716,2.3213,2.292,2.2716,2.317,2.3275,2.3259,2.3141,2.3216,2.3274,2.3141,2.3837,2.4223,2.3881,2.4441,2.4773,2.4681,2.4633,2.4579,2.4563,2.4469,2.4307,2.4104,2.3822,2.3718,2.379,2.2992,2.2512,2.2466,2.1369,2.061,2.0182,2.0182,1.9978,1.9617,1.9344,1.904,1.8762,2.0297,2.0459,1.9675,2.1082,2.1071,2.0205,2.0967,2.1233,2.1233,2.1588,2.1913,2.2209,2.2135,2.1663,2.106,2.106,2.0085,1.8977,1.8977,1.8375,1.7716,1.794,1.7745,1.7529,1.7647,1.7588,1.7392,1.7245,1.7422,1.7122,1.4974,1.4989,1.5144,1.425,1.4088,1.4088,1.4088,1.4088,1.4088,1.4088,1.4088,1.4088,1.4088,1.4088,1.4088,1.4088,1.4088,1.4088,1.4088,1.4088,1.4088,1.4088,1.4237,1.4398,1.4398,1.4566,1.465,1.465,1.465,1.4657,1.4657,1.465,1.4824,1.509,1.509,1.5173,0.0,0.0,0.0,2.3016,2.2655,2.2265,2.2483,2.2381,2.2308,2.2475,2.2403,2.2294,2.2483,2.2761,2.2966,2.3213,2.3143,2.3082,2.3199,2.3583,2.3839,2.3802,2.436,2.4697,2.4605,2.5093,2.5246,2.4855,2.4709,2.4428,2.3999,2.3687,2.333,2.3018,2.2732,2.2152,2.1272,2.0446,1.9811,1.946,1.946,1.9344,1.9198,1.8697,1.8321,1.803,1.8544,1.9077,1.9606,2.0499,2.0797,2.0839,2.1348,2.1526,2.1537,2.1925,2.1788,2.1463,2.1463,2.1008,2.0355,1.989,1.9431,1.8911,1.8462,1.8134,1.793,1.8008,1.7794,1.7647,1.7706,1.7588,1.747,1.7235,1.7122,1.6607,1.514,1.5108,1.5151,1.425,1.4088,1.4088,1.4088,1.4088,1.4088,1.4088,1.4088,1.4088,1.4088,1.4088,1.4088,1.4088,1.4243,1.4321,1.4321,1.4405,1.4496,1.4496,1.4566,1.4566,1.4566,1.465,1.4741,1.4915,1.4999,1.4908,1.4734,1.4908,1.4999,1.509,1.5257,1.534,2.2898,0.0,0.0,0.0,2.2035,2.1784,2.1843,2.1857,2.1899,2.2051,2.1985,2.1886,2.2062,2.2178,2.2443,2.3018,2.3141,2.3201,2.3346,2.3595,2.3755,2.374,2.4176,2.4467,2.4414,2.4863,2.4942,2.4547,2.4426,0.0,2.3672,2.3254,2.2712,2.2085,2.2038,2.1471,2.0359,1.9901,1.9448,1.8987,1.8827,1.8709,1.8655,1.8093,1.7699,1.7512,1.7437,1.7937,1.8928,1.9622,2.025,2.0764,2.1325,2.1588,2.1714,2.1788,2.1663,2.1463,2.1198,2.0677,2.0031,1.9507,1.9044,1.8586,1.8144,1.8008,1.8008,1.8008,1.793,1.7784,1.7784,1.7657,1.752,1.7373,1.7042,1.6465,1.5503,1.5248,1.4993,1.4102,1.4021,1.4088,1.4088,1.4166,1.4159,1.4159,1.4243,1.4334,1.4334,1.4334,1.4334,1.4334,1.4405,1.4482,1.4482,1.465,1.4734,1.4734,1.4741,1.4824,1.4824,1.4908,1.4999,1.5173,1.5173,1.509,1.4908,1.509,1.5173,1.5173,1.5347,1.5431,0.0,0.0,0.0,0.0,0.0,0.0,2.1226,0.0,2.1469,2.1934,2.1649,2.1519,2.1997,2.1713,2.1663,2.2506,2.3172,2.3522,2.3507,2.3934,2.4111,2.3668,2.3889,2.4082,2.4004,2.3769,2.3633,2.3631,2.359,2.3426,2.2918,2.2491,2.1916,2.1042,2.0845,2.0497,1.9798,1.9798,1.95,1.8987,1.8494,1.8213,1.8038,1.7479,1.7146,1.7146,1.7146,1.7238,1.7481,1.8459,1.9254,1.9901,2.0741,2.1325,2.1651,2.1262,2.1526,2.1999,2.1325,2.0613,2.0042,2.0096,1.9121,1.8008,1.8008,1.8008,1.8008,1.8008,1.8008,1.8008,1.8008,1.7862,1.7706,1.7706,1.7254,1.6602,1.579,1.5204,1.4567,1.3784,1.3861,1.4068,1.4075,1.4223,1.4384,1.4398,1.4566,1.4734,1.4734,1.4734,1.4734,1.4734,1.4734,1.4734,1.4734,1.4734,1.4734,1.4734,1.4999,1.509,1.509,1.5257,1.5431,1.5431,1.5431,1.5431,1.5431,1.5431,1.5431,1.5431,1.5431,1.5431,2.1104,0.0,0.0,0.0,0.0,0.0,1.9741,0.0,1.9809,2.0307,2.0343,2.0432,2.098,2.1262,2.1469,2.1726,2.2197,2.2774,2.3477,2.3698,2.3728,2.361,2.3979,2.4184,2.4035,2.4327,2.4368,0.0,2.3884,2.3634,2.329,2.2586,2.1935,2.1321,2.0795,2.0409,2.022,1.9384,1.8881,1.8721,1.7995,1.76,1.7545,1.6866,1.6528,1.6528,1.6083,1.6188,1.6772,1.8194,1.9541,2.0741,2.0484,2.0741,2.1198,2.0741,2.042,2.015,2.0602,1.9966,1.8998,1.9573,1.9121,1.8347,1.8279,1.8269,1.8347,1.8269,1.8212,1.8212,1.8008,1.794,1.7862,1.7706,1.6745,1.5766,1.5416,1.444,1.367,1.3584,1.3467,1.352,1.3728,1.3919,1.4145,1.4364,1.4566,1.4734,1.4734,1.4734,1.4734,1.4734,1.4908,1.5075,1.5228,1.5249,1.5249,1.5401,1.5333,1.5347,1.5347,1.5347,1.5431,1.5431,1.5431,1.5431,1.5431,1.5431,1.5431,1.5431,1.5431,1.5431,0.0,0.0,0.0,0.0,0.0,0.0,1.8863,1.9081,1.9488,0.0,2.0142,2.0267,2.0623,2.0904,2.1183,2.1381,2.1619,2.2157,2.3157,2.3494,2.3595,2.3595,2.3849,2.3975,2.3852,2.4147,2.4188,2.3867,2.3739,2.3363,2.2665,2.1955,2.1286,2.0733,2.0093,1.9747,1.9747,1.8815,1.8278,1.8224,1.7556,1.7224,1.7123,1.6389,1.6046,1.6046,1.5584,1.5848,1.6583,1.7523,1.8733,2.0085,1.977,2.0096,2.0741,2.0161,1.9901,1.9901,2.0096,1.9649,1.9008,1.9452,1.9131,1.8482,1.8414,1.8414,1.8482,1.8414,1.8405,1.8347,1.8212,1.8144,1.8076,1.7988,1.7001,1.5956,1.5542,1.4486,1.3626,1.3326,1.3342,1.3491,1.3581,1.3849,1.4065,1.4239,1.455,1.4799,1.4957,1.5072,1.5151,1.5242,1.5325,1.5409,1.5477,1.5416,1.5423,1.5582,1.5423,1.5431,1.5431,1.5431,1.5423,1.5499,1.5499,1.559,1.568,1.5514,1.5423,1.5499,1.5673,1.5673,0.0,0.0,0.0,0.0,1.8081,0.0,1.8363,1.8951,1.9654,0.0,2.0335,2.0485,2.0549,2.0599,2.0799,2.1229,2.139,2.1758,2.2672,2.3201,2.3508,2.3508,2.3551,2.3595,2.3595,2.3538,2.3509,2.3509,2.3319,2.2694,2.1561,2.0944,2.0308,1.9747,1.9121,1.875,1.8697,1.8104,1.7733,1.7611,1.7112,1.6853,1.6694,1.6019,1.574,1.573,1.5536,1.5978,1.6738,1.6738,1.7606,1.8834,1.8911,1.9507,2.0226,1.9507,1.9704,2.0313,1.9868,1.9605,1.9539,1.9605,1.9142,1.8549,1.8549,1.8549,1.8549,1.8549,1.8549,1.8549,1.8482,1.8405,1.8337,1.8269,1.756,1.6585,1.5886,1.4903,1.3996,1.3167,1.3369,1.3648,1.3519,1.3768,1.4095,1.413,1.454,1.4962,1.5195,1.5449,1.5726,1.5944,1.5771,1.5696,1.5733,1.5499,1.5431,1.5423,1.5423,1.5423,1.5423,1.5431,1.559,1.5733,1.5733,1.5824,1.6087,1.568,1.559,1.5741,1.6004,1.6087,0.0,0.0,0.0,0.0,1.7357,0.0,1.739,1.7567,1.792,0.0,1.8762,1.9056,1.9579,2.0105,2.0472,2.0573,2.1237,2.1874,2.2203,2.2709,2.3024,2.3024,2.3377,2.3595,2.3595,2.361,2.3566,2.3509,2.2889,2.2035,2.0993,2.0759,2.0156,1.9198,1.8845,1.8513,1.8081,1.7501,1.7179,1.7123,1.656,1.6285,1.6228,1.5961,1.5856,1.5856,1.5798,1.6287,1.7106,1.7106,1.7927,1.9166,1.8664,1.8998,1.9671,1.9131,1.9008,1.9198,1.9781,1.966,1.9274,1.9846,1.9528,1.8942,1.8808,1.8875,1.8942,1.8808,1.8741,1.8674,1.8549,1.8482,1.8405,1.8337,1.7207,1.6079,1.5745,1.4625,1.3579,1.3198,1.3107,1.3152,1.3321,1.3606,1.3844,1.4095,1.443,1.4788,1.4788,1.499,1.5204,1.5388,1.5337,1.5442,1.5711,1.5499,1.5506,1.5658,1.5658,1.5658,1.5658,1.5839,1.6004,1.6004,1.6004,1.6087,1.6087,1.6004,1.6004,1.6004,1.6087,1.6087,0.0,0.0,0.0,1.6228,1.6637,0.0,0.0,1.7412,1.7744,1.8321,1.8738,1.9056,1.9319,1.9952,2.0422,2.0422,2.097,2.1458,2.1541,2.242,2.3172,2.3436,2.3653,2.3782,2.3696,2.3696,2.3508,2.3127,2.2406,2.1643,2.0845,2.0409,1.985,1.904,1.8578,1.8081,1.749,1.6832,1.6503,1.6467,1.6228,1.6114,1.6114,1.6009,1.6019,1.6029,1.6194,1.6608,1.7189,1.7463,1.8121,1.8988,1.8539,1.8741,1.9142,1.8875,1.8875,1.9008,1.9452,1.9396,1.9131,1.9462,1.9396,1.9065,1.9008,1.9008,1.9065,1.9008,1.8942,1.8942,1.8808,1.8741,1.8539,1.7978,1.7198,1.6298,1.5384,1.4537,1.3912,1.3411,1.3273,1.3243,1.3252,1.3436,1.3643,1.3795,1.4197,1.453,1.4523,1.4811,1.5055,1.5136,1.5072,1.5135,1.5464,1.542,1.5487,1.5726,1.5824,1.5914,1.5914,1.6004,1.617,1.6245,1.6327,1.6409,1.6409,1.6409,1.6327,1.6245,1.6327,1.6409,0.0,0.0,0.0,0.0,0.0,1.6363,0.0,0.0,0.0,1.8321,1.8738,1.9056,1.9109,1.9683,2.022,2.0321,0.0,0.0,0.0,2.2296,0.0,2.3538,2.3839,2.3925,2.3696,2.3653,2.3334,2.2649,2.196,2.1293,2.0597,2.0003,1.9384,1.8655,1.8159,1.7545,1.6786,1.6285,1.6009,1.5856,1.6019,1.6066,1.6066,1.6066,1.6066,1.6087,1.6475,1.687,1.7324,1.7813,1.8324,1.8808,1.8617,1.8674,1.8875,1.8875,1.8942,1.9075,1.9075,1.9075,1.9075,1.9075,1.9075,1.9075,1.9075,1.9075,1.9075,1.9075,1.9075,1.9075,1.9075,1.9008,1.8596,1.7687,1.7207,1.6576,1.5029,1.4537,1.4258,1.3637,1.3499,1.3492,1.3346,1.3419,1.3564,1.3637,1.4014,1.4261,1.4238,1.463,1.4904,1.4973,1.4826,1.49,1.5298,1.5335,1.5471,1.5801,1.5997,1.617,1.617,1.617,1.6327,1.6476,1.6648,1.673,1.673,1.673,1.6648,1.6476,1.6648,1.673,0.0,0.0,0.0,0.0,1.4864,1.5642,1.6171,0.0,1.6797,1.6976,0.0,1.7799,1.8007,0.0,0.0,0.0,0.0,0.0,2.1935,2.2217,2.2263,2.2077,2.3201,2.3797,2.3216,2.3068,2.2785,2.2221,2.1609,2.0769,1.9631,1.9384,1.8685,1.7424,1.7213,1.6786,1.6019,1.5972,1.5856,1.574,1.5856,1.5914,1.5914,1.5914,1.5914,1.5934,1.6544,1.7053,1.7512,1.8068,1.8651,1.9075,1.8808,1.8875,1.9075,1.9075,1.9065,1.9075,1.9075,1.9075,1.9075,1.9075,1.9075,1.9075,1.9075,1.9075,1.9075,1.9075,1.9075,1.9075,1.9075,1.9065,1.8798,1.791,1.7139,1.6358,1.533,1.4497,1.3863,1.379,1.3645,1.3564,1.3717,1.3725,1.3863,1.3992,1.4095,1.4118,1.4118,1.4149,1.4294,1.4389,1.4343,1.459,1.5283,1.5335,1.5559,1.5982,1.6237,1.6394,1.6394,1.6566,1.6656,1.6648,1.6648,1.673,1.673,1.673,1.6648,1.6648,1.6648,1.673,0.0,0.0,0.0,0.0,0.0,0.0,1.469,0.0,1.5989,1.6343,0.0,0.0,0.0,0.0,0.0,0.0,2.0321,2.0858,0.0,0.0,2.2324,2.2632,0.0,0.0,2.2799,2.2844,2.2558,2.1732,2.1334,2.0584,1.9475,1.9186,1.8536,1.7257,1.7157,1.6775,1.6009,1.6009,1.5961,1.5798,1.5961,1.6009,1.6009,1.6009,1.6151,1.6424,1.687,1.7316,1.7889,1.8404,1.8833,1.9075,1.9008,1.9008,1.9075,1.9075,1.9075,1.9075,1.9075,1.9075,1.9075,1.9075,1.9075,1.9075,1.9075,1.9075,1.9075,1.9075,1.9075,1.9075,1.9075,1.9075,1.8787,1.7413,1.6853,1.6219,1.4705,1.408,1.379,1.3645,1.3572,1.3572,1.379,1.3717,1.3645,1.3702,1.3855,1.3855,1.3783,1.3855,1.3908,1.3837,1.3926,1.4186,1.4657,1.5101,1.5518,1.5944,1.6382,1.6566,1.6566,1.6648,1.673,1.673,1.673,1.673,1.673,1.673,1.673,1.673,1.673,1.673,0.9609,0.0,0.0,0.0,0.0,0.0,0.0,0.0,0.0,0.0,1.6093,0.0,0.0,0.0,1.8405,0.0,0.0,2.0459,0.0,2.1712,0.0,0.0,0.0,0.0,0.0,2.2572,2.2249,2.152,2.1068,2.0346,1.9214,1.891,1.8267,1.7,1.7,1.6719,1.6114,1.6114,1.6009,1.5914,1.6019,1.6009,1.6009,1.6178,1.6422,1.6708,1.7223,1.7721,1.8165,1.869,1.8942,1.9075,1.9075,1.9075,1.9075,1.9075,1.9075,1.9075,1.9075,1.9075,1.9075,1.9075,1.9075,1.9075,1.9075,1.9142,1.9142,1.9131,1.9142,1.9142,1.9142,1.9075,1.8721,1.7326,1.6844,1.6228,1.4633,1.4072,1.379,1.3645,1.3572,1.3564,1.3717,1.3645,1.3572,1.3637,1.3717,1.379,1.371,1.3717,1.379,1.3637,1.3783,1.4071,1.4411,1.5042,1.5584,1.61,1.6514,1.673,1.673,1.673,1.673,1.673,1.673,1.673,1.673,1.673,1.673,1.673,1.673,1.673,0.0,0.0,0.0,0.9023,0.0,0.0,0.0,0.0,1.4094,0.0,0.0,1.54,1.5786,1.6425,0.0,0.0,0.0,0.0,0.0,0.0,2.141,2.1471,0.0,0.0,0.0,2.2063,2.1616,0.0,2.0934,1.9914,1.8578,1.8405,1.7765,1.6488,1.6441,1.6306,1.6114,1.6114,1.6009,1.5914,1.5914,1.5856,1.575,1.6336,1.6477,1.6366,1.762,1.8209,1.825,1.8823,1.9065,1.9075,1.9075,1.9075,1.9075,1.9075,1.9075,1.9075,1.9075,1.9075,1.9075,1.9075,1.9075,1.9075,1.9075,1.9208,1.9285,1.9142,1.9208,1.9274,1.9131,1.9075,1.8931,1.8172,1.7413,1.6655,1.5675,1.476,1.4065,1.3863,1.3645,1.3492,1.3499,1.3645,1.3863,1.4057,1.3928,1.3863,1.4065,1.3928,1.3863,1.4057,1.4057,1.4275,1.4844,1.5194,1.5756,1.6593,1.673,1.673,1.673,1.673,1.673,1.673,1.673,1.673,1.673,1.673,1.673,1.673,1.673,1.673,0.0,0.0,0.6441,0.7111,0.0,0.0,0.0,0.0,0.0,0.0,0.0,0.0,0.0,0.0,0.0,0.0,0.0,0.0,0.0,0.0,2.1423,2.1423,2.1902,0.0,0.0,0.0,0.0,0.0,2.0169,1.9371,1.8405,1.7852,1.7213,1.6431,1.6384,1.6374,1.6306,1.6306,1.6259,1.6202,1.6202,1.6355,1.6583,1.6666,1.6992,1.7506,1.7873,1.8243,1.8594,1.8813,1.9008,1.9075,1.9075,1.9075,1.9075,1.9075,1.9075,1.9075,1.9075,1.9142,1.9208,1.9142,1.9274,1.9407,1.9274,1.9351,1.9473,1.9407,1.9341,1.9285,1.9208,1.9142,1.8931,1.8172,1.7335,1.6437,1.5471,1.4561,1.3855,1.3645,1.3564,1.3492,1.3492,1.3572,1.3637,1.371,1.379,1.379,1.3863,1.3928,1.3992,1.4057,1.4209,1.44,1.4517,1.5205,1.5905,1.669,1.673,1.673,1.673,1.673,1.673,1.673,1.673,1.6812,1.7147,1.682,1.6902,1.7147,1.682,1.673,0.5077,0.4809,0.0,0.5216,0.6191,0.0,0.7916,0.0,1.0229,0.0,0.0,0.0,0.0,0.0,0.0,0.0,0.0,0.0,0.0,2.0858,2.1375,2.1375,2.1746,2.1746,0.0,0.0,2.0809,2.0296,1.954,1.878,0.0,1.7468,1.6944,1.6441,1.6384,1.6384,1.6384,1.6384,1.6384,1.6384,1.6539,1.6581,1.6558,1.6869,1.7259,1.7745,1.7895,1.8324,1.8942,1.8942,1.9008,1.9075,1.9075,1.9075,1.9075,1.9075,1.9075,1.9142,1.9142,1.9208,1.9285,1.9274,1.9407,1.9615,1.9473,1.955,1.9671,1.9605,1.955,1.9483,1.9417,1.9274,1.9065,1.8586,1.7755,1.6922,1.6245,1.5196,1.4353,1.4137,1.392,1.3702,1.3702,1.3702,1.371,1.3645,1.3717,1.3863,1.4008,1.4145,1.4209,1.4274,1.4425,1.46,1.4843,1.5462,1.6111,1.6698,1.673,1.673,1.673,1.6902,1.6838,1.6547,1.683,1.7001,1.6952,1.6756,1.6902,1.7147,1.682,1.673]},{"header":{"parameterUnit":"m.s-1","parameterCategory":1,"la1":30.6,"la2":29.2853,"lo1":-89.7004,"lo2":-87.6739,"dy":0.0162,"dx":0.0183,"nx":112,"ny":82,"refTime":"2023-05-25T00:00:00:Z","depth":0,"parameterNumber":3,"parameterNumberName":"V-component_of_WINDS"},"data":[0.0,0.0,0.0,0.0,0.0,0.0,0.0,0.0,0.0,0.0,0.0,0.0,0.0,0.0,0.0,0.0,0.0,0.0,0.0,0.0,0.0,0.0,0.0,0.0,0.0,0.0,0.0,0.0,0.0,0.0,0.0,0.0,0.0,0.0,0.0,0.0,0.0,0.0,0.0,0.0,0.0,0.0,0.0,0.0,0.0,0.0,0.0,0.0,0.0,0.0,0.0,0.0,0.0,0.0,0.0,0.0,0.0,0.0,0.0,0.0,0.0,0.0,0.0,0.0,0.0,0.0,0.0,0.0,0.0,0.0,0.0,0.0,0.0,0.0,0.0,0.0,0.0,0.0,0.0,0.0,0.0,0.0,0.0,0.0,0.0,0.0,0.0,0.0,0.0,0.0,2.3634,2.4307,2.423,2.4256,2.4521,2.4174,2.4225,2.476,0.0,0.0,0.0,0.0,0.0,0.0,0.0,0.0,0.0,0.0,0.0,0.0,0.0,0.0,0.0,0.0,0.0,0.0,0.0,0.0,0.0,0.0,0.0,0.0,0.0,0.0,0.0,0.0,0.0,0.0,0.0,0.0,0.0,0.0,0.0,0.0,0.0,0.0,0.0,0.0,0.0,0.0,0.0,0.0,0.0,0.0,0.0,0.0,0.0,0.0,0.0,0.0,0.0,0.0,0.0,0.0,0.0,0.0,0.0,0.0,0.0,0.0,0.0,0.0,0.0,0.0,0.0,0.0,0.0,0.0,0.0,0.0,0.0,0.0,0.0,0.0,0.0,0.0,0.0,0.0,0.0,0.0,0.0,0.0,0.0,0.0,0.0,0.0,0.0,0.0,0.0,0.0,0.0,0.0,0.0,0.0,0.0,0.0,0.0,0.0,0.0,0.0,0.0,0.0,2.491,2.4369,2.4536,2.4689,2.4753,2.5293,2.5628,2.5697,0.0,0.0,0.0,0.0,0.0,0.0,0.0,0.0,0.0,0.0,0.0,0.0,0.0,0.0,0.0,0.0,0.0,0.0,0.0,0.0,0.0,0.0,0.0,0.0,0.0,0.0,0.0,0.0,0.0,0.0,0.0,0.0,0.0,0.0,0.0,0.0,0.0,0.0,0.0,0.0,0.0,0.0,0.0,0.0,0.0,0.0,0.0,0.0,0.0,0.0,0.0,0.0,0.0,0.0,0.0,0.0,0.0,0.0,0.0,0.0,0.0,0.0,0.0,0.0,0.0,0.0,0.0,0.0,0.0,0.0,0.0,0.0,0.0,0.0,0.0,0.0,0.0,0.0,0.0,0.0,0.0,0.0,0.0,0.0,0.0,0.0,0.0,0.0,0.0,0.0,0.0,0.0,0.0,0.0,0.0,0.0,0.0,0.0,0.0,0.0,0.0,0.0,0.0,2.5433,2.5221,2.4775,2.5121,2.5416,2.564,2.5999,2.6351,2.6723,2.637,0.0,0.0,0.0,0.0,0.0,0.0,0.0,0.0,0.0,0.0,0.0,0.0,0.0,0.0,0.0,0.0,0.0,0.0,0.0,0.0,0.0,0.0,0.0,0.0,0.0,0.0,0.0,0.0,0.0,0.0,0.0,0.0,0.0,0.0,0.0,0.0,0.0,0.0,0.0,0.0,0.0,0.0,0.0,0.0,0.0,0.0,0.0,0.0,0.0,0.0,0.0,0.0,0.0,0.0,0.0,0.0,0.0,0.0,0.0,0.0,0.0,0.0,0.0,0.0,0.0,0.0,0.0,0.0,0.0,0.0,0.0,0.0,0.0,0.0,0.0,0.0,0.0,0.0,0.0,0.0,0.0,0.0,0.0,0.0,0.0,0.0,0.0,0.0,0.0,0.0,0.0,0.0,0.0,0.0,0.0,0.0,0.0,0.0,0.0,0.0,0.0,0.0,2.5341,2.5427,2.54,2.5758,2.6139,2.6521,2.6657,2.6923,2.7465,2.7461,0.0,0.0,0.0,0.0,0.0,0.0,0.0,0.0,0.0,0.0,0.0,0.0,0.0,0.0,0.0,0.0,0.0,0.0,0.0,0.0,0.0,0.0,0.0,0.0,0.0,0.0,0.0,0.0,0.0,0.0,0.0,0.0,0.0,0.0,0.0,0.0,0.0,0.0,0.0,0.0,0.0,0.0,0.0,0.0,0.0,0.0,0.0,0.0,0.0,0.0,0.0,0.0,0.0,0.0,0.0,0.0,0.0,0.0,0.0,0.0,0.0,0.0,0.0,0.0,0.0,0.0,0.0,0.0,0.0,0.0,0.0,0.0,0.0,0.0,0.0,0.0,0.0,0.0,0.0,0.0,0.0,0.0,0.0,0.0,0.0,0.0,0.0,0.0,0.0,0.0,0.0,0.0,0.0,0.0,0.0,0.0,0.0,0.0,0.0,0.0,0.0,0.0,2.6046,2.5937,2.6189,2.6453,2.6758,2.7038,2.7355,2.7509,2.7496,2.795,0.0,0.0,0.0,0.0,0.0,0.0,0.0,0.0,0.0,0.0,0.0,0.0,0.0,0.0,0.0,0.0,0.0,0.0,0.0,0.0,0.0,0.0,0.0,0.0,0.0,0.0,0.0,0.0,0.0,0.0,0.0,0.0,0.0,0.0,0.0,0.0,0.0,0.0,0.0,0.0,0.0,0.0,0.0,0.0,0.0,0.0,0.0,0.0,0.0,0.0,0.0,0.0,0.0,0.0,0.0,0.0,0.0,0.0,0.0,0.0,0.0,0.0,0.0,0.0,0.0,0.0,0.0,0.0,0.0,0.0,0.0,0.0,0.0,0.0,0.0,0.0,0.0,0.0,0.0,0.0,0.0,0.0,0.0,0.0,0.0,0.0,0.0,0.0,0.0,0.0,0.0,0.0,0.0,0.0,0.0,0.0,0.0,0.0,0.0,0.0,0.0,0.0,2.7029,2.6989,2.6536,2.6922,2.7238,2.7348,2.7666,2.7904,2.8045,0.0,0.0,0.0,0.0,0.0,0.0,0.0,0.0,0.0,0.0,0.0,0.0,0.0,0.0,0.0,0.0,0.0,0.0,0.0,0.0,0.0,0.0,0.0,0.0,0.0,0.0,0.0,0.0,0.0,0.0,0.0,0.0,0.0,0.0,0.0,0.0,0.0,0.0,0.0,0.0,0.0,0.0,0.0,0.0,0.0,0.0,0.0,0.0,0.0,0.0,0.0,0.0,0.0,0.0,0.0,0.0,0.0,0.0,0.0,0.0,0.0,0.0,0.0,0.0,0.0,0.0,0.0,0.0,0.0,0.0,0.0,0.0,0.0,0.0,0.0,0.0,0.0,0.0,0.0,0.0,0.0,0.0,0.0,0.0,0.0,0.0,0.0,0.0,0.0,0.0,0.0,0.0,0.0,0.0,0.0,0.0,0.0,0.0,0.0,0.0,0.0,0.0,2.8241,2.8234,2.8169,2.7741,2.8028,2.8351,2.8547,2.8785,2.8918,2.8853,0.0,0.0,0.0,0.0,0.0,0.0,0.0,0.0,0.0,0.0,0.0,0.0,0.0,0.0,0.0,0.0,0.0,0.0,0.0,0.0,0.0,0.0,0.0,0.0,0.0,0.0,0.0,0.0,0.0,0.0,0.0,0.0,0.0,0.0,0.0,0.0,0.0,0.0,0.0,0.0,0.0,0.0,0.0,0.0,0.0,0.0,0.0,0.0,0.0,0.0,0.0,0.0,0.0,0.0,0.0,0.0,0.0,0.0,0.0,0.0,0.0,0.0,0.0,0.0,0.0,0.0,0.0,0.0,0.0,0.0,0.0,0.0,0.0,0.0,0.0,0.0,0.0,0.0,0.0,0.0,0.0,0.0,0.0,0.0,0.0,0.0,0.0,0.0,0.0,0.0,0.0,0.0,0.0,0.0,0.0,0.0,0.0,0.0,0.0,0.0,0.0,0.0,3.0008,2.959,2.9506,3.0039,2.9994,3.0154,3.0754,3.0856,3.0577,0.0,0.0,0.0,0.0,0.0,0.0,0.0,0.0,0.0,0.0,0.0,0.0,0.0,0.0,0.0,0.0,0.0,0.0,0.0,0.0,0.0,0.0,0.0,0.0,0.0,0.0,0.0,0.0,0.0,0.0,0.0,0.0,0.0,0.0,0.0,0.0,0.0,0.0,0.0,0.0,0.0,0.0,0.0,0.0,0.0,0.0,0.0,0.0,0.0,0.0,0.0,0.0,0.0,0.0,0.0,0.0,0.0,0.0,0.0,0.0,0.0,0.0,0.0,0.0,0.0,0.0,0.0,0.0,0.0,0.0,0.0,0.0,0.0,0.0,0.0,0.0,0.0,0.0,0.0,0.0,0.0,0.0,0.0,0.0,0.0,0.0,0.0,0.0,0.0,0.0,0.0,0.0,0.0,0.0,0.0,0.0,0.0,0.0,0.0,0.0,0.0,0.0,0.0,3.0481,3.0515,3.0512,3.0141,3.051,3.0903,3.1074,3.118,3.1174,3.1017,0.0,0.0,0.0,0.0,0.0,0.0,0.0,0.0,0.0,0.0,0.0,0.0,0.0,0.0,0.0,0.0,0.0,0.0,0.0,0.0,0.0,0.0,0.0,0.0,0.0,0.0,0.0,0.0,0.0,0.0,0.0,0.0,0.0,0.0,0.0,0.0,0.0,0.0,0.0,0.0,0.0,0.0,0.0,0.0,0.0,0.0,0.0,0.0,0.0,0.0,0.0,0.0,0.0,0.0,0.0,0.0,0.0,0.0,0.0,0.0,0.0,0.0,0.0,0.0,0.0,0.0,0.0,0.0,0.0,0.0,0.0,0.0,0.0,0.0,0.0,0.0,0.0,0.0,0.0,0.0,0.0,0.0,0.0,0.0,0.0,0.0,0.0,0.0,0.0,0.0,0.0,0.0,0.0,0.0,0.0,0.0,0.0,0.0,0.0,0.0,0.0,0.0,3.2038,3.1876,3.176,3.1583,3.2001,3.2327,3.2471,3.2593,3.2539,3.2315,0.0,0.0,0.0,0.0,0.0,0.0,0.0,0.0,0.0,0.0,0.0,0.0,0.0,0.0,0.0,0.0,0.0,0.0,0.0,0.0,0.0,0.0,0.0,0.0,0.0,0.0,0.0,0.0,0.0,0.0,0.0,0.0,0.0,0.0,0.0,0.0,0.0,0.0,0.0,0.0,0.0,0.0,0.0,0.0,0.0,0.0,0.0,0.0,0.0,0.0,0.0,0.0,0.0,0.0,0.0,0.0,0.0,0.0,0.0,0.0,0.0,0.0,0.0,0.0,0.0,0.0,0.0,0.0,0.0,0.0,0.0,0.0,0.0,0.0,0.0,0.0,0.0,0.0,0.0,0.0,0.0,0.0,0.0,0.0,0.0,0.0,0.0,0.0,0.0,0.0,0.0,0.0,0.0,0.0,0.0,0.0,0.0,0.0,0.0,0.0,0.0,0.0,3.4031,3.3375,3.3136,3.3762,3.3891,3.4074,3.4409,3.4483,3.4252,3.3657,0.0,0.0,0.0,0.0,0.0,0.0,0.0,0.0,0.0,0.0,0.0,0.0,0.0,0.0,0.0,0.0,0.0,0.0,0.0,0.0,0.0,0.0,0.0,0.0,0.0,0.0,0.0,0.0,0.0,0.0,0.0,0.0,0.0,0.0,0.0,0.0,0.0,0.0,0.0,0.0,0.0,0.0,0.0,0.0,0.0,0.0,0.0,0.0,0.0,0.0,0.0,0.0,0.0,0.0,0.0,0.0,0.0,0.0,0.0,0.0,-2.7699,-2.5568,0.0,0.0,0.0,0.0,0.0,0.0,0.0,0.0,0.0,0.0,0.0,0.0,0.0,0.0,0.0,0.0,0.0,0.0,0.0,0.0,0.0,0.0,0.0,0.0,0.0,0.0,0.0,0.0,0.0,0.0,0.0,0.0,0.0,0.0,0.0,0.0,0.0,0.0,0.0,0.0,3.3876,3.3689,3.3698,3.4,3.4232,3.4435,3.463,3.4612,3.4557,3.4449,3.4365,0.0,0.0,0.0,0.0,0.0,0.0,0.0,0.0,0.0,0.0,0.0,0.0,0.0,0.0,0.0,0.0,0.0,0.0,0.0,0.0,0.0,0.0,0.0,0.0,0.0,0.0,0.0,0.0,0.0,0.0,0.0,0.0,0.0,0.0,0.0,0.0,0.0,0.0,0.0,0.0,0.0,0.0,0.0,0.0,0.0,0.0,0.0,0.0,0.0,0.0,0.0,0.0,0.0,0.0,0.0,0.0,0.0,0.0,0.0,-2.764,-2.6321,0.0,0.0,0.0,0.0,0.0,0.0,0.0,0.0,0.0,0.0,0.0,0.0,0.0,0.0,0.0,0.0,0.0,0.0,0.0,0.0,0.0,0.0,0.0,0.0,0.0,0.0,0.0,0.0,0.0,0.0,0.0,0.0,0.0,0.0,0.0,0.0,0.0,0.0,0.0,0.0,3.4197,3.4037,3.4062,3.4325,3.4612,3.4812,3.4832,3.4908,3.4926,3.4926,3.4889,0.0,0.0,0.0,0.0,0.0,0.0,0.0,0.0,0.0,0.0,0.0,0.0,0.0,0.0,0.0,0.0,0.0,0.0,0.0,0.0,0.0,0.0,0.0,0.0,0.0,0.0,0.0,0.0,0.0,0.0,0.0,0.0,0.0,0.0,0.0,0.0,0.0,0.0,0.0,0.0,0.0,0.0,0.0,0.0,0.0,0.0,0.0,0.0,0.0,0.0,0.0,0.0,0.0,-3.0402,-3.0133,-2.9374,-2.9284,-2.9087,-2.8717,-2.7268,-2.674,-2.6629,-2.361,0.0,0.0,0.0,0.0,0.0,0.0,0.0,0.0,0.0,0.0,0.0,0.0,0.0,0.0,0.0,0.0,0.0,0.0,0.0,0.0,0.0,0.0,0.0,0.0,3.5025,3.5005,3.5064,0.0,0.0,0.0,0.0,0.0,0.0,0.0,0.0,0.0,0.0,0.0,3.4495,3.4325,3.4284,3.4561,3.4889,3.5016,3.4944,3.5141,3.5209,3.5141,3.5127,3.5092,0.0,0.0,0.0,0.0,0.0,0.0,0.0,0.0,0.0,0.0,0.0,0.0,0.0,0.0,0.0,0.0,0.0,0.0,0.0,0.0,0.0,0.0,0.0,0.0,0.0,0.0,0.0,0.0,0.0,0.0,0.0,0.0,-3.1253,-3.135,0.0,0.0,0.0,0.0,0.0,0.0,0.0,0.0,0.0,0.0,0.0,0.0,0.0,-2.977,-2.9717,-3.0468,-3.0657,-3.0189,-3.1072,-3.1283,-3.0878,-2.9978,-2.9524,-2.939,-2.7929,0.0,-2.5441,-2.4943,0.0,0.0,0.0,0.0,0.0,0.0,0.0,0.0,0.0,0.0,0.0,0.0,0.0,0.0,0.0,0.0,0.0,0.0,0.0,0.0,0.0,0.0,3.4963,3.4925,3.4926,3.487,0.0,3.4649,3.467,3.4851,3.4751,0.0,0.0,0.0,0.0,0.0,0.0,0.0,3.4269,3.4409,3.4561,3.4602,3.4811,3.4889,3.4734,3.4907,3.4999,3.4926,3.5038,3.5092,3.5092,3.4753,0.0,0.0,0.0,0.0,0.0,0.0,0.0,0.0,0.0,0.0,0.0,0.0,0.0,0.0,0.0,0.0,0.0,0.0,0.0,0.0,0.0,0.0,0.0,0.0,0.0,0.0,0.0,0.0,0.0,-3.0847,-3.1445,-3.1662,-3.1568,-3.1359,0.0,0.0,0.0,0.0,0.0,0.0,0.0,0.0,0.0,-3.0657,-3.0518,-3.0452,-3.0502,-3.0616,-3.0517,-3.0335,-3.0501,-3.0377,-2.9962,-2.9419,-2.8919,-2.8448,-2.7363,-2.6197,-2.5066,-2.4622,-1.5783,-0.2383,0.0,0.0,0.0,0.0,3.0216,3.4557,3.4895,3.5193,3.5445,3.5521,0.0,0.0,0.0,0.0,0.0,0.0,0.0,0.0,0.0,0.0,3.473,3.473,3.4628,3.448,3.4386,3.4381,3.445,0.0,3.4751,3.4811,3.487,0.0,0.0,0.0,0.0,3.4561,3.445,3.4517,3.4602,3.4602,3.4889,3.4982,3.4773,3.4926,3.4925,3.4734,3.4753,3.4773,3.4831,3.4526,3.4413,0.0,0.0,0.0,0.0,0.0,0.0,0.0,0.0,0.0,0.0,0.0,0.0,0.0,0.0,0.0,0.0,0.0,0.0,0.0,0.0,0.0,0.0,0.0,0.0,0.0,0.0,0.0,0.0,-3.1442,-3.1718,-3.1699,-3.1662,-3.1363,0.0,0.0,0.0,0.0,0.0,0.0,-3.0821,-3.0757,-3.0838,-3.0948,-3.0878,-3.0895,-3.1021,-3.0526,-3.0201,-3.0159,-2.9756,-2.9358,-2.9027,-2.8732,-2.8273,-2.771,-2.6849,-2.5932,-2.5007,-2.4071,-1.7789,-0.8658,-0.7339,0.4267,2.0247,2.0845,2.6632,3.4269,3.4661,3.507,3.5411,3.5456,3.5661,3.5872,3.586,0.0,0.0,0.0,0.0,3.52,3.5076,3.4813,3.4583,3.4517,3.434,3.4197,3.4197,3.4245,3.434,0.0,3.467,3.4812,3.4812,0.0,0.0,0.0,0.0,3.4495,3.4495,3.4561,3.4602,3.4602,3.4908,3.5,3.4752,3.487,3.4832,3.4569,3.4551,3.4572,3.4614,3.4416,3.4363,3.4386,0.0,0.0,0.0,0.0,0.0,0.0,0.0,0.0,0.0,0.0,0.0,0.0,0.0,0.0,0.0,0.0,0.0,0.0,0.0,0.0,0.0,0.0,0.0,0.0,0.0,0.0,0.0,0.0,0.0,-3.1462,-3.2264,0.0,0.0,0.0,0.0,-3.0895,-3.0975,-3.1196,-3.1545,-3.1196,-3.11,-3.1359,-3.0942,-3.0568,-3.0274,-2.9984,-2.9689,-2.9451,-2.9241,-2.912,-2.9074,-2.8448,-2.8125,-2.8027,-2.6797,-2.5892,-2.5063,-2.3631,-1.7143,-0.8075,-0.7149,0.4267,2.0215,2.0535,2.6396,3.42,3.4223,3.4753,3.5403,3.54,3.5597,3.5791,3.5729,3.5698,0.0,0.0,3.5254,3.5196,3.4753,3.4623,3.4539,3.4269,3.4221,3.4197,3.4197,3.4386,3.4517,0.0,3.4431,3.4623,3.4623,0.0,3.4623,3.4623,3.4386,3.4221,3.4221,3.445,3.4602,3.4602,3.4791,3.4792,3.4539,3.4711,3.4693,3.4431,3.4588,3.4694,3.4694,3.4674,3.4588,3.4386,3.4386,0.0,0.0,0.0,0.0,0.0,0.0,0.0,0.0,0.0,0.0,0.0,0.0,0.0,0.0,0.0,0.0,0.0,0.0,0.0,0.0,0.0,0.0,0.0,0.0,0.0,0.0,0.0,0.0,-3.2092,-3.2453,0.0,-3.1193,-3.1511,-3.147,-3.0699,-3.1123,-3.1411,-3.1368,-3.0861,-3.0723,-3.114,-3.0284,-2.987,-3.007,-2.9241,-2.8764,-2.8717,-2.8304,-2.814,-2.814,-2.781,-2.7675,-2.7575,-2.6269,-2.5563,-2.5161,-2.293,-1.9778,-1.5819,-0.9479,0.0618,1.2353,1.819,2.605,3.3891,3.4298,3.4783,3.5276,3.5658,3.5795,3.5793,3.5813,3.5743,3.5599,3.55,3.5359,3.52,3.5035,3.4772,3.458,3.4473,3.4316,3.4197,3.4197,3.4269,3.4381,3.445,3.4628,3.4751,3.4604,3.471,3.4791,3.4791,3.4586,3.4473,3.4473,3.4386,3.4427,3.4583,3.4791,3.4811,3.4583,3.4711,3.463,3.4245,3.4227,3.4274,3.4321,3.4302,3.4298,3.4269,3.4316,3.4293,0.0,0.0,0.0,0.0,0.0,0.0,0.0,0.0,0.0,0.0,0.0,0.0,0.0,0.0,0.0,0.0,0.0,0.0,0.0,0.0,0.0,0.0,0.0,0.0,0.0,0.0,-3.2651,-3.2039,-3.2368,-3.2196,-3.1077,-3.1511,-3.1582,-3.0781,-3.124,-3.1372,-3.0958,-3.0559,-3.0435,-3.0535,-2.975,-2.9454,-2.9766,-2.8764,-2.8288,-2.8288,-2.7845,-2.7625,-2.7625,-2.7488,-2.7335,-2.7115,-2.6014,-2.5342,-2.4881,-2.2445,-2.1313,-2.0147,-1.0514,-0.1184,0.7979,1.6847,2.5864,3.3821,3.4604,3.5028,3.5276,3.5779,3.5877,3.5804,3.5807,3.5697,3.5596,3.557,3.543,3.5293,3.5226,3.4945,3.4691,3.4607,3.4431,3.4269,3.4269,3.4269,3.4316,3.4495,3.4732,3.487,3.473,3.4811,3.4908,3.4908,3.4649,3.4495,3.4602,3.4381,3.4293,3.4561,3.473,3.4751,3.4604,3.4732,3.463,3.4173,3.4173,3.4173,3.4148,3.4124,3.4278,3.4624,3.4697,3.4614,3.434,0.0,0.0,0.0,0.0,0.0,0.0,0.0,0.0,0.0,0.0,0.0,0.0,0.0,0.0,0.0,0.0,0.0,0.0,0.0,0.0,0.0,0.0,0.0,-3.2419,-3.2537,-3.2265,-3.1261,-3.2057,-3.2109,-3.0707,-3.1338,-3.1674,-3.123,-3.119,-3.1015,-3.0518,-3.0477,-3.0225,-2.9617,-2.9422,-2.9348,-2.9289,-2.8591,-2.8304,-2.824,-2.7795,-2.7625,-2.7625,-2.7625,-2.7255,-2.6669,-2.6068,-2.5287,-2.4323,-2.2372,-2.1404,-2.0072,-0.9689,-0.0543,0.7993,1.7008,2.6084,3.4048,3.5047,3.5384,3.5444,3.5718,3.5792,3.5782,3.5648,3.5588,3.5585,3.5528,3.5493,3.5446,3.5258,3.5051,3.487,3.4655,3.4502,3.4427,3.4386,3.4386,3.4409,3.4409,3.467,3.4889,3.4889,3.4889,3.4889,3.4889,3.4502,0.0,3.4539,3.4363,3.4293,3.4583,3.4623,3.4623,3.4623,3.4791,3.4693,3.4221,3.445,3.4473,3.4221,3.4197,3.4612,3.5448,3.5516,3.5179,3.4404,0.0,0.0,0.0,0.0,0.0,0.0,0.0,0.0,0.0,0.0,0.0,0.0,0.0,0.0,0.0,0.0,0.0,0.0,0.0,0.0,0.0,-3.2332,-3.2749,-3.283,-3.2925,-3.2908,-3.2583,-3.2419,-3.2144,-3.166,-3.149,-3.1411,-3.1274,-3.123,-3.1015,-3.0518,-3.0182,-2.9924,-2.975,-2.8858,-2.8542,-2.8842,-2.8125,-2.7795,-2.7795,-2.766,-2.7625,-2.7625,-2.7625,-2.7255,-2.6669,-2.596,-2.4966,-2.3794,-2.2139,-2.1112,-1.8966,-0.2927,0.4782,0.8738,2.3768,3.1266,3.4024,3.4868,3.5284,3.5465,3.5821,3.5877,3.5779,3.5694,3.5631,3.5585,3.5528,3.5493,3.5446,3.5251,3.5168,3.503,3.4754,3.4754,3.4754,3.4454,3.4502,3.463,3.463,3.4693,3.4753,3.4753,3.4753,3.4753,3.4694,3.4458,0.0,3.4293,3.4245,3.4363,3.4772,3.4831,3.4831,3.4831,3.487,3.4693,3.4221,3.4316,3.434,3.4269,3.4316,3.4475,3.4782,3.4805,3.4716,0.0,0.0,0.0,0.0,0.0,0.0,0.0,0.0,0.0,0.0,0.0,0.0,0.0,0.0,0.0,0.0,0.0,0.0,0.0,0.0,0.0,0.0,-3.2699,-3.3068,-3.3068,-3.3037,-3.2957,-3.2943,-3.242,-3.193,-3.1714,-3.1524,-3.1368,-3.1274,-3.1213,-3.1015,-3.0518,-3.0225,-3.0011,-2.981,-2.9074,-2.8701,-2.8685,-2.8222,-2.786,-2.7625,-2.7625,-2.7625,-2.7625,-2.7524,-2.7049,-2.6229,-2.5728,-2.4627,-2.3037,-2.1865,-2.0933,0.0,0.0,0.0,0.0,0.0,3.3437,3.3956,3.4698,3.51,3.5314,3.5778,3.5896,3.5873,3.58,3.5757,3.5688,3.5589,3.554,3.5509,3.5369,3.5311,3.5235,3.5034,3.5015,3.4943,3.4672,3.4693,3.4753,3.4672,3.467,0.0,3.467,3.4693,3.4674,3.4653,3.448,3.4363,3.4413,3.434,3.4386,3.467,3.4691,3.4691,3.4691,3.4772,0.0,0.0,0.0,3.4435,3.434,3.4717,0.0,0.0,0.0,3.4854,3.4602,0.0,0.0,0.0,3.4221,3.4245,0.0,0.0,0.0,0.0,0.0,0.0,0.0,0.0,0.0,0.0,0.0,0.0,0.0,0.0,0.0,0.0,-3.2957,-3.3316,-3.319,-3.2862,-3.2669,-3.2669,-3.2161,-3.1671,-3.1389,-3.1445,-3.144,-3.123,-3.119,-3.1015,-3.0518,0.0,0.0,0.0,0.0,-2.9316,-2.8779,-2.8654,-2.8286,-2.766,-2.766,-2.766,-2.7575,-2.7488,-2.6788,-2.5563,-2.5453,-2.4239,-2.2249,-2.1639,-2.025,-1.7644,-0.8274,0.0695,1.042,2.73,3.3615,3.3876,3.4561,0.0,0.0,3.5626,3.5893,3.5995,3.5912,3.5894,3.5866,3.565,3.559,3.559,3.5534,3.5463,3.5427,3.5393,3.5296,3.5114,3.4963,3.4926,3.487,3.4668,3.4623,3.4602,3.4602,3.4649,3.4693,3.4693,3.4542,3.4476,3.4632,3.4502,3.4427,3.4431,0.0,0.0,3.4431,3.4609,3.4609,3.4409,3.4567,3.4609,3.4431,3.5175,3.5236,3.4536,3.5229,3.527,3.4623,3.4727,3.4666,3.4476,3.4427,3.445,0.0,0.0,0.0,0.0,0.0,0.0,0.0,0.0,0.0,0.0,0.0,0.0,0.0,0.0,0.0,-3.1861,-3.2586,-3.3068,-3.2908,-3.2603,-3.2386,-3.2386,-3.202,-3.1746,-3.1709,-3.1576,-3.1479,-3.144,-3.1269,-3.1015,-3.0518,-3.0518,-3.0267,-2.9793,-2.9556,-2.9361,-2.9271,-2.9074,-2.8701,-2.8158,0.0,0.0,-2.7625,-2.7575,-2.6811,-2.5563,-2.5453,-2.3923,-2.1577,-2.125,-1.651,-0.8476,0.0807,0.9761,1.8833,2.9569,3.3605,3.3823,3.4561,3.4897,3.5091,3.564,3.5896,3.5975,3.5857,3.5856,0.0,3.566,3.56,3.559,3.5581,3.5577,3.5521,3.5424,3.5496,3.5496,3.5149,3.5064,3.5015,3.487,3.471,3.4602,3.4602,3.4604,3.4604,3.4561,3.4517,3.4473,3.4454,3.4431,3.4454,3.4612,3.4632,3.4632,3.4632,3.4693,3.4609,3.4409,3.4476,3.4561,3.4561,3.473,3.4749,3.4561,3.4856,3.4898,3.4768,3.4666,3.4749,3.4946,3.452,3.4245,0.0,0.0,0.0,0.0,0.0,0.0,0.0,0.0,0.0,0.0,0.0,-3.0707,0.0,0.0,-3.1844,-3.188,-3.2453,-3.2784,-3.257,-3.242,-3.2283,-3.2283,-3.1984,-3.1746,-3.1709,-3.1596,-3.1538,-3.1517,-3.1329,-3.1157,-3.0925,-3.0861,-3.074,-3.0493,-3.0351,-3.0123,-2.9761,-2.9645,-2.918,-2.8288,-2.8288,-2.8076,-2.7625,-2.7524,-2.6997,-2.6014,-2.5563,-2.4213,-2.2188,-2.1101,-1.756,-1.1619,0.1702,1.2232,2.1028,3.005,3.3634,3.4105,3.4555,3.4882,3.5166,3.5566,3.5849,3.5994,3.5927,3.5926,3.5919,3.5745,3.5693,3.5676,3.5626,3.5612,3.5631,3.5565,3.562,3.562,3.5336,3.5178,3.5047,3.4926,3.473,3.4602,3.4602,3.4602,3.4602,3.4561,3.4539,3.4539,3.4495,3.4495,3.4539,3.4649,3.4649,3.4649,3.4649,3.4649,3.4607,3.4517,3.4517,3.458,3.4602,3.4602,3.4645,3.4687,3.4768,3.4829,3.4849,3.4849,3.483,3.4751,3.4649,3.4545,0.0,0.0,0.0,0.0,0.0,0.0,0.0,0.0,-2.9903,-3.0707,-3.0771,-3.0754,-3.1004,-3.1397,-3.1752,-3.1933,-3.2248,-3.2472,-3.2214,-3.2214,-3.2214,-3.2214,-3.1948,-3.1746,-3.1671,-3.1617,-3.1596,-3.15,-3.1389,-3.1295,-3.1295,-3.1252,-3.119,-3.1151,-3.1151,-3.0838,-3.0225,-3.0182,-2.9585,-2.84,-2.84,-2.8125,-2.7524,-2.7386,-2.7011,-2.6336,-2.5384,-2.4142,-2.2639,-2.0824,-1.8768,-1.5194,0.0645,1.2109,2.0799,2.9887,3.3707,3.4321,3.4526,3.4846,3.5233,3.5512,3.5773,3.5993,3.5994,3.6007,3.5974,3.585,3.5801,3.5774,3.5659,3.5665,3.5684,3.5662,3.5631,3.5596,3.5391,3.5178,3.5032,3.4926,3.473,3.4602,3.4602,3.4602,3.4602,3.4602,3.4602,3.4602,3.4602,3.4602,3.4602,3.4602,3.4602,3.4658,3.4827,3.4996,3.509,3.509,3.5093,3.5114,3.5114,3.5136,3.52,3.5301,3.5321,3.5381,3.542,3.5514,3.5287,3.4808,3.5038,3.5002,-2.5412,-2.6558,-2.7434,-2.7993,-2.8477,-2.9014,0.0,0.0,-3.0342,-3.11,-3.1466,-3.1579,-3.1295,-3.1894,-3.2179,-3.1507,-3.1858,-3.2144,-3.1893,-3.1873,-3.1873,-3.1873,-3.1837,-3.18,-3.18,-3.1671,-3.1579,-3.1579,-3.1411,-3.1295,-3.1295,-3.1252,-3.1151,-3.1015,-3.0935,-3.0831,-3.0651,-3.051,-2.9897,-2.8811,-2.8811,-2.8286,-2.7218,-2.7233,-2.6841,-2.6054,-2.4097,-2.2555,-2.129,-2.042,-1.5423,-0.7269,0.2733,1.1818,2.0412,2.9972,3.3689,3.4025,3.4464,3.4846,3.5245,3.5519,3.5781,3.5992,3.5993,3.5994,3.5971,3.5908,3.585,3.5774,3.5713,3.5699,3.5643,3.5477,3.5418,3.5378,3.5178,3.5015,3.4908,3.4889,3.473,3.4602,3.4602,3.4602,3.4602,3.4602,3.4602,3.4602,3.4602,3.4602,3.4602,3.4602,3.4602,3.4902,3.5691,3.6404,3.6817,3.6817,3.693,3.6996,3.6996,3.7064,3.7087,3.7106,3.7224,3.7281,3.73,3.7185,3.6844,3.625,3.6065,3.535,-2.4226,-2.5492,-2.6457,-2.7898,-2.8268,-2.8477,-2.9454,-2.9821,-3.0175,-3.1123,-3.1466,-3.1559,-3.1334,-3.1637,-3.1802,0.0,-3.1617,-3.1856,-3.1783,-3.18,-3.18,-3.18,-3.18,-3.18,-3.18,-3.1746,-3.1709,-3.1709,-3.1521,-3.1406,-3.1406,-3.1213,-3.1055,-3.1015,-3.0935,-3.0692,-3.03,-3.0241,-2.9645,-2.8543,-2.8463,-2.8042,-2.7284,-2.7233,-2.6669,-2.5618,-2.4697,-2.328,-2.1642,-2.0978,-1.8022,-1.2601,0.1342,0.8875,1.3613,2.8015,3.3634,3.4073,3.4559,3.5018,3.5465,3.5639,3.5846,3.5992,3.5995,3.5994,3.5974,3.587,3.5819,3.5781,3.5727,3.5697,3.5673,3.5589,3.5496,3.5378,3.5288,3.5086,3.4908,3.4908,3.5145,3.5353,3.5353,3.5728,3.6047,3.6047,3.5653,3.5353,3.5353,3.5766,3.6047,3.6047,3.6047,3.6197,3.6573,3.6961,3.7235,3.7235,3.7305,3.7368,3.7368,3.739,3.7451,3.7509,3.7566,3.7641,3.7714,3.7622,3.7394,3.7071,3.7051,3.671,-2.3022,-2.4286,-2.53,-2.744,-2.783,-2.7944,-2.9104,-2.954,-2.9972,-3.0828,-3.1274,-3.1445,-3.1312,-3.1428,-3.1521,-3.1389,-3.1542,-3.1728,-3.1819,-3.1819,-3.1819,-3.1819,-3.18,-3.18,-3.1819,-3.18,-3.18,-3.18,-3.1614,-3.1517,-3.1517,-3.119,-3.0918,-3.0757,-3.0675,-3.0368,-2.975,-2.975,-2.9225,-2.8255,-2.811,-2.7795,-2.7299,-2.7144,-2.6525,-2.5522,-2.5245,-2.4073,-2.2294,-2.1423,-2.0322,-1.7386,-0.0054,0.6633,0.8665,2.6493,3.3451,3.4083,3.4581,3.5117,3.5609,3.5702,3.5856,3.5992,3.5995,3.5995,3.5979,3.5866,3.5819,3.5788,3.5747,3.5707,3.5684,3.562,3.5464,3.5379,3.5534,3.536,3.5247,3.5513,3.5958,3.6283,3.6327,3.6798,3.7175,3.7175,3.6892,3.6569,3.6254,3.6742,3.7099,3.7099,3.7286,3.746,3.7464,3.7762,3.798,3.8005,3.8092,3.8134,3.8134,3.8193,3.8251,3.8347,3.8347,3.8402,3.8489,3.8435,3.8248,3.7946,3.8037,3.7922,-2.1995,-2.3052,-2.4138,-2.625,-2.7041,-2.755,-2.848,-2.9287,-2.9881,-3.0267,-3.0942,-3.144,-3.123,-3.1538,-3.1726,-3.1517,-3.1709,-3.1894,-3.1894,-3.1894,-3.1894,-3.1894,-3.1856,-3.1819,0.0,-3.1856,-3.18,-3.18,-3.1614,-3.1517,-3.1517,-3.119,-3.0757,-3.0166,-3.0054,-2.975,-2.912,-2.912,-2.8795,-2.8125,-2.7963,-2.7595,-2.7003,-2.6884,-2.6447,-2.5839,-2.5245,-2.4239,-2.287,-2.1604,-2.0298,-1.7422,-0.05,0.6224,0.847,2.6106,3.3128,3.3895,3.4427,3.504,3.5607,3.5599,3.5775,3.5991,3.5992,3.5996,3.5982,3.5916,3.5841,3.5801,3.5799,3.5745,3.5626,3.5366,3.5258,3.5346,3.5871,3.591,3.613,3.7052,3.7244,3.7286,3.7334,3.7373,3.7392,3.7392,3.8073,3.8234,3.7201,3.708,3.7099,3.7099,3.7793,3.831,3.8445,3.9165,3.9664,3.9813,3.9939,4.002,4.002,4.0139,4.0196,4.0215,4.0215,4.0214,4.0211,4.023,3.9827,3.9037,3.9073,3.8632,-2.0112,-2.1478,-2.289,-2.4815,-2.5616,-2.6169,-2.6792,-2.75,-2.8167,-2.8775,-2.5616,-2.288,-2.3366,-2.3792,-2.413,-2.4187,-2.8527,-3.193,-3.202,-3.202,-3.202,-3.202,-3.2001,0.0,0.0,0.0,0.0,-3.1875,-3.1651,-3.1517,-3.1517,-3.119,-3.0895,-3.0634,-3.0241,-2.9777,-2.9287,-2.881,-2.8367,-2.8039,-2.761,-2.7269,-2.7003,-2.6846,-2.6447,-2.5893,-2.5245,-2.4253,-2.3015,-2.1984,-2.1145,-1.9748,-1.3211,-0.1565,1.3271,2.7483,3.3135,3.3765,3.444,3.5085,3.5599,3.565,3.5825,3.5991,3.6007,3.5996,3.5979,3.587,3.5844,3.5833,3.5699,3.5646,3.5736,3.6136,3.6121,3.6203,3.6957,3.7013,3.6986,3.7312,3.7823,3.8241,3.8264,3.8698,3.9058,3.9058,3.885,3.8753,3.8931,3.8968,3.8968,3.8968,3.9192,3.9384,3.9429,3.9759,3.9975,4.0036,4.0157,4.0234,4.0234,4.0291,4.031,4.029,4.0308,4.0344,4.0432,4.0379,4.0262,4.0044,3.9991,3.9838,-1.7965,-1.923,-2.0613,-2.2309,-2.314,-2.3592,-2.407,-2.4792,-2.5568,-2.6476,-2.2154,-1.8312,-1.8724,-1.7772,-1.6777,-1.6143,-2.027,-2.4467,-2.7333,-2.774,-2.8812,-3.1775,-3.2108,-3.2073,0.0,0.0,0.0,-3.1875,-3.1651,-3.1517,-3.1517,-3.0998,-3.0716,-3.0634,-2.9821,-2.9225,-2.895,-2.8255,-2.781,-2.7655,-2.7299,-2.7041,-2.6951,-2.6846,-2.6621,-2.6179,-2.5356,-2.4244,-2.2997,-2.1937,-2.1069,-1.992,-1.5113,-0.1978,1.582,2.7964,3.2889,3.3637,3.4423,3.5097,3.562,3.5668,3.5836,3.6009,3.6005,3.5976,3.5929,3.583,3.5827,3.5813,3.5646,3.5821,3.6168,3.6579,3.6773,3.7099,3.7925,3.7966,3.7962,3.8286,3.8817,3.9218,3.9258,3.9715,4.0036,4.0036,3.96,3.9407,3.9854,3.9889,3.9889,3.9889,3.9889,3.9911,3.9973,4.0057,4.0117,4.0157,4.0253,4.031,4.031,4.031,4.029,4.0307,4.0325,4.0379,4.0502,4.0449,4.0466,4.0515,4.0463,4.0463,-1.5687,-1.6578,-1.76,-1.8994,-1.9725,-2.0135,-2.0522,-2.1236,-2.218,-2.3489,-2.0325,-1.7223,0.0,0.0,-0.9903,-0.7926,-0.8069,-1.0978,-1.8338,-1.9364,-2.2416,0.0,0.0,0.0,0.0,0.0,0.0,-3.18,0.0,-3.1517,-3.1517,-3.0781,-3.0251,-3.0123,-2.898,-2.8304,-2.8125,-2.756,-2.7196,-2.7055,-2.7055,-2.6951,-2.6779,-2.6779,-2.6779,-2.6674,-2.5467,-2.4253,-2.2941,-2.1611,-2.0287,-1.8012,-0.6718,0.4603,1.6011,2.7627,3.2504,3.3506,3.4402,3.5074,3.5591,3.5668,3.583,3.6005,3.6003,3.5956,3.5896,3.5825,3.5807,3.5788,3.5684,3.6269,3.6863,3.6748,3.7255,3.7959,3.8728,3.8839,3.9045,3.9944,4.0117,4.0157,4.0291,4.0291,4.0291,4.031,4.0291,4.0196,3.9954,3.9911,3.9911,3.9911,3.9911,3.9975,4.0098,4.0098,4.0157,4.031,4.0291,4.031,4.031,4.0308,4.0307,4.0307,4.0379,4.0432,4.0502,4.0502,4.0495,4.0523,4.0504,4.0504,-1.4609,-1.5573,-1.6665,-1.7427,-1.7705,-1.7856,-1.8253,-1.8781,-1.9672,-2.1371,-1.4555,-0.822,0.0,0.0,0.0,-0.1419,-0.5649,0.0,-1.1816,-1.2082,0.0,-2.2842,0.0,-2.5998,-3.1654,-3.2108,0.0,0.0,-3.1651,-3.1517,-3.1517,-3.1173,-3.0699,-3.0123,-2.9805,-2.9316,-2.8543,-2.8268,-2.7955,-2.759,-2.7488,-2.7167,-2.6578,-2.6457,-2.6312,-2.6056,-2.4978,-2.4341,-2.3903,-2.1549,-2.0392,-1.8438,-0.1997,0.8671,1.6237,2.8531,3.3152,3.3405,3.4471,3.5051,3.5348,3.556,3.5795,3.6003,3.5999,3.5957,3.5896,3.589,3.5833,3.5893,3.6303,3.662,3.7095,3.8139,3.8531,3.8897,3.9738,3.9891,3.9967,4.0196,4.0253,4.0253,4.0291,4.0344,4.036,4.031,4.0344,4.0342,4.0215,4.0215,4.0215,4.0215,4.0215,4.0234,4.0323,4.0272,4.0291,4.0358,4.0325,4.0308,4.0308,4.0344,4.0396,4.0449,4.0485,4.0482,4.0492,4.0492,4.0543,4.0573,4.0621,4.0655,-1.3208,-1.3917,-1.468,-1.4869,-1.5056,-1.5031,-1.4779,-1.4792,-1.5445,-1.747,-1.0243,-0.3704,-0.4053,0.028,0.4391,0.0,0.0,0.0,-0.3302,-0.3367,-0.6023,0.0,-1.4982,0.0,-2.0941,-2.1197,-2.2503,0.0,-2.9449,-3.1517,-3.1517,-3.1095,-3.0658,-3.0123,-2.9848,-2.9345,-2.8543,-2.8204,-2.789,-2.764,-2.7539,-2.7218,-2.6645,-2.6525,-2.6433,-2.6218,0.0,-2.4496,-2.404,-2.1708,-2.0328,-1.8301,-0.29,0.7948,1.6497,2.8876,3.3322,3.3302,3.4287,3.4821,3.5096,3.5581,3.5852,3.5999,3.5965,3.5937,3.5908,3.5895,3.608,3.6358,3.6633,3.7247,3.7997,3.8816,3.9298,3.9699,4.0176,4.0308,4.0289,4.0309,4.0309,4.0309,4.0309,4.0375,4.0422,4.0396,4.0466,4.0521,4.0454,4.0394,4.0362,4.043,4.043,4.0427,4.0406,4.0377,4.0342,4.0358,4.0323,4.0307,4.0325,4.0415,4.0449,4.0502,4.0558,4.0598,4.0593,4.0617,4.0648,4.068,4.0729,4.074,-1.17,-1.1848,-1.1996,-1.1842,-1.2063,-1.1983,-1.0902,-1.0507,-1.0718,-1.2311,-0.6824,-0.1896,-0.2362,0.3742,0.9471,1.1636,0.0,1.2395,0.5702,0.5677,0.317,-0.5313,-0.599,-0.6206,-0.7396,-0.72,-1.0295,-1.8219,-2.5612,-3.023,-3.1351,-3.0902,-3.046,-3.0123,-2.9435,-2.8872,-2.8432,-2.7894,-2.7625,-2.7539,-2.7452,-2.7181,-2.6712,-2.6712,-2.6727,-2.6606,-2.5412,-2.4513,-2.3696,-2.183,-2.0373,-1.7981,-0.5552,0.5344,1.5597,2.8595,3.3238,3.3178,3.4074,3.4547,3.4868,3.5621,3.5914,3.5988,3.5923,3.5898,3.5929,3.6041,3.6476,3.6949,3.7058,3.8113,3.9157,3.9179,3.9774,4.0309,4.0307,4.0307,4.0325,4.0325,4.0323,4.0341,4.0341,4.045,4.0554,4.053,4.0636,4.071,4.0653,4.053,4.0481,4.0596,4.0602,4.0559,4.045,4.0422,4.0392,4.0342,4.0325,4.0342,4.0415,4.0482,4.0531,4.0531,4.0662,4.0699,4.0711,4.0781,4.0796,4.0816,4.0821,4.0788,-1.0271,-0.9739,-0.913,-0.9266,-0.9125,-0.8827,-0.8566,-0.8401,0.0,0.0,-0.3689,-0.046,0.3158,0.5943,0.8348,1.0473,1.1816,1.2383,1.1793,1.2298,0.9841,0.0,0.1503,-0.0634,-0.6895,-0.7327,0.0,0.0,-1.9934,-2.3615,-3.0547,-3.1083,-3.0845,-3.0123,-2.9134,-2.8826,-2.9225,-2.835,-2.8024,-2.8158,-2.776,-2.7152,-2.6404,-2.6404,-2.6258,-2.6002,-2.4921,0.0,-2.3416,-2.1667,-2.0549,-1.8255,-0.1411,0.6299,0.9987,2.6916,3.3019,3.3021,3.4285,3.4639,3.4664,3.5414,3.5762,3.5923,3.5898,3.5901,3.6036,3.6696,3.6981,3.7366,3.8678,3.9224,3.9561,4.0038,4.031,4.0425,4.0306,4.0342,4.0415,4.0449,4.0469,4.0468,4.0468,4.0672,4.0791,4.0676,4.0771,4.0867,4.0858,4.074,4.0665,4.0676,4.0578,4.0538,4.0642,4.0504,4.0447,4.0543,4.0499,4.0466,4.0485,4.0598,4.0675,4.0675,4.0749,4.0772,4.0781,4.0779,4.0832,4.0882,4.0947,4.0922,-0.8959,-0.8609,-0.8228,-0.8049,-0.8062,-0.7846,-0.6674,0.0,0.0,0.0,-0.1399,0.0854,0.4533,0.6615,0.0,0.9205,1.1366,1.3011,1.3324,1.433,1.3707,1.0184,1.0133,0.9151,0.586,0.5642,0.2541,-0.5066,-0.5706,-1.2989,-2.9557,-3.0192,-2.9935,-2.9717,-2.8919,-2.8779,-2.9406,-2.8701,-2.8383,-2.8415,-2.768,-2.7019,-2.6404,-2.619,-2.592,-2.5591,-2.4738,-2.1522,-1.6747,-1.5288,-1.1767,-0.5998,0.7475,1.2745,1.4381,2.7971,3.2848,3.2934,3.4274,3.4661,3.4675,3.5328,3.5725,3.5951,3.5913,3.5897,3.607,3.6913,3.7428,3.8006,3.9189,3.9785,4.0145,4.0488,4.0617,4.0649,4.0577,4.0574,4.0549,4.0549,4.0554,4.0557,4.0557,4.0742,4.089,4.08,4.0921,4.1006,4.1007,4.0961,4.0882,4.0855,4.078,4.0703,4.0703,4.0579,4.0523,4.0607,4.0579,4.0574,4.0649,4.0715,4.074,4.0761,4.0855,4.0909,4.0909,4.095,4.0968,4.1019,4.1074,4.1069,-0.7517,-0.7359,-0.7076,-0.6754,-0.6915,-0.6692,-0.4913,-0.5002,0.0,-0.1331,0.0392,0.2035,0.4462,0.6538,0.8138,0.0,1.1292,1.3237,1.3171,1.453,1.5613,0.0,1.6263,0.0,1.7116,1.7442,0.0,0.6778,0.4524,-0.5631,-2.6406,-2.6903,-2.7349,-2.9148,-2.8919,-2.8919,-2.9287,-2.8873,-2.8654,-2.8559,-2.763,-2.6982,-2.6616,-2.6312,-2.5974,-2.5563,-2.4951,-1.9347,-1.0521,-0.9422,-0.3567,0.5548,1.4844,1.8524,1.9746,2.9202,3.2672,3.2876,3.4099,3.4588,3.4737,3.5353,3.5724,3.5953,3.589,3.5897,3.6122,3.7156,3.7864,3.8539,3.9558,4.0257,4.071,4.0742,4.0771,4.0801,4.0801,4.0749,4.0711,4.0636,4.068,4.0692,4.0692,4.0827,4.0935,4.0935,4.1037,4.1104,4.1105,4.1097,4.1078,4.1022,4.0953,4.0878,4.0761,4.0694,4.0642,4.0629,4.0629,4.0688,4.08,4.0827,4.0843,4.0848,4.0953,4.1027,4.1019,4.1066,4.1112,4.1112,4.1172,4.1169,-0.5573,-0.4838,-0.4151,-0.4151,-0.4151,-0.3995,-0.3214,0.0,-0.2668,-0.0706,0.1488,0.3365,0.4295,0.615,0.8067,0.9739,1.0944,1.1996,1.3046,1.4186,1.4974,1.5046,0.0,0.0,1.6184,1.6968,1.4128,0.5818,-0.0539,-0.8501,-1.8672,-1.9019,-2.1897,-2.8387,-2.918,-2.9316,-2.8951,-2.8654,-2.8606,-2.8858,-2.786,-2.7284,-2.7115,-2.713,-2.6788,-2.6176,-2.5563,-1.9511,0.0,-0.9352,-0.3408,0.6168,1.5114,1.8603,1.9714,2.8887,3.2437,3.2809,3.3681,3.433,3.4889,3.5504,3.5747,3.5816,3.5808,3.5856,3.6224,3.7831,3.8344,3.877,4.0424,4.0914,4.0948,4.089,4.0839,4.0801,4.0801,4.0801,4.0791,4.0772,4.0882,4.0967,4.0967,4.1028,4.1081,4.1081,4.1085,4.1108,4.1108,4.1108,4.1091,4.1094,4.1028,4.0987,4.0961,4.0855,4.0791,4.0777,4.0779,4.0788,4.0793,4.0922,4.0969,4.0974,4.1052,4.1086,4.109,4.1091,4.1132,4.1191,4.1191,4.113,-0.433,-0.3984,-0.3681,-0.3377,-0.3413,-0.3372,-0.2592,0.0,-0.1568,0.0704,0.2815,0.4611,0.5535,0.7145,0.8675,0.9367,1.0726,1.1929,1.2378,1.3251,1.4122,1.4832,1.533,0.0,0.0,0.0,1.5755,1.2431,1.0296,0.5366,-0.324,-1.2209,-2.0511,-2.8082,-2.915,-2.9241,-2.8543,-2.8717,-2.8622,-2.8304,-2.7327,-2.6841,-2.6788,-2.6592,-2.6096,-2.537,-2.5245,-1.6405,0.0,-0.1831,0.6914,2.0492,2.3827,2.5467,2.6345,2.999,3.1826,3.2648,3.3488,3.4139,3.4718,3.5277,3.5601,3.5745,3.5841,3.5845,3.6209,3.7968,3.8458,3.8839,4.0552,4.1031,4.1042,4.1022,4.0992,4.0972,4.0983,4.0961,4.0928,4.0928,4.0961,4.1003,4.1003,4.1055,4.1097,4.1101,4.1099,4.1097,4.1101,4.1101,4.1101,4.1103,4.1046,4.0998,4.0994,4.0889,4.0821,4.0922,4.0922,4.0939,4.0972,4.103,4.1058,4.106,4.1087,4.1112,4.1152,4.1152,4.1172,4.1191,4.1191,4.1152,-0.3293,-0.3227,-0.3142,-0.2843,-0.2897,-0.2715,0.0,0.0,0.0078,0.211,0.4375,0.617,0.6692,0.8138,0.9367,0.9604,1.0956,1.2003,1.2077,1.282,1.3695,1.4625,0.0,1.5171,1.5948,1.6195,1.6451,1.6825,1.7591,1.4578,0.6527,-0.3963,-1.4291,-2.4289,-2.5881,-2.7149,-2.8336,-2.8888,-2.8795,-2.7997,-2.7225,-2.6774,-2.6683,-2.6312,-2.5715,-2.4991,-2.4908,-1.5563,0.0,-0.0534,1.0047,2.6108,2.6046,2.7873,3.0576,3.0697,3.1442,3.2502,3.3187,3.3858,3.4523,3.5015,3.5383,3.5648,3.5771,3.5821,3.6184,3.7984,3.8871,3.9546,4.071,4.1055,4.1111,4.1094,4.1094,4.1094,4.1101,4.1065,4.1027,4.1027,4.1035,4.1039,4.1039,4.1074,4.1103,4.1107,4.1103,4.1103,4.1107,4.1107,4.1107,4.1108,4.1052,4.1035,4.1023,4.093,4.0944,4.1046,4.1046,4.1055,4.1129,4.113,4.1112,4.1093,4.1093,4.1113,4.1172,4.1172,4.1172,4.1172,4.1172,4.1151,-0.2314,-0.2146,-0.2117,-0.2117,-0.2084,-0.159,0.0,0.1461,0.2659,0.3281,0.6018,0.8056,0.7528,0.8751,1.0143,1.0962,1.1632,1.2077,1.2305,1.3178,1.3905,0.0,0.0,1.4797,1.4607,1.4814,1.5406,1.659,1.6959,0.0,0.7061,0.6329,-0.0722,-1.5762,-1.8286,-2.2344,-2.8432,-2.9225,-2.9164,-2.8288,-2.7795,-2.7423,-2.7181,-2.6563,-2.596,-2.5342,-2.4738,-1.8588,0.0,-0.8978,0.1423,1.7346,1.7713,2.2951,3.0335,3.0543,3.1363,3.2435,3.2645,3.3405,3.437,3.4775,3.5136,3.5435,3.5557,3.5703,3.6172,3.7985,3.9744,4.1082,4.109,4.1103,4.1097,4.1093,4.111,4.1101,4.1107,4.1107,4.1107,4.1107,4.1107,4.1107,4.1107,4.1107,4.1107,4.1107,4.1107,4.1107,4.1107,4.1107,4.1108,4.1091,4.1091,4.1091,4.1091,4.1108,4.1129,4.1191,4.1132,4.1132,4.1191,4.1191,4.1172,4.1092,4.1092,4.1092,4.1092,4.1092,4.1092,4.1092,4.1092,4.1108,-0.2044,-0.1458,-0.1062,-0.1632,-0.0586,0.0754,0.1659,0.2534,0.3673,0.5786,0.6865,0.7702,0.838,0.9599,1.0663,1.1037,1.1632,1.2011,0.0,0.0,0.0,1.3248,1.3815,1.4288,0.0,0.0,1.5281,1.5257,1.5993,1.5349,1.2765,1.2845,0.6346,-0.8183,-1.4775,-1.8763,-2.0202,-2.6024,-2.8591,-2.7795,-2.766,-2.7372,-2.6841,-2.7011,-2.6297,-2.466,-1.9104,-1.0731,-0.0596,0.5045,1.4471,2.5331,2.5269,2.7042,2.9717,2.9951,3.0778,3.1898,3.2592,3.3378,3.4195,3.4775,3.51,3.5311,3.5543,3.5657,3.6111,3.799,3.9726,4.1035,4.103,4.1074,4.1093,4.1032,4.1074,4.1105,4.111,4.109,4.109,4.109,4.1131,4.1171,4.1171,4.1131,4.1111,4.1151,4.1131,4.1111,4.1151,4.1171,4.1171,4.1172,4.1172,4.1172,4.1172,4.1171,4.1171,4.1191,4.1172,4.1172,4.1191,4.1152,4.1112,4.1092,4.109,4.1108,4.1108,4.1108,4.1108,4.1108,4.1105,4.1072,0.0,-0.0543,0.0069,-0.0275,0.071,0.0,0.0,0.3957,0.517,0.6997,0.7484,0.7868,0.8916,0.9939,1.071,1.0906,1.1323,1.169,1.1717,0.0,0.0,1.2565,0.0,0.0,0.0,1.4085,1.4345,1.4087,1.4996,1.5515,1.5468,1.5796,1.1976,0.3155,-0.4958,-1.0125,-1.2136,-2.0335,-2.4106,-2.3368,-2.2879,-2.2369,-2.1786,-1.8412,-1.631,-1.4968,-0.9715,-0.3523,0.0,0.8498,1.6089,2.433,2.4148,2.6216,2.9332,2.9556,3.0435,3.1608,3.2194,3.3051,3.3994,3.4475,3.4905,3.5307,3.5557,3.6133,3.6968,3.8154,3.9715,4.1004,4.1035,4.1047,4.1053,4.1047,4.1074,4.111,4.1132,4.1132,4.1132,4.1132,4.1172,4.1191,4.1191,4.1133,4.1113,4.1152,4.1133,4.1113,4.1151,4.1151,4.1151,4.1151,4.1151,4.1151,4.1151,4.1191,4.1191,4.1152,4.1191,4.1191,4.1151,4.1112,4.1091,4.1108,4.1105,4.1105,4.1105,4.1105,4.108,4.1052,4.1039,4.0983,0.0,0.0536,0.134,0.1676,0.1914,0.0,0.0,0.0,0.0,0.7162,0.7879,0.8607,0.9103,0.9882,1.0468,1.0578,1.0873,1.1142,0.0,1.1444,0.0,0.0,1.2708,0.0,1.215,1.256,1.2881,1.314,1.3844,1.463,1.5322,1.5707,1.5982,1.6145,0.9182,0.2258,-0.4364,-1.252,-1.6539,-1.6439,-1.453,-1.3714,-1.3688,-0.3993,0.0442,0.0,0.2171,0.3215,0.3954,0.4923,1.0068,1.7315,1.7274,2.2106,2.9028,2.9287,3.0252,3.1422,3.1548,3.2548,3.3797,3.3981,3.466,3.543,3.565,3.6911,3.8312,3.8463,3.9665,4.0925,4.1046,4.1041,4.1027,4.1087,4.1093,4.1112,4.1191,4.1191,4.1191,4.1191,4.1191,4.1191,4.1191,4.1132,4.1091,4.1091,4.111,4.1107,4.1107,4.1107,4.1107,4.1107,4.1107,4.1107,4.1107,4.1151,4.1171,4.1091,4.1152,4.1151,4.1107,4.111,4.1108,4.1099,4.1099,4.1097,4.1094,4.1094,4.1058,4.0986,4.0915,4.0863,0.1004,0.0,0.2883,0.3498,0.4246,0.4948,0.0,0.0,0.0,0.0,0.0,0.8917,0.9276,1.002,1.0608,1.0823,1.1086,1.1275,1.1182,1.1228,0.0,1.1748,1.1984,1.2134,1.2251,1.256,1.2776,1.2663,1.3087,1.3551,1.4153,1.4684,1.5159,1.5595,1.421,1.0112,0.3026,-0.4375,-1.0996,-1.6622,-0.9335,-0.8692,-1.3679,-0.4598,0.0162,0.1598,0.7961,1.1419,1.3041,1.9242,2.3317,2.5579,2.5128,2.6306,2.8317,2.8904,2.9636,3.0508,3.1442,3.2449,3.3486,3.4292,3.4887,3.5369,3.562,3.6426,3.7424,3.8195,3.9143,4.0093,4.0779,4.0964,4.1019,4.1072,4.1107,4.1113,4.1191,4.1152,4.1132,4.1191,4.1152,4.1112,4.1112,4.1111,4.1108,4.1108,4.1108,4.1107,4.1107,4.1107,4.1107,4.1107,4.1107,4.1107,4.1107,4.1108,4.1129,4.1108,4.111,4.1128,4.1107,4.1105,4.1101,4.1099,4.1094,4.1078,4.1017,4.1017,4.0961,4.0848,4.0839,4.0791,0.2614,0.3351,0.3892,0.47,0.5554,0.6221,0.6158,0.0,0.0,0.0,0.0,0.948,0.9825,1.0319,1.0645,1.059,1.0631,0.0,0.0,0.0,1.1435,1.1435,1.1747,1.1934,0.0,1.212,1.2182,1.1988,1.2413,1.2781,1.3094,1.3576,1.4118,1.4626,1.5495,1.4178,1.0567,0.3672,-0.1853,-0.5918,0.0167,0.1152,-0.2028,0.7143,1.1814,1.2968,1.7675,2.0024,2.0901,2.5486,2.759,2.7905,2.7675,2.781,2.8204,2.867,2.9476,3.0402,3.1055,3.2109,3.3252,3.4274,3.4832,3.5181,3.5519,3.5913,3.6555,3.8004,3.898,3.9782,4.0643,4.0906,4.0974,4.1035,4.1052,4.1064,4.1132,4.1131,4.111,4.1151,4.1111,4.111,4.111,4.1107,4.1103,4.1103,4.1101,4.1101,4.1101,4.1101,4.1101,4.1101,4.1101,4.1097,4.1058,4.1074,4.1101,4.1103,4.1105,4.1105,4.1101,4.1099,4.1069,4.1003,4.1008,4.0955,4.0855,4.0855,4.0801,4.0653,4.0738,4.066,0.4298,0.4631,0.4694,0.5481,0.6272,0.6933,0.6863,0.0,0.0,0.0,0.0,0.0,0.0,1.0728,0.0,0.0,0.0,0.0,1.0624,1.131,1.1622,1.1303,1.1677,0.0,1.1365,1.1435,1.1435,1.1303,1.1809,1.2182,1.2305,1.265,1.3208,1.383,1.4911,1.5756,1.6398,1.1081,0.7871,0.6929,1.0581,1.1985,1.1705,2.1319,2.5783,2.6056,0.0,0.0,2.6616,2.7115,2.7335,2.7335,2.7423,2.7745,2.8158,2.8543,2.9448,3.0517,3.0828,3.1864,3.3226,3.4139,3.4636,3.4924,3.5345,3.5464,3.5836,3.7628,3.8743,3.9605,4.0529,4.084,4.0896,4.0944,4.0988,4.1019,4.1066,4.1086,4.1082,4.1084,4.106,4.1058,4.1058,4.1074,4.1072,4.1072,4.1091,4.1108,4.1108,4.1108,4.1108,4.1108,4.1085,4.1066,4.0994,4.1057,4.1081,4.1065,4.1099,4.1099,4.1062,4.1065,4.0998,4.0867,4.0871,4.0791,4.0668,4.0668,4.0597,4.0468,4.0584,4.054,0.5774,0.602,0.5661,0.5804,0.6924,0.7902,0.0,0.0,0.0,0.0,0.0,0.0,0.0,1.138,1.1707,0.0,0.0,1.1677,0.0,0.0,1.149,1.1115,0.0,1.1247,1.1303,1.1247,1.1185,1.1122,1.1303,1.1677,1.2243,1.2359,1.2911,1.395,1.4515,1.5214,1.5958,1.6337,1.3459,0.7486,1.6226,1.7229,1.1713,2.1466,2.6042,2.6404,0.0,2.6759,2.7019,2.6878,2.6945,2.7137,2.6974,2.713,2.7458,2.8352,2.9041,2.9762,3.1554,3.2674,3.3442,3.4061,3.4467,3.4813,3.5216,3.53,3.5496,3.6633,3.7668,3.8779,4.0311,4.0721,4.0752,4.0801,4.0916,4.0989,4.1012,4.1022,4.1018,4.1027,4.0928,4.0855,4.0855,4.0948,4.1031,4.1031,4.107,4.1108,4.1108,4.1108,4.1108,4.1108,4.1057,4.1,4.0915,4.0974,4.0994,4.0928,4.1046,4.1055,4.0935,4.0935,4.0871,4.0722,4.0742,4.0657,4.0532,4.0532,4.0453,4.0321,4.0339,4.0408,0.6346,0.6985,0.7553,0.8006,0.8221,0.8361,0.0,0.0,0.0,0.0,0.0,0.0,0.0,0.0,1.1703,1.1219,0.0,1.212,1.1608,1.1988,1.2243,0.0,0.0,1.2228,1.2097,1.2097,1.2158,1.2158,1.2282,1.2536,1.2903,1.2972,1.3329,1.4103,1.4619,1.5381,1.6379,1.7546,1.6613,1.3862,1.9472,2.073,1.8221,2.3404,2.5906,2.6204,0.0,2.6244,2.6258,2.6326,2.6472,2.6578,2.6922,2.7269,2.773,2.8919,2.9597,3.0143,3.1752,3.2466,3.2845,3.3766,3.4195,3.4461,3.4832,3.498,3.5169,3.6094,3.7187,3.8375,3.9612,4.0288,4.066,4.0742,4.0791,4.0855,4.0889,4.0882,4.0894,4.0882,4.0843,4.0827,4.0906,4.0954,4.1,4.1047,4.109,4.1097,4.1094,4.1094,4.1094,4.1094,4.1006,4.0906,4.0809,4.089,4.0954,4.1006,4.1076,4.1047,4.0914,4.089,4.0791,4.0532,4.0538,4.0457,4.0266,4.0266,4.0251,4.0177,4.0288,4.0286,0.6976,0.8011,0.9244,1.0078,0.0,0.0,0.0,0.0,0.0,0.0,0.0,0.0,0.0,1.2343,0.0,1.164,1.2158,1.2544,1.2166,1.2605,1.2867,1.2613,1.285,1.2964,1.2712,1.2826,1.2887,1.2948,1.3078,1.326,1.345,1.345,1.3683,1.4273,1.4904,1.5786,1.6775,1.7623,1.8435,1.9223,2.1031,2.2362,2.3421,2.4668,2.537,2.5605,2.5756,2.577,2.5605,2.5907,2.6111,2.6326,2.6959,2.7545,2.8192,2.9374,3.0064,3.0601,3.1623,3.2039,3.2279,3.3469,3.3924,3.4068,3.4505,3.4636,3.481,3.5509,3.6613,3.7801,3.8927,3.9903,4.0588,4.0649,4.0655,4.0684,4.0742,4.0732,4.0731,4.0731,4.074,4.078,4.0894,4.0926,4.0981,4.1047,4.1081,4.1105,4.1096,4.1061,4.1056,4.1056,4.0918,4.0762,4.0665,4.0721,4.0809,4.0955,4.0994,4.0953,4.081,4.0791,4.0648,4.0367,4.0356,4.0252,4.0117,4.0117,4.0117,4.0098,4.0196,4.0196,0.8404,0.95,1.0332,1.1017,1.1156,0.0,1.2081,1.2704,0.0,1.37,0.0,0.0,0.0,1.339,1.345,1.3761,1.3709,1.339,1.2573,0.0,1.256,1.1926,1.2182,1.2367,1.2367,1.2466,1.2634,1.2826,1.2826,1.2956,1.3329,1.3329,1.3683,1.4469,1.5303,1.612,1.6807,1.7865,1.8787,1.9571,2.0673,2.161,2.2432,2.3657,2.4324,2.4624,2.4935,2.5397,2.5893,2.5893,2.6218,2.6683,2.7063,2.7695,2.8559,2.918,2.9756,3.0319,3.1082,3.1666,3.2193,3.3338,3.3732,3.3825,3.4279,3.4334,3.43,3.4524,3.5335,3.6596,3.8514,3.9758,4.0504,4.0519,4.0554,4.0604,4.0597,4.0584,4.0519,4.0519,4.053,4.0543,4.0615,4.0726,4.083,4.0898,4.1025,4.1096,4.1096,4.0987,4.0906,4.0906,4.0679,4.0524,4.0521,4.0396,4.0389,4.0533,4.0653,4.0667,4.0535,4.0466,4.0356,4.0215,4.0157,4.0118,4.0117,4.0117,4.0117,4.0117,4.0098,4.0098,0.9621,1.0577,1.1267,1.2158,1.2466,0.0,0.0,1.2818,1.3321,1.3631,1.4121,0.0,0.0,0.0,1.3983,1.3983,1.4291,1.435,1.4034,1.4052,1.4052,1.3914,1.3743,1.3803,1.4222,1.3743,1.3631,1.4112,1.3983,1.3923,1.4172,1.4697,1.505,1.5059,1.5853,1.6549,1.7032,1.7468,1.8121,1.8975,2.0155,2.1192,2.2107,2.307,2.4006,2.4821,2.4908,2.5203,2.5702,2.6218,2.6312,2.6258,2.7026,2.771,2.8319,2.8858,2.9403,2.9995,3.0149,3.0899,3.1987,3.3014,3.3437,3.3643,3.3947,3.3986,3.3993,3.4093,3.4959,3.6231,3.7773,3.8922,3.9791,4.0364,4.0527,4.0523,4.0489,4.0489,4.0489,4.0438,4.0504,4.0564,4.0549,4.0641,4.0751,4.0761,4.082,4.0858,4.084,4.077,4.0707,4.0707,4.0511,4.038,4.0383,4.025,4.0232,4.0377,4.0511,4.053,4.0383,4.0351,4.0269,4.0077,4.0057,4.0015,3.9994,3.9994,3.9994,3.9994,3.9994,3.9994,1.0551,1.1494,1.2266,1.3164,0.0,0.0,1.3304,1.3425,1.3623,1.3932,1.435,1.4597,1.4249,0.0,0.0,0.0,1.4588,1.4834,1.4834,1.4893,1.4951,1.5118,1.4883,1.4883,1.5294,1.4765,1.4656,1.5079,1.501,1.4942,1.501,1.571,1.5941,1.5594,1.6228,1.674,1.7022,1.719,1.7733,1.8602,1.9497,2.0395,2.1174,2.2386,2.3349,2.4085,2.4573,2.5021,2.5522,2.6082,2.6297,2.6486,2.7306,2.781,2.8158,2.8686,2.9098,2.9383,2.9535,3.0275,3.1367,3.2687,3.3255,3.3447,3.3633,3.3707,3.3698,3.3762,3.4457,3.5443,3.663,3.8021,3.9325,4.0204,4.0415,4.0381,4.0345,4.0363,4.0363,4.0308,4.0392,4.0466,4.0472,4.0565,4.0629,4.0667,4.0667,4.0655,4.0649,4.0563,4.0492,4.0446,4.03,4.0176,4.0157,4.004,3.9979,4.0043,4.0118,4.0191,4.0232,4.0195,4.0101,3.9996,3.9954,3.987,3.9826,3.9826,3.9823,3.9781,3.9781,3.9781,1.1112,1.2204,1.3459,0.0,0.0,0.0,1.5177,1.4775,1.4369,1.4911,1.4843,1.4775,1.497,1.4725,0.0,1.4715,1.4715,1.4706,1.4706,1.4834,1.4893,1.4893,1.5059,1.5167,1.5235,1.5294,1.541,1.541,1.57,1.5826,1.5672,1.5951,1.6066,1.5914,1.6353,1.657,1.657,1.719,1.7843,1.8525,1.8697,1.8993,1.9506,2.1492,2.2262,2.2193,2.3785,2.4838,2.5398,2.5398,2.6176,2.7437,2.7894,2.8076,2.8143,2.8821,2.8803,2.8527,2.9486,2.9902,3.0352,3.2385,3.3112,3.3225,3.3429,3.3429,3.3403,3.3473,3.3634,3.4031,3.505,3.7171,3.9256,4.0005,4.0196,4.0196,4.0196,4.0157,4.0117,4.0117,4.0158,4.0233,4.0372,4.045,4.0506,4.059,4.059,4.0557,4.0491,4.0377,4.025,4.0118,4.0036,3.9954,3.9804,3.9739,3.9647,3.9526,3.9502,3.967,4.0077,3.9911,3.9848,3.9996,3.9804,3.9693,3.9693,3.9693,3.9647,3.9502,3.9502,3.9502,1.1596,1.2488,0.0,1.4565,0.0,0.0,0.0,1.5517,0.0,0.0,1.5371,1.5088,1.5156,1.5264,0.0,1.5235,1.5371,1.5556,1.5556,1.5556,1.5614,1.5614,1.542,1.541,1.5672,1.5303,1.5118,1.5352,1.541,1.541,1.5362,1.6056,1.6285,1.5884,1.656,1.6853,1.6751,1.7346,1.7886,1.8387,1.8934,1.9585,2.0261,2.0857,2.178,2.2928,2.358,2.4348,2.5104,2.5048,2.5245,2.5672,2.6251,2.646,2.6628,2.8073,2.8513,2.8559,2.9871,3.0152,3.0057,3.0813,3.1549,3.2193,3.2449,3.2763,3.305,3.3129,3.339,3.3872,3.4779,3.631,3.7858,3.8778,3.9622,4.0196,4.0137,4.0157,4.0157,4.0117,4.0177,4.025,4.0215,4.0267,4.0334,4.0251,4.0252,4.0214,4.0158,4.0041,3.9897,3.9826,3.9717,3.9647,3.9599,3.9575,3.9532,3.9483,3.9502,3.9532,3.967,3.9623,3.9599,3.9647,3.9599,3.9575,3.9575,3.9575,3.9551,3.9502,3.9502,3.9502,1.1637,1.2635,0.0,1.4641,1.5274,1.5853,1.6202,0.0,0.0,0.0,1.6114,1.5826,1.5604,1.572,0.0,1.5478,1.5662,1.5798,1.5798,1.5856,1.5914,1.5914,1.573,1.5662,1.5856,1.5556,1.542,1.5642,1.5758,1.57,1.5652,1.6285,1.6524,1.6124,1.6524,1.6853,1.6955,1.7335,1.7875,1.8655,1.9279,2.0013,2.0759,2.1134,2.1755,2.2562,2.3441,2.412,2.465,2.465,2.4881,2.5301,2.5652,2.6232,2.6989,2.8229,2.8276,2.8,2.9688,3.0087,2.9988,3.0544,3.1127,3.1652,3.2127,3.2504,3.277,3.2802,3.305,3.3441,3.3912,3.5128,3.662,3.8041,3.9248,4.0057,3.9954,3.9975,3.9975,3.987,3.9981,4.0081,3.9996,4.01,4.0177,4.0077,4.0036,3.9994,3.9892,3.9826,3.9717,3.9647,3.9551,3.9477,3.9427,3.9427,3.9401,3.9331,3.935,3.935,3.935,3.9401,3.9452,3.9502,3.9452,3.9427,3.9427,3.9427,3.9383,3.935,3.935,3.935,1.1526,1.2822,0.0,1.4685,1.5417,0.0,1.6514,1.6928,1.7168,1.6976,0.0,1.6853,1.6285,1.6171,1.6056,1.5642,1.5662,1.573,1.573,1.5788,1.5856,1.5856,1.5856,1.5856,1.5856,1.5856,1.5904,1.6056,1.6343,1.6467,1.6374,1.6591,1.6648,1.6488,1.6488,1.674,1.7257,1.7313,1.7972,1.9291,1.9722,2.037,2.1055,2.1889,2.2034,2.1754,2.3397,2.4137,2.4234,2.4452,2.5009,2.5669,2.5723,2.675,2.8173,2.8826,2.8185,2.7354,2.9118,2.9827,3.008,3.1089,3.1372,3.149,3.2197,3.2472,3.2539,3.2489,3.2657,3.2834,3.2719,3.3864,3.5576,3.7542,3.8907,3.975,3.9698,3.9693,3.9647,3.9508,3.9647,3.9781,3.9781,3.9933,4.0017,3.9975,3.9911,3.9826,3.9693,3.967,3.9623,3.9483,3.9458,3.9408,3.9298,3.9272,3.9219,3.9101,3.9073,3.9073,3.9073,3.9219,3.935,3.9477,3.935,3.9272,3.9272,3.9272,3.9219,3.9101,3.9101,3.9073,1.1608,1.2957,0.0,0.0,1.7489,1.7825,1.8543,1.8826,1.8715,1.8162,1.7601,1.7051,1.6705,1.674,1.6786,1.6662,1.6379,1.6151,1.6151,1.572,1.5332,1.5332,1.5332,1.5332,1.5332,1.5566,1.573,1.5788,1.5961,1.6029,1.6029,1.6181,1.6457,1.6853,1.6944,1.7324,1.7929,1.8255,1.8845,1.9695,2.0194,2.0795,2.1458,2.1774,2.2369,2.3228,2.4028,2.4599,2.4951,2.5007,2.4912,2.4749,2.538,2.5664,2.5948,2.781,2.8819,2.92,2.8791,2.9214,2.9995,3.0534,3.0814,3.0988,3.1432,3.1858,3.2214,3.2179,3.2301,3.2454,3.2588,3.3713,3.509,3.6325,3.7667,3.8809,3.94,3.9532,3.9532,3.9526,3.9532,3.9556,3.9556,3.9599,3.9623,3.9623,3.9599,3.9575,3.9551,3.9433,3.9357,3.935,3.9245,3.9165,3.9156,3.9101,3.9064,3.9007,3.8979,3.895,3.895,3.9073,3.9156,3.921,3.9156,3.9137,3.9137,3.9137,3.9101,3.9007,3.9007,3.8979,1.3084,0.0,0.0,1.8693,0.0,1.9453,1.9911,2.0027,1.9911,1.9596,1.881,1.8147,1.792,1.7886,1.7731,1.7169,1.689,1.6655,1.6317,1.6053,1.5901,1.5951,1.5778,1.5604,1.5546,1.5488,1.543,1.5546,1.5594,1.57,1.5778,1.6239,1.657,1.6909,1.7279,1.7863,1.8738,1.898,1.9554,2.0497,2.1091,2.1684,2.2231,2.2145,2.2719,2.3872,2.4145,2.4587,2.5119,2.5119,2.526,2.5464,2.5558,2.5689,2.604,2.7685,2.8987,2.9826,2.9261,2.9528,3.0129,3.034,3.0692,3.1038,3.1218,3.1617,3.1982,3.1982,3.2073,3.2232,3.2335,3.3051,3.396,3.4878,3.673,3.8507,3.9239,3.9376,3.935,3.9324,3.9324,3.9376,3.9401,3.9477,3.9502,3.9502,3.9502,3.9477,3.9427,3.935,3.9272,3.9183,3.9073,3.9036,3.9007,3.8979,3.895,3.895,3.8939,3.891,3.891,3.8979,3.8989,3.8989,3.8989,3.8989,3.8989,3.8989,3.8979,3.895,3.895,3.8921,1.4984,0.0,1.7313,2.0015,2.072,0.0,2.0706,2.0706,2.0706,2.0706,2.008,1.9438,1.9117,1.9016,1.8679,1.7718,1.7489,1.7258,1.6759,1.6658,1.669,1.6853,1.6457,1.6026,1.5668,1.5264,1.51,1.5409,1.538,1.5486,1.5631,1.6348,1.6832,1.6955,1.7667,1.8471,1.9527,1.9645,2.0244,2.1286,2.1935,2.2463,2.2947,2.269,2.3105,2.4056,2.4124,2.4572,2.5287,2.5398,2.5997,2.6732,2.6261,2.6451,2.7181,2.8066,2.891,2.9661,2.9729,2.9903,3.0064,3.0136,3.0559,3.1055,3.1179,3.1466,3.1746,3.1763,3.1893,3.2037,3.2073,3.2352,3.2847,3.3695,3.5893,3.8021,3.8782,3.9072,3.9129,3.9073,3.9101,3.9156,3.9219,3.9324,3.9401,3.9401,3.9401,3.935,3.9245,3.9219,3.9183,3.9007,3.8979,3.895,3.8892,3.891,3.8862,3.8862,3.8881,3.8881,3.8881,3.8881,3.8881,3.8881,3.8881,3.891,3.891,3.891,3.8881,3.8881,3.8881,3.8851,0.0,0.0,1.8348,0.0,2.0707,2.0688,0.0,0.0,2.0688,0.0,2.0605,2.028,1.9482,1.9319,1.927,1.9153,1.8725,1.8372,1.8307,1.74,1.6892,1.7146,1.6641,1.5847,1.481,1.4611,1.483,1.5392,1.5399,1.5399,1.5449,1.6186,1.6927,1.762,1.865,1.9475,2.0067,2.0459,2.0944,2.1554,2.2137,2.2646,2.3083,2.3186,2.3506,2.3941,2.448,2.5348,2.6446,2.6959,2.733,2.764,2.7856,2.7993,2.8149,2.8527,2.8573,2.857,2.906,2.9152,2.9166,2.954,3.0021,3.0477,3.0804,3.1218,3.1634,3.1538,3.1688,3.1856,3.1912,3.2197,3.268,3.3661,3.4864,3.6113,3.7229,3.8298,3.9007,3.8921,3.8921,3.895,3.895,3.8979,3.8979,3.8979,3.8979,3.8979,3.895,3.895,3.895,3.8939,3.8892,3.891,3.891,3.8851,3.8822,3.8822,3.875,3.8738,3.8738,3.8738,3.8738,3.8738,3.8851,3.891,3.891,3.891,3.8851,3.8738,3.8738,3.864,1.8389,1.8442,1.8498,0.0,2.0694,2.0714,2.0703,2.0716,2.0716,2.0716,2.0694,2.0579,2.0182,2.0144,2.0118,2.013,1.9949,1.9778,1.9775,1.9327,1.8642,1.7784,1.7645,1.73,1.6613,1.5305,1.462,1.4848,1.6156,1.7043,1.7412,1.6994,1.7211,1.836,1.931,2.0144,2.0871,2.1334,2.1941,2.274,2.2979,2.3157,2.3377,2.3465,2.3881,2.4506,2.5285,2.6149,2.7005,2.7674,2.8194,2.8513,2.8209,2.8442,2.8854,2.8354,2.8384,2.8682,2.892,2.9088,2.9255,2.9601,3.0038,3.0502,3.0821,3.1196,3.1538,3.1517,3.1576,3.1691,3.1728,3.1894,3.2161,3.2634,3.3581,3.4652,3.561,3.7243,3.8615,3.8803,3.8862,3.891,3.891,3.891,3.891,3.891,3.891,3.891,3.891,3.891,3.8881,3.8851,3.8833,3.8822,3.881,3.875,3.875,3.875,3.8738,3.8707,3.8707,3.8707,3.8658,3.8609,3.8701,3.878,3.878,3.8713,3.8652,3.8609,3.8546,3.8496,0.0,0.0,1.9101,2.0373,2.0603,2.0459,0.0,0.0,2.0474,0.0,2.0449,2.0498,2.0459,2.0601,2.0628,2.0514,2.0617,2.0669,2.0475,2.0628,2.0198,1.891,1.8588,1.8265,1.77,1.6318,1.5415,1.5401,1.7069,1.8492,1.9359,1.8382,1.8201,1.9181,1.9953,2.0646,2.1313,2.1955,2.268,2.3508,2.3508,2.3566,2.3653,2.3681,2.4139,2.4887,2.58,2.658,2.7226,2.8045,2.8732,2.9227,2.8496,2.8683,2.9234,2.8355,2.8336,2.8759,2.8779,2.8996,2.9377,2.9572,3.0038,3.0625,3.0821,3.1134,3.1462,3.144,3.15,3.1559,3.1542,3.1634,3.1726,3.1763,3.2576,3.374,3.5013,3.682,3.8314,3.8701,3.8822,3.8851,3.8851,3.8851,3.8851,3.8851,3.8851,3.8851,3.8851,3.8851,3.8822,3.8762,3.8762,3.8732,3.8707,3.8707,3.8707,3.8707,3.8658,3.8658,3.8658,3.8627,3.8578,3.8478,3.8578,3.8627,3.8627,3.8528,3.8478,3.8446,3.8401,3.8368,0.0,2.0219,0.0,2.0695,2.0295,0.0,0.0,0.0,1.9834,1.9826,1.9837,1.9834,1.9876,2.0322,2.0488,1.994,2.036,2.0501,1.994,2.0359,2.0688,2.0577,1.9095,1.7671,1.6569,1.7328,1.794,1.7928,1.8024,1.8821,2.0496,2.0526,2.0347,2.0051,2.0612,2.0993,2.1042,2.2128,2.2889,2.3319,2.3319,2.3494,2.3797,2.3994,2.4261,2.4673,2.5632,2.6423,2.7205,2.8232,2.9136,2.9814,2.9259,2.9091,2.9091,2.8779,2.8558,2.8427,2.846,2.8748,2.912,2.912,2.9777,3.0518,3.0518,3.0885,3.1312,3.123,3.1363,3.1462,3.1351,3.1406,3.1538,3.1596,3.2256,3.3604,3.6374,3.757,3.8201,3.8627,3.8707,3.8707,3.8707,3.8707,3.8707,3.8707,3.8707,3.8707,3.8707,3.8707,3.8707,3.8707,3.8707,3.8707,3.8707,3.8707,3.8707,3.8707,3.859,3.851,3.851,3.8446,3.8415,3.8415,3.8415,3.8433,3.8433,3.8415,3.8368,3.8307,3.8307,3.8274,0.0,0.0,0.0,2.1369,2.0578,1.9785,1.9804,1.9801,2.0175,2.1515,2.0709,1.9811,1.9804,1.9961,2.0052,1.9826,2.0295,2.0511,1.9902,1.9964,1.9565,1.81,1.7376,1.7133,1.7469,1.7489,1.7678,1.8058,1.9132,2.0048,2.0679,2.0682,2.0732,2.0817,2.1014,2.1485,2.2221,2.3009,2.361,2.3925,2.3925,2.3994,2.4135,2.4477,2.4759,2.5045,2.6118,2.6745,2.711,2.7958,2.8756,2.935,2.8982,2.8826,2.8842,2.8573,2.8653,2.8873,2.8873,2.9182,2.9617,2.9908,3.0208,3.0559,3.0878,3.1095,3.1213,3.119,3.1291,3.1351,3.1295,3.1406,3.1517,3.1579,3.2372,3.3491,3.482,3.6699,3.8219,3.8627,3.8707,3.8707,3.8707,3.8707,3.8707,3.8707,3.8707,3.8707,3.8707,3.8707,3.8707,3.8707,3.8609,3.8559,3.8559,3.8528,3.8515,3.8515,3.8446,3.8446,3.8446,3.8415,3.8401,3.8354,3.8322,3.8336,3.8382,3.8336,3.8322,3.8307,3.8241,3.8207,2.0891,0.0,0.0,0.0,2.1465,2.0853,2.0819,2.0833,2.124,2.2636,2.1794,2.086,2.0845,2.0863,2.0837,2.0817,2.0563,2.0258,1.9851,1.9798,1.9236,1.7728,1.7565,1.7695,1.8065,1.7981,1.8038,1.8247,1.9429,0.0,2.0669,2.0847,2.1179,2.1609,2.1657,2.2137,2.3113,2.3508,2.3909,2.4302,2.4426,2.4492,2.4533,2.4902,2.516,2.5362,2.6097,2.6844,2.7541,2.8153,2.8786,2.938,2.8951,2.8779,2.8685,2.8653,2.8748,2.8873,2.9044,2.9393,2.9837,3.0182,3.0477,3.0781,3.1112,3.119,3.119,3.119,3.1213,3.1274,3.1274,3.1368,3.1445,3.1504,3.2392,3.3387,3.3823,3.5921,3.782,3.8224,3.8524,3.8707,3.8707,3.8658,3.864,3.864,3.8609,3.8596,3.8596,3.8596,3.8596,3.8596,3.8528,3.8478,3.8478,3.8415,3.8382,3.8382,3.8401,3.8368,3.8368,3.8336,3.8322,3.8274,3.8274,3.8307,3.8336,3.8307,3.8274,3.8274,3.8225,3.8192,0.0,0.0,0.0,0.0,0.0,0.0,2.2962,0.0,2.2922,2.2912,2.2914,2.2875,2.2879,2.288,2.2928,2.2902,2.1141,1.9825,1.9812,1.9818,1.9788,1.9772,1.978,1.9328,1.8253,1.8906,1.9138,1.8545,1.8848,1.9483,2.0636,2.1158,2.1725,2.2466,2.2649,2.2965,2.3595,2.3595,2.3867,2.4302,2.4655,2.4839,2.4942,2.5313,2.554,2.554,2.554,2.6672,2.8527,2.8836,2.9368,2.9924,2.9348,2.8951,2.8732,2.8997,2.8826,2.8541,2.8951,2.9438,2.9853,2.9793,3.0452,3.119,3.119,3.119,3.119,3.119,3.119,3.119,3.119,3.1252,3.1295,3.1295,3.228,3.3298,3.3669,3.5388,3.698,3.7363,3.8083,3.8652,3.867,3.8554,3.8473,3.851,3.8446,3.8382,3.8382,3.8382,3.8382,3.8382,3.8382,3.8382,3.8382,3.8382,3.8382,3.8382,3.8322,3.8307,3.8307,3.8241,3.8192,3.8192,3.8192,3.8192,3.8192,3.8192,3.8192,3.8192,3.8192,3.8192,2.2434,0.0,0.0,0.0,0.0,0.0,2.3947,0.0,2.3713,2.3054,2.2892,2.2892,2.2896,2.2901,2.2922,2.2895,2.1156,1.9797,1.9787,1.9797,1.9822,1.9811,1.9331,1.898,1.8948,1.8667,1.8614,0.0,1.9169,1.9569,2.0156,2.097,2.165,2.2175,2.2694,2.3068,2.326,2.3937,2.4385,2.4508,2.4997,2.5253,2.5291,2.5726,2.5944,2.5944,2.6245,2.7345,2.8904,2.8286,2.8565,2.9348,2.9528,2.9348,2.9044,2.9348,2.9572,2.9733,2.9422,2.9881,3.0551,3.014,3.0452,3.0992,3.1032,3.1015,3.0992,3.1015,3.1072,3.1072,3.119,3.123,3.1252,3.1295,3.1996,3.2685,3.2873,3.4227,3.5611,3.6333,3.6751,3.7147,3.7716,3.7729,3.7833,3.8418,3.8446,3.8382,3.8382,3.8382,3.8382,3.8382,3.8336,3.8271,3.8168,3.8223,3.8223,3.8119,3.8189,3.8225,3.8225,3.8225,3.8192,3.8192,3.8192,3.8192,3.8192,3.8192,3.8192,3.8192,3.8192,3.8192,0.0,0.0,0.0,0.0,0.0,0.0,2.4472,2.4204,2.3852,0.0,2.3069,2.2907,2.2904,2.2913,2.2815,2.263,2.1525,2.0571,2.0308,1.9978,1.9798,1.9798,1.9399,1.9242,1.9488,1.9121,1.9069,1.95,1.9656,2.0042,2.0769,2.1575,2.2235,2.2725,2.3319,2.3638,2.3638,2.441,2.4815,2.4855,2.5307,2.5535,2.5626,2.6101,2.6314,2.6314,2.659,2.7588,2.9013,2.8455,2.8846,2.9777,3.0011,2.9793,2.9348,2.975,2.9924,2.9924,2.9793,3.0113,3.0568,3.0241,3.0468,3.0912,3.0952,3.0952,3.0912,3.0952,3.0935,3.0992,3.1072,3.1112,3.1151,3.1157,3.164,3.2179,3.2403,3.3315,3.437,3.5407,3.5923,3.6325,3.6813,3.6796,3.6882,3.7338,3.7658,3.7812,3.7729,3.802,3.8219,3.8204,3.8171,3.8138,3.8068,3.8156,3.8174,3.8088,3.8174,3.8192,3.8192,3.8192,3.8174,3.8122,3.8122,3.8106,3.809,3.8158,3.8174,3.8122,3.8072,3.8072,0.0,0.0,0.0,0.0,2.4887,0.0,2.4704,2.4256,2.3842,0.0,2.3496,2.3053,2.3023,2.2978,2.2797,2.237,2.2053,2.1663,2.105,2.0347,1.9901,1.9901,1.985,1.9798,1.9798,1.9926,1.999,1.999,2.0182,2.0795,2.1941,2.2558,2.3157,2.3638,2.4147,2.4436,2.4477,2.4918,2.5208,2.5269,2.561,2.5828,2.5954,2.6399,2.6589,2.6572,2.664,2.7536,2.8991,2.8991,2.9592,3.0584,3.0559,3.0182,2.9705,3.0182,3.0054,2.9694,3.0017,3.0189,3.0231,3.0189,3.0485,3.0871,3.0871,3.0871,3.0871,3.0871,3.0871,3.0871,3.0912,3.0935,3.0975,3.1015,3.1355,3.186,3.2214,3.2702,3.3376,3.4527,3.5287,3.5787,3.5919,3.5866,3.5781,3.5872,3.6445,3.6801,3.6684,3.7298,3.7733,3.779,3.7841,3.7893,3.7984,3.8122,3.8192,3.8174,3.8174,3.8174,3.8174,3.8192,3.8106,3.7984,3.7984,3.7967,3.7899,3.809,3.8106,3.8002,3.7934,3.7899,0.0,0.0,0.0,0.0,2.5492,0.0,2.5422,2.5323,2.5123,0.0,2.4451,2.4173,2.3752,2.3334,2.3038,2.2949,2.2282,2.1684,2.1348,2.0809,2.0459,2.0459,2.0055,1.9798,1.9798,1.9811,1.9862,1.999,2.061,2.1465,2.2512,2.2754,2.329,2.4135,2.4338,2.4567,2.4887,2.5346,2.5589,2.5626,2.5994,2.6189,2.6225,2.6434,2.652,2.652,2.6554,2.7377,2.8753,2.8753,2.9399,3.0377,3.0757,3.0551,3.0146,3.0468,3.0568,3.0426,3.0027,3.013,3.0401,2.9984,3.0215,3.0609,3.0692,3.0651,3.0609,3.0692,3.0733,3.0773,3.0871,3.0912,3.0935,3.0975,3.1528,3.2074,3.2283,3.2848,3.34,3.372,3.3923,3.4262,3.4929,3.4987,3.5145,3.5781,3.5942,3.5923,3.5923,3.5966,3.6258,3.6922,3.7027,3.728,3.7929,3.8122,3.814,3.8036,3.8036,3.8036,3.8036,3.8003,3.7934,3.7934,3.7934,3.7899,3.7899,3.7934,3.7934,3.7934,3.7899,3.7899,0.0,0.0,0.0,2.6225,2.599,0.0,0.0,2.5454,2.5224,2.4759,2.442,2.4173,2.3964,2.3465,2.3083,2.3083,2.2586,2.2123,2.2016,2.1091,2.0321,2.0016,1.9759,1.9604,1.9708,1.9708,1.9901,2.0372,2.1077,2.1833,2.2649,2.3068,2.3551,2.4261,2.4542,2.4887,2.5329,2.5795,2.603,2.6099,2.6225,2.6295,2.6295,2.6382,2.6399,2.6415,2.6818,2.764,2.8749,2.9063,2.9715,3.0535,3.0855,3.0733,3.0485,3.0651,3.0651,3.0568,3.0241,3.03,3.0468,3.0258,3.03,3.051,3.0568,3.0568,3.051,3.0568,3.0609,3.0609,3.0692,3.0733,3.0855,3.114,3.1511,3.1986,3.2435,3.2844,3.3178,3.3404,3.3481,3.3619,3.4076,3.4109,3.4195,3.4576,3.492,3.5078,3.506,3.5321,3.5684,3.6095,3.6164,3.654,3.7334,3.7458,3.7621,3.7966,3.7967,3.7951,3.7951,3.7934,3.7864,3.781,3.7775,3.7739,3.7739,3.7739,3.7775,3.781,3.7775,3.7739,0.0,0.0,0.0,0.0,0.0,2.6187,0.0,0.0,0.0,2.4759,2.442,2.4173,2.4131,2.3666,2.326,2.3172,0.0,0.0,0.0,2.1251,0.0,1.9926,1.9565,1.946,1.9708,1.9759,2.0105,2.0845,2.1486,2.2146,2.2875,2.3421,2.3937,2.4533,2.4879,2.5291,2.5848,2.6189,2.6382,2.652,2.6399,2.6347,2.6347,2.6347,2.6347,2.638,2.715,2.7938,2.8691,2.9354,3.0049,3.0692,3.0831,3.0773,3.0651,3.0651,3.0609,3.0526,3.0526,3.0526,3.0526,3.0526,3.0526,3.0526,3.0526,3.0526,3.0526,3.0526,3.0526,3.0526,3.0526,3.0568,3.0797,3.1261,3.1528,3.1842,3.2601,3.2844,3.2988,3.3334,3.3411,3.3393,3.3452,3.3422,3.3364,3.3334,3.3833,3.4217,3.4163,3.4677,3.5112,3.5274,3.5357,3.575,3.6705,3.6795,3.712,3.7913,3.7916,3.7864,3.7864,3.7864,3.7775,3.7667,3.7613,3.7577,3.7577,3.7577,3.7613,3.7667,3.7613,3.7577,0.0,0.0,0.0,0.0,2.6954,2.6556,2.626,0.0,2.5864,2.577,0.0,2.5185,2.5013,0.0,0.0,0.0,0.0,0.0,2.165,2.1361,2.1313,2.1506,2.0258,1.9617,2.0271,2.0409,2.0696,2.1272,2.1894,2.2665,2.3709,2.3937,2.4461,2.5351,2.5519,2.5848,2.6399,2.645,2.652,2.6589,2.652,2.6485,2.6485,2.6485,2.6485,2.6519,2.7131,2.7827,2.8577,2.9198,2.9847,3.0526,3.0692,3.0651,3.0526,3.0526,3.051,3.0526,3.0526,3.0526,3.0526,3.0526,3.0526,3.0526,3.0526,3.0526,3.0526,3.0526,3.0526,3.0526,3.0526,3.051,3.0675,3.1179,3.1565,3.1933,3.2504,3.2948,3.3262,3.3292,3.3352,3.3364,3.3322,3.334,3.3262,3.3165,3.3206,3.326,3.326,3.3332,3.3674,3.4524,3.4627,3.5223,3.6669,3.6795,3.7104,3.788,3.7792,3.7703,3.7703,3.7649,3.7631,3.7613,3.7613,3.7577,3.7577,3.7577,3.7613,3.7613,3.7613,3.7577,0.0,0.0,0.0,0.0,0.0,0.0,2.6916,0.0,2.6349,2.6154,0.0,0.0,0.0,0.0,0.0,0.0,2.3172,2.2663,0.0,0.0,2.1277,2.0921,0.0,0.0,2.0709,2.066,2.0944,2.1827,2.2189,2.286,2.3837,2.412,2.4599,2.5465,2.5556,2.5832,2.6382,2.6382,2.6434,2.6554,2.6434,2.6382,2.6382,2.6382,2.6616,2.7067,2.7801,2.8536,2.9193,2.9886,3.0286,3.0526,3.0568,3.0568,3.0526,3.0526,3.0526,3.0526,3.0526,3.0526,3.0526,3.0526,3.0526,3.0526,3.0526,3.0526,3.0526,3.0526,3.0526,3.0526,3.0526,3.0526,3.0658,3.1414,3.1696,3.2004,3.2834,3.317,3.3292,3.3352,3.3382,3.3382,3.3292,3.3322,3.3352,3.3286,3.3244,3.3244,3.3274,3.3244,3.337,3.3822,3.3828,3.4248,3.5385,3.5792,3.6337,3.711,3.7453,3.7649,3.7649,3.7613,3.7577,3.7577,3.7577,3.7577,3.7577,3.7577,3.7577,3.7577,3.7577,3.7577,2.914,0.0,0.0,0.0,0.0,0.0,0.0,0.0,0.0,0.0,2.6262,0.0,0.0,0.0,2.4648,0.0,0.0,2.3024,0.0,2.1902,0.0,0.0,0.0,0.0,0.0,2.0957,2.1299,2.2091,2.2495,2.3098,2.4048,2.4313,2.4799,2.5684,2.5684,2.5868,2.6295,2.6295,2.6382,2.6485,2.6399,2.6382,2.6382,2.653,2.6931,2.7534,2.8524,2.9204,2.9642,3.0351,3.0609,3.0526,3.0526,3.0526,3.0526,3.0526,3.0526,3.0526,3.0526,3.0526,3.0526,3.0526,3.0526,3.0526,3.0526,3.0485,3.0485,3.0468,3.0485,3.0485,3.0485,3.0526,3.0699,3.1418,3.1679,3.2021,3.2866,3.3152,3.3292,3.3352,3.3382,3.3364,3.3322,3.3352,3.3382,3.3334,3.3322,3.3292,3.3304,3.3322,3.3292,3.3334,3.3274,3.3556,3.4366,3.5011,3.584,3.6808,3.7309,3.7577,3.7577,3.7577,3.7577,3.7577,3.7577,3.7577,3.7577,3.7577,3.7577,3.7577,3.7577,3.7577,0.0,0.0,0.0,2.9286,0.0,0.0,0.0,0.0,2.7365,0.0,0.0,2.6674,2.6402,2.6033,0.0,0.0,0.0,0.0,0.0,0.0,2.217,2.2137,0.0,0.0,0.0,2.1492,2.1996,0.0,2.2646,2.3523,2.4542,2.4648,2.5137,2.6132,2.6184,2.6222,2.6295,2.6295,2.6382,2.6485,2.6485,2.652,2.6605,2.7188,2.7559,2.7784,2.9037,2.957,2.9636,3.0269,3.051,3.0526,3.0526,3.0526,3.0526,3.0526,3.0526,3.0526,3.0526,3.0526,3.0526,3.0526,3.0526,3.0526,3.0526,3.0443,3.0417,3.0485,3.0443,3.0401,3.0468,3.0526,3.0593,3.1004,3.1414,3.1823,3.2317,3.2766,3.3135,3.3262,3.3352,3.3393,3.3411,3.3352,3.3262,3.3117,3.3214,3.3262,3.3135,3.3214,3.3262,3.3117,3.3117,3.3427,3.4139,3.4945,3.6021,3.7488,3.7577,3.7577,3.7577,3.7577,3.7577,3.7577,3.7577,3.7577,3.7577,3.7577,3.7577,3.7577,3.7577,3.7577,0.0,0.0,2.998,2.9908,0.0,0.0,0.0,0.0,0.0,0.0,0.0,0.0,0.0,0.0,0.0,0.0,0.0,0.0,0.0,0.0,2.2184,2.2184,2.1712,0.0,0.0,0.0,0.0,0.0,2.3304,2.3921,2.4648,2.5028,2.5519,2.6168,2.622,2.6203,2.6222,2.6222,2.6274,2.631,2.631,2.6559,2.7061,2.7331,2.8002,2.8992,2.9454,2.9916,3.0342,3.0551,3.0568,3.0526,3.0526,3.0526,3.0526,3.0526,3.0526,3.0526,3.0526,3.0485,3.0443,3.0485,3.0401,3.0316,3.0401,3.0375,3.0274,3.0316,3.0359,3.0417,3.0443,3.0485,3.0593,3.1004,3.1435,3.1914,3.2437,3.2898,3.3244,3.3352,3.3364,3.3393,3.3393,3.3382,3.3334,3.3304,3.3292,3.3292,3.3262,3.3214,3.3165,3.3117,3.3073,3.3118,3.3387,3.4557,3.5934,3.7487,3.7577,3.7577,3.7577,3.7577,3.7577,3.7577,3.7577,3.754,3.741,3.7558,3.7521,3.741,3.7558,3.7577,3.034,3.0364,0.0,3.0356,3.0092,0.0,2.9544,0.0,2.8887,0.0,0.0,0.0,0.0,0.0,0.0,0.0,0.0,0.0,0.0,2.2663,2.2231,2.2231,2.1841,2.1841,0.0,0.0,2.2709,2.3246,2.3809,2.4364,0.0,2.5297,2.5721,2.6184,2.622,2.622,2.622,2.622,2.622,2.622,2.6468,2.6925,2.7557,2.8076,2.8867,2.9827,3.0079,3.0346,3.0609,3.0609,3.0568,3.0526,3.0526,3.0526,3.0526,3.0526,3.0526,3.0485,3.0485,3.0443,3.0417,3.0401,3.0316,3.0205,3.0274,3.0248,3.0146,3.0189,3.0248,3.029,3.0333,3.0401,3.051,3.0781,3.1223,3.166,3.2056,3.2588,3.3011,3.3104,3.3196,3.3286,3.3286,3.3286,3.3304,3.3352,3.3322,3.3262,3.3201,3.3122,3.3073,3.3024,3.2979,3.318,3.3734,3.4934,3.6185,3.7505,3.7577,3.7577,3.7577,3.7521,3.7379,3.7166,3.7361,3.7305,3.6984,3.7415,3.7521,3.741,3.7558,3.7577]}]]